<?xml version="1.0" encoding="UTF-8" standalone="no" ?>
<gpx xmlns="http://www.topografix.com/GPX/1/1" xmlns:xsi="http://www.w3.org/2001/XMLSchema-instance" xsi:schemaLocation="http://www.topografix.com/GPX/1/1 http://www.topografix.com/GPX/1/1/gpx.xsd" version="1.1" creator="VisuGPX - https://www.visugpx.com">
  <metadata>
    <name>Mérindol VTTAE</name>
  </metadata>
  <trk>
    <name><![CDATA[Mérindol VTTAE_1]]></name>
    <trkseg>
      <trkpt lat="43.75504" lon="5.20535">
        <ele>161.2</ele>
        <time>2023-02-05T12:17:20Z</time>
      </trkpt>
      <trkpt lat="43.75504" lon="5.20533">
        <ele>161.2</ele>
        <time>2023-02-05T12:17:22Z</time>
      </trkpt>
      <trkpt lat="43.75506" lon="5.20528">
        <ele>161.2</ele>
        <time>2023-02-05T12:17:24Z</time>
      </trkpt>
      <trkpt lat="43.75511" lon="5.205">
        <ele>161.2</ele>
        <time>2023-02-05T12:17:30Z</time>
      </trkpt>
      <trkpt lat="43.75516" lon="5.20464">
        <ele>161.2</ele>
        <time>2023-02-05T12:17:37Z</time>
      </trkpt>
      <trkpt lat="43.75519" lon="5.20431">
        <ele>161.2</ele>
        <time>2023-02-05T12:17:43Z</time>
      </trkpt>
      <trkpt lat="43.7552" lon="5.20425">
        <ele>161.2</ele>
        <time>2023-02-05T12:17:44Z</time>
      </trkpt>
      <trkpt lat="43.7552" lon="5.20413">
        <ele>161.2</ele>
        <time>2023-02-05T12:17:46Z</time>
      </trkpt>
      <trkpt lat="43.75519" lon="5.20401">
        <ele>161.2</ele>
        <time>2023-02-05T12:17:48Z</time>
      </trkpt>
      <trkpt lat="43.75517" lon="5.20377">
        <ele>161.4</ele>
        <time>2023-02-05T12:17:52Z</time>
      </trkpt>
      <trkpt lat="43.75519" lon="5.20372">
        <ele>161.4</ele>
        <time>2023-02-05T12:17:53Z</time>
      </trkpt>
      <trkpt lat="43.75526" lon="5.20371">
        <ele>161.4</ele>
        <time>2023-02-05T12:17:55Z</time>
      </trkpt>
      <trkpt lat="43.75531" lon="5.20375">
        <ele>161.4</ele>
        <time>2023-02-05T12:17:57Z</time>
      </trkpt>
      <trkpt lat="43.75533" lon="5.20377">
        <ele>161.4</ele>
        <time>2023-02-05T12:17:58Z</time>
      </trkpt>
      <trkpt lat="43.75536" lon="5.20378">
        <ele>161.4</ele>
        <time>2023-02-05T12:17:59Z</time>
      </trkpt>
      <trkpt lat="43.75541" lon="5.20369">
        <ele>161.4</ele>
        <time>2023-02-05T12:18:01Z</time>
      </trkpt>
      <trkpt lat="43.75542" lon="5.20362">
        <ele>161.4</ele>
        <time>2023-02-05T12:18:02Z</time>
      </trkpt>
      <trkpt lat="43.75547" lon="5.20344">
        <ele>161</ele>
        <time>2023-02-05T12:18:05Z</time>
      </trkpt>
      <trkpt lat="43.75549" lon="5.20338">
        <ele>161.2</ele>
        <time>2023-02-05T12:18:06Z</time>
      </trkpt>
      <trkpt lat="43.75557" lon="5.20312">
        <ele>161</ele>
        <time>2023-02-05T12:18:11Z</time>
      </trkpt>
      <trkpt lat="43.75561" lon="5.20313">
        <ele>161</ele>
        <time>2023-02-05T12:18:13Z</time>
      </trkpt>
      <trkpt lat="43.75564" lon="5.20314">
        <ele>161</ele>
        <time>2023-02-05T12:18:14Z</time>
      </trkpt>
      <trkpt lat="43.7558" lon="5.20321">
        <ele>161</ele>
        <time>2023-02-05T12:18:20Z</time>
      </trkpt>
      <trkpt lat="43.75585" lon="5.20327">
        <ele>161.4</ele>
        <time>2023-02-05T12:18:22Z</time>
      </trkpt>
      <trkpt lat="43.75585" lon="5.20332">
        <ele>161.2</ele>
        <time>2023-02-05T12:18:23Z</time>
      </trkpt>
      <trkpt lat="43.75581" lon="5.20347">
        <ele>161.4</ele>
        <time>2023-02-05T12:18:26Z</time>
      </trkpt>
      <trkpt lat="43.75578" lon="5.20358">
        <ele>161.4</ele>
        <time>2023-02-05T12:18:28Z</time>
      </trkpt>
      <trkpt lat="43.75574" lon="5.204">
        <ele>161.6</ele>
        <time>2023-02-05T12:18:35Z</time>
      </trkpt>
      <trkpt lat="43.75579" lon="5.20409">
        <ele>161.6</ele>
        <time>2023-02-05T12:18:37Z</time>
      </trkpt>
      <trkpt lat="43.75583" lon="5.20412">
        <ele>161.8</ele>
        <time>2023-02-05T12:18:38Z</time>
      </trkpt>
      <trkpt lat="43.75587" lon="5.20414">
        <ele>161.8</ele>
        <time>2023-02-05T12:18:39Z</time>
      </trkpt>
      <trkpt lat="43.75608" lon="5.20425">
        <ele>162</ele>
        <time>2023-02-05T12:18:44Z</time>
      </trkpt>
      <trkpt lat="43.75638" lon="5.20442">
        <ele>162.8</ele>
        <time>2023-02-05T12:18:52Z</time>
      </trkpt>
      <trkpt lat="43.75668" lon="5.20458">
        <ele>164</ele>
        <time>2023-02-05T12:19:00Z</time>
      </trkpt>
      <trkpt lat="43.75695" lon="5.20469">
        <ele>165</ele>
        <time>2023-02-05T12:19:07Z</time>
      </trkpt>
      <trkpt lat="43.75719" lon="5.20484">
        <ele>166.4</ele>
        <time>2023-02-05T12:19:14Z</time>
      </trkpt>
      <trkpt lat="43.75744" lon="5.20497">
        <ele>167.6</ele>
        <time>2023-02-05T12:19:21Z</time>
      </trkpt>
      <trkpt lat="43.75767" lon="5.20507">
        <ele>169</ele>
        <time>2023-02-05T12:19:28Z</time>
      </trkpt>
      <trkpt lat="43.75784" lon="5.20517">
        <ele>170.2</ele>
        <time>2023-02-05T12:19:34Z</time>
      </trkpt>
      <trkpt lat="43.7581" lon="5.20531">
        <ele>171.8</ele>
        <time>2023-02-05T12:19:42Z</time>
      </trkpt>
      <trkpt lat="43.7583" lon="5.20547">
        <ele>173.2</ele>
        <time>2023-02-05T12:19:49Z</time>
      </trkpt>
      <trkpt lat="43.75853" lon="5.20566">
        <ele>175</ele>
        <time>2023-02-05T12:19:57Z</time>
      </trkpt>
      <trkpt lat="43.75875" lon="5.20585">
        <ele>176.8</ele>
        <time>2023-02-05T12:20:05Z</time>
      </trkpt>
      <trkpt lat="43.75895" lon="5.20602">
        <ele>178.4</ele>
        <time>2023-02-05T12:20:12Z</time>
      </trkpt>
      <trkpt lat="43.75911" lon="5.20615">
        <ele>179.6</ele>
        <time>2023-02-05T12:20:18Z</time>
      </trkpt>
      <trkpt lat="43.75934" lon="5.20623">
        <ele>181.4</ele>
        <time>2023-02-05T12:20:25Z</time>
      </trkpt>
      <trkpt lat="43.75956" lon="5.20627">
        <ele>183.2</ele>
        <time>2023-02-05T12:20:32Z</time>
      </trkpt>
      <trkpt lat="43.75969" lon="5.2063">
        <ele>184.2</ele>
        <time>2023-02-05T12:20:36Z</time>
      </trkpt>
      <trkpt lat="43.75985" lon="5.20628">
        <ele>185.4</ele>
        <time>2023-02-05T12:20:41Z</time>
      </trkpt>
      <trkpt lat="43.76002" lon="5.20623">
        <ele>187</ele>
        <time>2023-02-05T12:20:47Z</time>
      </trkpt>
      <trkpt lat="43.76016" lon="5.20624">
        <ele>187.8</ele>
        <time>2023-02-05T12:20:51Z</time>
      </trkpt>
      <trkpt lat="43.76031" lon="5.20629">
        <ele>189.4</ele>
        <time>2023-02-05T12:20:56Z</time>
      </trkpt>
      <trkpt lat="43.76045" lon="5.20635">
        <ele>190.6</ele>
        <time>2023-02-05T12:21:00Z</time>
      </trkpt>
      <trkpt lat="43.76055" lon="5.20639">
        <ele>191.4</ele>
        <time>2023-02-05T12:21:03Z</time>
      </trkpt>
      <trkpt lat="43.76067" lon="5.2064">
        <ele>192.6</ele>
        <time>2023-02-05T12:21:07Z</time>
      </trkpt>
      <trkpt lat="43.76081" lon="5.20648">
        <ele>194</ele>
        <time>2023-02-05T12:21:12Z</time>
      </trkpt>
      <trkpt lat="43.76091" lon="5.20659">
        <ele>195.4</ele>
        <time>2023-02-05T12:21:16Z</time>
      </trkpt>
      <trkpt lat="43.76091" lon="5.2068">
        <ele>197</ele>
        <time>2023-02-05T12:21:21Z</time>
      </trkpt>
      <trkpt lat="43.76081" lon="5.20702">
        <ele>198.4</ele>
        <time>2023-02-05T12:21:26Z</time>
      </trkpt>
      <trkpt lat="43.76074" lon="5.20705">
        <ele>199</ele>
        <time>2023-02-05T12:21:28Z</time>
      </trkpt>
      <trkpt lat="43.76066" lon="5.20706">
        <ele>199.4</ele>
        <time>2023-02-05T12:21:30Z</time>
      </trkpt>
      <trkpt lat="43.7605" lon="5.20705">
        <ele>200.4</ele>
        <time>2023-02-05T12:21:34Z</time>
      </trkpt>
      <trkpt lat="43.76048" lon="5.20702">
        <ele>200.6</ele>
        <time>2023-02-05T12:21:35Z</time>
      </trkpt>
      <trkpt lat="43.76035" lon="5.20699">
        <ele>201.4</ele>
        <time>2023-02-05T12:21:39Z</time>
      </trkpt>
      <trkpt lat="43.76023" lon="5.20706">
        <ele>202.2</ele>
        <time>2023-02-05T12:21:43Z</time>
      </trkpt>
      <trkpt lat="43.76008" lon="5.20729">
        <ele>203.2</ele>
        <time>2023-02-05T12:21:50Z</time>
      </trkpt>
      <trkpt lat="43.76005" lon="5.20732">
        <ele>203.2</ele>
        <time>2023-02-05T12:21:51Z</time>
      </trkpt>
      <trkpt lat="43.76001" lon="5.20738">
        <ele>203.4</ele>
        <time>2023-02-05T12:21:53Z</time>
      </trkpt>
      <trkpt lat="43.75991" lon="5.20763">
        <ele>204</ele>
        <time>2023-02-05T12:22:00Z</time>
      </trkpt>
      <trkpt lat="43.75985" lon="5.20778">
        <ele>204.4</ele>
        <time>2023-02-05T12:22:04Z</time>
      </trkpt>
      <trkpt lat="43.75981" lon="5.20795">
        <ele>204.6</ele>
        <time>2023-02-05T12:22:08Z</time>
      </trkpt>
      <trkpt lat="43.75978" lon="5.20798">
        <ele>204.8</ele>
        <time>2023-02-05T12:22:09Z</time>
      </trkpt>
      <trkpt lat="43.75972" lon="5.20813">
        <ele>205.4</ele>
        <time>2023-02-05T12:22:13Z</time>
      </trkpt>
      <trkpt lat="43.75969" lon="5.20816">
        <ele>205.4</ele>
        <time>2023-02-05T12:22:14Z</time>
      </trkpt>
      <trkpt lat="43.75953" lon="5.20842">
        <ele>207.4</ele>
        <time>2023-02-05T12:22:22Z</time>
      </trkpt>
      <trkpt lat="43.75941" lon="5.20868">
        <ele>208.8</ele>
        <time>2023-02-05T12:22:28Z</time>
      </trkpt>
      <trkpt lat="43.75932" lon="5.20897">
        <ele>210</ele>
        <time>2023-02-05T12:22:34Z</time>
      </trkpt>
      <trkpt lat="43.75925" lon="5.20922">
        <ele>211.2</ele>
        <time>2023-02-05T12:22:39Z</time>
      </trkpt>
      <trkpt lat="43.75918" lon="5.20952">
        <ele>212.4</ele>
        <time>2023-02-05T12:22:45Z</time>
      </trkpt>
      <trkpt lat="43.75915" lon="5.20989">
        <ele>214.2</ele>
        <time>2023-02-05T12:22:52Z</time>
      </trkpt>
      <trkpt lat="43.75917" lon="5.21025">
        <ele>216</ele>
        <time>2023-02-05T12:22:59Z</time>
      </trkpt>
      <trkpt lat="43.75925" lon="5.21063">
        <ele>218.2</ele>
        <time>2023-02-05T12:23:07Z</time>
      </trkpt>
      <trkpt lat="43.75932" lon="5.21097">
        <ele>220.4</ele>
        <time>2023-02-05T12:23:14Z</time>
      </trkpt>
      <trkpt lat="43.75938" lon="5.2113">
        <ele>222.4</ele>
        <time>2023-02-05T12:23:21Z</time>
      </trkpt>
      <trkpt lat="43.75941" lon="5.2116">
        <ele>224.2</ele>
        <time>2023-02-05T12:23:27Z</time>
      </trkpt>
      <trkpt lat="43.75947" lon="5.21197">
        <ele>226.2</ele>
        <time>2023-02-05T12:23:34Z</time>
      </trkpt>
      <trkpt lat="43.75949" lon="5.21231">
        <ele>227.6</ele>
        <time>2023-02-05T12:23:40Z</time>
      </trkpt>
      <trkpt lat="43.75949" lon="5.21236">
        <ele>227.8</ele>
        <time>2023-02-05T12:23:41Z</time>
      </trkpt>
      <trkpt lat="43.7595" lon="5.21242">
        <ele>228</ele>
        <time>2023-02-05T12:23:42Z</time>
      </trkpt>
      <trkpt lat="43.75953" lon="5.21275">
        <ele>229</ele>
        <time>2023-02-05T12:23:47Z</time>
      </trkpt>
      <trkpt lat="43.75958" lon="5.21315">
        <ele>230.2</ele>
        <time>2023-02-05T12:23:53Z</time>
      </trkpt>
      <trkpt lat="43.75959" lon="5.21326">
        <ele>230.4</ele>
        <time>2023-02-05T12:23:55Z</time>
      </trkpt>
      <trkpt lat="43.75962" lon="5.21352">
        <ele>231.2</ele>
        <time>2023-02-05T12:23:59Z</time>
      </trkpt>
      <trkpt lat="43.75963" lon="5.21367">
        <ele>231.4</ele>
        <time>2023-02-05T12:24:01Z</time>
      </trkpt>
      <trkpt lat="43.75968" lon="5.21387">
        <ele>231.8</ele>
        <time>2023-02-05T12:24:04Z</time>
      </trkpt>
      <trkpt lat="43.75969" lon="5.214">
        <ele>232</ele>
        <time>2023-02-05T12:24:06Z</time>
      </trkpt>
      <trkpt lat="43.75967" lon="5.21419">
        <ele>232.2</ele>
        <time>2023-02-05T12:24:09Z</time>
      </trkpt>
      <trkpt lat="43.75954" lon="5.21451">
        <ele>232.6</ele>
        <time>2023-02-05T12:24:14Z</time>
      </trkpt>
      <trkpt lat="43.75941" lon="5.21497">
        <ele>233.2</ele>
        <time>2023-02-05T12:24:20Z</time>
      </trkpt>
      <trkpt lat="43.7593" lon="5.21547">
        <ele>233.4</ele>
        <time>2023-02-05T12:24:26Z</time>
      </trkpt>
      <trkpt lat="43.75929" lon="5.21555">
        <ele>233.4</ele>
        <time>2023-02-05T12:24:27Z</time>
      </trkpt>
      <trkpt lat="43.75925" lon="5.2159">
        <ele>233.4</ele>
        <time>2023-02-05T12:24:31Z</time>
      </trkpt>
      <trkpt lat="43.75919" lon="5.21632">
        <ele>233.4</ele>
        <time>2023-02-05T12:24:36Z</time>
      </trkpt>
      <trkpt lat="43.75918" lon="5.21641">
        <ele>233.4</ele>
        <time>2023-02-05T12:24:37Z</time>
      </trkpt>
      <trkpt lat="43.75911" lon="5.21685">
        <ele>232.4</ele>
        <time>2023-02-05T12:24:42Z</time>
      </trkpt>
      <trkpt lat="43.75908" lon="5.21713">
        <ele>232.2</ele>
        <time>2023-02-05T12:24:45Z</time>
      </trkpt>
      <trkpt lat="43.75909" lon="5.2173">
        <ele>231.8</ele>
        <time>2023-02-05T12:24:47Z</time>
      </trkpt>
      <trkpt lat="43.75909" lon="5.21747">
        <ele>231.2</ele>
        <time>2023-02-05T12:24:49Z</time>
      </trkpt>
      <trkpt lat="43.75909" lon="5.21763">
        <ele>230.8</ele>
        <time>2023-02-05T12:24:51Z</time>
      </trkpt>
      <trkpt lat="43.7591" lon="5.21798">
        <ele>229.4</ele>
        <time>2023-02-05T12:24:56Z</time>
      </trkpt>
      <trkpt lat="43.75913" lon="5.21812">
        <ele>228.8</ele>
        <time>2023-02-05T12:24:58Z</time>
      </trkpt>
      <trkpt lat="43.75918" lon="5.21827">
        <ele>228</ele>
        <time>2023-02-05T12:25:00Z</time>
      </trkpt>
      <trkpt lat="43.75926" lon="5.21841">
        <ele>227.4</ele>
        <time>2023-02-05T12:25:02Z</time>
      </trkpt>
      <trkpt lat="43.75938" lon="5.21855">
        <ele>226.6</ele>
        <time>2023-02-05T12:25:04Z</time>
      </trkpt>
      <trkpt lat="43.7597" lon="5.2188">
        <ele>224.4</ele>
        <time>2023-02-05T12:25:09Z</time>
      </trkpt>
      <trkpt lat="43.75978" lon="5.21883">
        <ele>224</ele>
        <time>2023-02-05T12:25:10Z</time>
      </trkpt>
      <trkpt lat="43.75993" lon="5.21885">
        <ele>223.2</ele>
        <time>2023-02-05T12:25:12Z</time>
      </trkpt>
      <trkpt lat="43.76032" lon="5.21881">
        <ele>220.8</ele>
        <time>2023-02-05T12:25:17Z</time>
      </trkpt>
      <trkpt lat="43.76042" lon="5.21884">
        <ele>220</ele>
        <time>2023-02-05T12:25:19Z</time>
      </trkpt>
      <trkpt lat="43.76045" lon="5.21888">
        <ele>219.6</ele>
        <time>2023-02-05T12:25:20Z</time>
      </trkpt>
      <trkpt lat="43.76046" lon="5.21894">
        <ele>219</ele>
        <time>2023-02-05T12:25:21Z</time>
      </trkpt>
      <trkpt lat="43.76043" lon="5.21903">
        <ele>218.2</ele>
        <time>2023-02-05T12:25:23Z</time>
      </trkpt>
      <trkpt lat="43.76033" lon="5.21911">
        <ele>216.2</ele>
        <time>2023-02-05T12:25:27Z</time>
      </trkpt>
      <trkpt lat="43.76025" lon="5.21918">
        <ele>214.2</ele>
        <time>2023-02-05T12:25:31Z</time>
      </trkpt>
      <trkpt lat="43.76031" lon="5.21926">
        <ele>212.6</ele>
        <time>2023-02-05T12:25:35Z</time>
      </trkpt>
      <trkpt lat="43.76047" lon="5.21946">
        <ele>210.4</ele>
        <time>2023-02-05T12:25:42Z</time>
      </trkpt>
      <trkpt lat="43.76056" lon="5.21964">
        <ele>209</ele>
        <time>2023-02-05T12:25:47Z</time>
      </trkpt>
      <trkpt lat="43.76068" lon="5.2198">
        <ele>207.6</ele>
        <time>2023-02-05T12:25:52Z</time>
      </trkpt>
      <trkpt lat="43.76078" lon="5.21983">
        <ele>207</ele>
        <time>2023-02-05T12:25:55Z</time>
      </trkpt>
      <trkpt lat="43.76084" lon="5.21984">
        <ele>206.6</ele>
        <time>2023-02-05T12:25:57Z</time>
      </trkpt>
      <trkpt lat="43.76098" lon="5.21986">
        <ele>205.8</ele>
        <time>2023-02-05T12:26:01Z</time>
      </trkpt>
      <trkpt lat="43.76104" lon="5.21986">
        <ele>205.6</ele>
        <time>2023-02-05T12:26:03Z</time>
      </trkpt>
      <trkpt lat="43.76109" lon="5.21989">
        <ele>205.2</ele>
        <time>2023-02-05T12:26:05Z</time>
      </trkpt>
      <trkpt lat="43.76109" lon="5.21996">
        <ele>204.8</ele>
        <time>2023-02-05T12:26:07Z</time>
      </trkpt>
      <trkpt lat="43.76101" lon="5.22002">
        <ele>204.4</ele>
        <time>2023-02-05T12:26:10Z</time>
      </trkpt>
      <trkpt lat="43.76087" lon="5.22009">
        <ele>203.6</ele>
        <time>2023-02-05T12:26:15Z</time>
      </trkpt>
      <trkpt lat="43.76075" lon="5.22015">
        <ele>203.2</ele>
        <time>2023-02-05T12:26:19Z</time>
      </trkpt>
      <trkpt lat="43.7606" lon="5.22014">
        <ele>202.6</ele>
        <time>2023-02-05T12:26:24Z</time>
      </trkpt>
      <trkpt lat="43.76041" lon="5.22011">
        <ele>202.2</ele>
        <time>2023-02-05T12:26:30Z</time>
      </trkpt>
      <trkpt lat="43.76017" lon="5.22018">
        <ele>202.2</ele>
        <time>2023-02-05T12:26:38Z</time>
      </trkpt>
      <trkpt lat="43.76005" lon="5.2203">
        <ele>202.2</ele>
        <time>2023-02-05T12:26:43Z</time>
      </trkpt>
      <trkpt lat="43.75995" lon="5.22053">
        <ele>201.8</ele>
        <time>2023-02-05T12:26:50Z</time>
      </trkpt>
      <trkpt lat="43.75988" lon="5.22075">
        <ele>201.8</ele>
        <time>2023-02-05T12:26:56Z</time>
      </trkpt>
      <trkpt lat="43.75979" lon="5.22087">
        <ele>204.2</ele>
        <time>2023-02-05T12:27:01Z</time>
      </trkpt>
      <trkpt lat="43.75969" lon="5.22112">
        <ele>206.2</ele>
        <time>2023-02-05T12:27:08Z</time>
      </trkpt>
      <trkpt lat="43.75966" lon="5.2213">
        <ele>207.2</ele>
        <time>2023-02-05T12:27:12Z</time>
      </trkpt>
      <trkpt lat="43.75964" lon="5.22149">
        <ele>208</ele>
        <time>2023-02-05T12:27:16Z</time>
      </trkpt>
      <trkpt lat="43.75961" lon="5.2216">
        <ele>208.2</ele>
        <time>2023-02-05T12:27:18Z</time>
      </trkpt>
      <trkpt lat="43.75959" lon="5.22171">
        <ele>208.4</ele>
        <time>2023-02-05T12:27:20Z</time>
      </trkpt>
      <trkpt lat="43.75958" lon="5.22177">
        <ele>208.6</ele>
        <time>2023-02-05T12:27:21Z</time>
      </trkpt>
      <trkpt lat="43.75959" lon="5.2219">
        <ele>208.8</ele>
        <time>2023-02-05T12:27:23Z</time>
      </trkpt>
      <trkpt lat="43.75961" lon="5.2221">
        <ele>209</ele>
        <time>2023-02-05T12:27:26Z</time>
      </trkpt>
      <trkpt lat="43.75968" lon="5.22226">
        <ele>209.2</ele>
        <time>2023-02-05T12:27:29Z</time>
      </trkpt>
      <trkpt lat="43.75976" lon="5.22236">
        <ele>209.4</ele>
        <time>2023-02-05T12:27:31Z</time>
      </trkpt>
      <trkpt lat="43.75985" lon="5.22245">
        <ele>209.6</ele>
        <time>2023-02-05T12:27:33Z</time>
      </trkpt>
      <trkpt lat="43.76" lon="5.22258">
        <ele>209.8</ele>
        <time>2023-02-05T12:27:36Z</time>
      </trkpt>
      <trkpt lat="43.7601" lon="5.22265">
        <ele>209.8</ele>
        <time>2023-02-05T12:27:38Z</time>
      </trkpt>
      <trkpt lat="43.76016" lon="5.22274">
        <ele>210</ele>
        <time>2023-02-05T12:27:40Z</time>
      </trkpt>
      <trkpt lat="43.76016" lon="5.2228">
        <ele>210</ele>
        <time>2023-02-05T12:27:41Z</time>
      </trkpt>
      <trkpt lat="43.76014" lon="5.22285">
        <ele>210</ele>
        <time>2023-02-05T12:27:42Z</time>
      </trkpt>
      <trkpt lat="43.76007" lon="5.22293">
        <ele>210.2</ele>
        <time>2023-02-05T12:27:44Z</time>
      </trkpt>
      <trkpt lat="43.75986" lon="5.22311">
        <ele>210.2</ele>
        <time>2023-02-05T12:27:49Z</time>
      </trkpt>
      <trkpt lat="43.75982" lon="5.22317">
        <ele>210.2</ele>
        <time>2023-02-05T12:27:50Z</time>
      </trkpt>
      <trkpt lat="43.75979" lon="5.22325">
        <ele>210.2</ele>
        <time>2023-02-05T12:27:51Z</time>
      </trkpt>
      <trkpt lat="43.75969" lon="5.22345">
        <ele>210</ele>
        <time>2023-02-05T12:27:54Z</time>
      </trkpt>
      <trkpt lat="43.75966" lon="5.22352">
        <ele>210</ele>
        <time>2023-02-05T12:27:55Z</time>
      </trkpt>
      <trkpt lat="43.75956" lon="5.2238">
        <ele>210.2</ele>
        <time>2023-02-05T12:27:59Z</time>
      </trkpt>
      <trkpt lat="43.75943" lon="5.22428">
        <ele>210.2</ele>
        <time>2023-02-05T12:28:06Z</time>
      </trkpt>
      <trkpt lat="43.75934" lon="5.22475">
        <ele>210.6</ele>
        <time>2023-02-05T12:28:13Z</time>
      </trkpt>
      <trkpt lat="43.75929" lon="5.22495">
        <ele>210.8</ele>
        <time>2023-02-05T12:28:16Z</time>
      </trkpt>
      <trkpt lat="43.75926" lon="5.22516">
        <ele>211</ele>
        <time>2023-02-05T12:28:19Z</time>
      </trkpt>
      <trkpt lat="43.75926" lon="5.22523">
        <ele>211.2</ele>
        <time>2023-02-05T12:28:20Z</time>
      </trkpt>
      <trkpt lat="43.75927" lon="5.22544">
        <ele>211.2</ele>
        <time>2023-02-05T12:28:23Z</time>
      </trkpt>
      <trkpt lat="43.75927" lon="5.22552">
        <ele>211.2</ele>
        <time>2023-02-05T12:28:24Z</time>
      </trkpt>
      <trkpt lat="43.75925" lon="5.2256">
        <ele>211.2</ele>
        <time>2023-02-05T12:28:25Z</time>
      </trkpt>
      <trkpt lat="43.75922" lon="5.22579">
        <ele>211.2</ele>
        <time>2023-02-05T12:28:28Z</time>
      </trkpt>
      <trkpt lat="43.75921" lon="5.2261">
        <ele>211.2</ele>
        <time>2023-02-05T12:28:33Z</time>
      </trkpt>
      <trkpt lat="43.7592" lon="5.22634">
        <ele>211.2</ele>
        <time>2023-02-05T12:28:36Z</time>
      </trkpt>
      <trkpt lat="43.75917" lon="5.2265">
        <ele>211.4</ele>
        <time>2023-02-05T12:28:38Z</time>
      </trkpt>
      <trkpt lat="43.75916" lon="5.22659">
        <ele>211</ele>
        <time>2023-02-05T12:28:39Z</time>
      </trkpt>
      <trkpt lat="43.75918" lon="5.22678">
        <ele>210.6</ele>
        <time>2023-02-05T12:28:41Z</time>
      </trkpt>
      <trkpt lat="43.75925" lon="5.22692">
        <ele>210.8</ele>
        <time>2023-02-05T12:28:43Z</time>
      </trkpt>
      <trkpt lat="43.75929" lon="5.22697">
        <ele>210.8</ele>
        <time>2023-02-05T12:28:44Z</time>
      </trkpt>
      <trkpt lat="43.75941" lon="5.22708">
        <ele>210.8</ele>
        <time>2023-02-05T12:28:47Z</time>
      </trkpt>
      <trkpt lat="43.75945" lon="5.22718">
        <ele>211.4</ele>
        <time>2023-02-05T12:28:49Z</time>
      </trkpt>
      <trkpt lat="43.75946" lon="5.22742">
        <ele>211.6</ele>
        <time>2023-02-05T12:28:54Z</time>
      </trkpt>
      <trkpt lat="43.75947" lon="5.22768">
        <ele>211.8</ele>
        <time>2023-02-05T12:29:00Z</time>
      </trkpt>
      <trkpt lat="43.7595" lon="5.22793">
        <ele>212.6</ele>
        <time>2023-02-05T12:29:06Z</time>
      </trkpt>
      <trkpt lat="43.75958" lon="5.22817">
        <ele>213.6</ele>
        <time>2023-02-05T12:29:12Z</time>
      </trkpt>
      <trkpt lat="43.75967" lon="5.22852">
        <ele>215</ele>
        <time>2023-02-05T12:29:20Z</time>
      </trkpt>
      <trkpt lat="43.75976" lon="5.22877">
        <ele>216</ele>
        <time>2023-02-05T12:29:26Z</time>
      </trkpt>
      <trkpt lat="43.75987" lon="5.22907">
        <ele>217</ele>
        <time>2023-02-05T12:29:33Z</time>
      </trkpt>
      <trkpt lat="43.76" lon="5.22952">
        <ele>218.6</ele>
        <time>2023-02-05T12:29:42Z</time>
      </trkpt>
      <trkpt lat="43.76008" lon="5.2298">
        <ele>219.2</ele>
        <time>2023-02-05T12:29:47Z</time>
      </trkpt>
      <trkpt lat="43.7601" lon="5.22987">
        <ele>219.4</ele>
        <time>2023-02-05T12:29:48Z</time>
      </trkpt>
      <trkpt lat="43.76014" lon="5.22999">
        <ele>219.8</ele>
        <time>2023-02-05T12:29:50Z</time>
      </trkpt>
      <trkpt lat="43.76025" lon="5.23021">
        <ele>220.4</ele>
        <time>2023-02-05T12:29:54Z</time>
      </trkpt>
      <trkpt lat="43.76032" lon="5.23028">
        <ele>220.8</ele>
        <time>2023-02-05T12:29:56Z</time>
      </trkpt>
      <trkpt lat="43.76046" lon="5.23041">
        <ele>221.4</ele>
        <time>2023-02-05T12:30:00Z</time>
      </trkpt>
      <trkpt lat="43.76063" lon="5.23052">
        <ele>222.4</ele>
        <time>2023-02-05T12:30:05Z</time>
      </trkpt>
      <trkpt lat="43.76077" lon="5.23044">
        <ele>223</ele>
        <time>2023-02-05T12:30:09Z</time>
      </trkpt>
      <trkpt lat="43.76088" lon="5.23018">
        <ele>224.2</ele>
        <time>2023-02-05T12:30:15Z</time>
      </trkpt>
      <trkpt lat="43.76101" lon="5.2298">
        <ele>225.6</ele>
        <time>2023-02-05T12:30:23Z</time>
      </trkpt>
      <trkpt lat="43.76109" lon="5.22957">
        <ele>226.6</ele>
        <time>2023-02-05T12:30:28Z</time>
      </trkpt>
      <trkpt lat="43.76119" lon="5.22931">
        <ele>228.4</ele>
        <time>2023-02-05T12:30:35Z</time>
      </trkpt>
      <trkpt lat="43.76125" lon="5.22913">
        <ele>229.6</ele>
        <time>2023-02-05T12:30:40Z</time>
      </trkpt>
      <trkpt lat="43.76133" lon="5.22888">
        <ele>231.4</ele>
        <time>2023-02-05T12:30:47Z</time>
      </trkpt>
      <trkpt lat="43.7614" lon="5.22859">
        <ele>233.4</ele>
        <time>2023-02-05T12:30:55Z</time>
      </trkpt>
      <trkpt lat="43.76143" lon="5.22838">
        <ele>235.2</ele>
        <time>2023-02-05T12:31:01Z</time>
      </trkpt>
      <trkpt lat="43.76144" lon="5.22816">
        <ele>237</ele>
        <time>2023-02-05T12:31:07Z</time>
      </trkpt>
      <trkpt lat="43.76142" lon="5.22798">
        <ele>238.6</ele>
        <time>2023-02-05T12:31:12Z</time>
      </trkpt>
      <trkpt lat="43.76137" lon="5.22773">
        <ele>240.8</ele>
        <time>2023-02-05T12:31:19Z</time>
      </trkpt>
      <trkpt lat="43.76131" lon="5.22748">
        <ele>243</ele>
        <time>2023-02-05T12:31:26Z</time>
      </trkpt>
      <trkpt lat="43.76121" lon="5.22721">
        <ele>245.6</ele>
        <time>2023-02-05T12:31:34Z</time>
      </trkpt>
      <trkpt lat="43.76111" lon="5.22689">
        <ele>248.6</ele>
        <time>2023-02-05T12:31:43Z</time>
      </trkpt>
      <trkpt lat="43.76107" lon="5.22673">
        <ele>250.2</ele>
        <time>2023-02-05T12:31:48Z</time>
      </trkpt>
      <trkpt lat="43.76103" lon="5.22655">
        <ele>251.8</ele>
        <time>2023-02-05T12:31:53Z</time>
      </trkpt>
      <trkpt lat="43.76099" lon="5.22626">
        <ele>254.4</ele>
        <time>2023-02-05T12:32:01Z</time>
      </trkpt>
      <trkpt lat="43.76094" lon="5.226">
        <ele>256.6</ele>
        <time>2023-02-05T12:32:08Z</time>
      </trkpt>
      <trkpt lat="43.76095" lon="5.22578">
        <ele>258.6</ele>
        <time>2023-02-05T12:32:14Z</time>
      </trkpt>
      <trkpt lat="43.761" lon="5.22552">
        <ele>261.2</ele>
        <time>2023-02-05T12:32:21Z</time>
      </trkpt>
      <trkpt lat="43.76106" lon="5.22534">
        <ele>263.4</ele>
        <time>2023-02-05T12:32:27Z</time>
      </trkpt>
      <trkpt lat="43.76114" lon="5.22517">
        <ele>266</ele>
        <time>2023-02-05T12:32:34Z</time>
      </trkpt>
      <trkpt lat="43.76124" lon="5.225">
        <ele>269</ele>
        <time>2023-02-05T12:32:42Z</time>
      </trkpt>
      <trkpt lat="43.76139" lon="5.22481">
        <ele>272.6</ele>
        <time>2023-02-05T12:32:51Z</time>
      </trkpt>
      <trkpt lat="43.76155" lon="5.22468">
        <ele>275.2</ele>
        <time>2023-02-05T12:32:58Z</time>
      </trkpt>
      <trkpt lat="43.76168" lon="5.22444">
        <ele>277.6</ele>
        <time>2023-02-05T12:33:05Z</time>
      </trkpt>
      <trkpt lat="43.76182" lon="5.22418">
        <ele>279.4</ele>
        <time>2023-02-05T12:33:11Z</time>
      </trkpt>
      <trkpt lat="43.76201" lon="5.22379">
        <ele>281</ele>
        <time>2023-02-05T12:33:17Z</time>
      </trkpt>
      <trkpt lat="43.76206" lon="5.22367">
        <ele>281.4</ele>
        <time>2023-02-05T12:33:19Z</time>
      </trkpt>
      <trkpt lat="43.76215" lon="5.22349">
        <ele>282.2</ele>
        <time>2023-02-05T12:33:22Z</time>
      </trkpt>
      <trkpt lat="43.76233" lon="5.22324">
        <ele>284</ele>
        <time>2023-02-05T12:33:28Z</time>
      </trkpt>
      <trkpt lat="43.76258" lon="5.22295">
        <ele>286.8</ele>
        <time>2023-02-05T12:33:37Z</time>
      </trkpt>
      <trkpt lat="43.76277" lon="5.22272">
        <ele>289</ele>
        <time>2023-02-05T12:33:44Z</time>
      </trkpt>
      <trkpt lat="43.76293" lon="5.22252">
        <ele>291</ele>
        <time>2023-02-05T12:33:50Z</time>
      </trkpt>
      <trkpt lat="43.76307" lon="5.22235">
        <ele>292.4</ele>
        <time>2023-02-05T12:33:55Z</time>
      </trkpt>
      <trkpt lat="43.76329" lon="5.22198">
        <ele>294.8</ele>
        <time>2023-02-05T12:34:04Z</time>
      </trkpt>
      <trkpt lat="43.7634" lon="5.22179">
        <ele>295.6</ele>
        <time>2023-02-05T12:34:08Z</time>
      </trkpt>
      <trkpt lat="43.76343" lon="5.22173">
        <ele>295.8</ele>
        <time>2023-02-05T12:34:09Z</time>
      </trkpt>
      <trkpt lat="43.76363" lon="5.22137">
        <ele>296.4</ele>
        <time>2023-02-05T12:34:14Z</time>
      </trkpt>
      <trkpt lat="43.76382" lon="5.22097">
        <ele>296.4</ele>
        <time>2023-02-05T12:34:18Z</time>
      </trkpt>
      <trkpt lat="43.7641" lon="5.22047">
        <ele>296.2</ele>
        <time>2023-02-05T12:34:23Z</time>
      </trkpt>
      <trkpt lat="43.76428" lon="5.22014">
        <ele>296.4</ele>
        <time>2023-02-05T12:34:27Z</time>
      </trkpt>
      <trkpt lat="43.76432" lon="5.22006">
        <ele>296.4</ele>
        <time>2023-02-05T12:34:28Z</time>
      </trkpt>
      <trkpt lat="43.76452" lon="5.21967">
        <ele>296.8</ele>
        <time>2023-02-05T12:34:34Z</time>
      </trkpt>
      <trkpt lat="43.76478" lon="5.21915">
        <ele>297.4</ele>
        <time>2023-02-05T12:34:42Z</time>
      </trkpt>
      <trkpt lat="43.76504" lon="5.21867">
        <ele>298</ele>
        <time>2023-02-05T12:34:50Z</time>
      </trkpt>
      <trkpt lat="43.7651" lon="5.21854">
        <ele>298.2</ele>
        <time>2023-02-05T12:34:52Z</time>
      </trkpt>
      <trkpt lat="43.76512" lon="5.21848">
        <ele>298.2</ele>
        <time>2023-02-05T12:34:53Z</time>
      </trkpt>
      <trkpt lat="43.76525" lon="5.21826">
        <ele>298.8</ele>
        <time>2023-02-05T12:34:57Z</time>
      </trkpt>
      <trkpt lat="43.76531" lon="5.21808">
        <ele>299.2</ele>
        <time>2023-02-05T12:35:00Z</time>
      </trkpt>
      <trkpt lat="43.76537" lon="5.21798">
        <ele>299.4</ele>
        <time>2023-02-05T12:35:02Z</time>
      </trkpt>
      <trkpt lat="43.76558" lon="5.2176">
        <ele>300.4</ele>
        <time>2023-02-05T12:35:09Z</time>
      </trkpt>
      <trkpt lat="43.76573" lon="5.21726">
        <ele>301.6</ele>
        <time>2023-02-05T12:35:15Z</time>
      </trkpt>
      <trkpt lat="43.76583" lon="5.21697">
        <ele>302.4</ele>
        <time>2023-02-05T12:35:20Z</time>
      </trkpt>
      <trkpt lat="43.76587" lon="5.21686">
        <ele>302.8</ele>
        <time>2023-02-05T12:35:22Z</time>
      </trkpt>
      <trkpt lat="43.76589" lon="5.2168">
        <ele>303</ele>
        <time>2023-02-05T12:35:23Z</time>
      </trkpt>
      <trkpt lat="43.76593" lon="5.21655">
        <ele>303.8</ele>
        <time>2023-02-05T12:35:27Z</time>
      </trkpt>
      <trkpt lat="43.76594" lon="5.21609">
        <ele>304.8</ele>
        <time>2023-02-05T12:35:34Z</time>
      </trkpt>
      <trkpt lat="43.76597" lon="5.21589">
        <ele>305.4</ele>
        <time>2023-02-05T12:35:37Z</time>
      </trkpt>
      <trkpt lat="43.76596" lon="5.21575">
        <ele>305.6</ele>
        <time>2023-02-05T12:35:39Z</time>
      </trkpt>
      <trkpt lat="43.76595" lon="5.21548">
        <ele>306.4</ele>
        <time>2023-02-05T12:35:43Z</time>
      </trkpt>
      <trkpt lat="43.76596" lon="5.21535">
        <ele>306.6</ele>
        <time>2023-02-05T12:35:45Z</time>
      </trkpt>
      <trkpt lat="43.76598" lon="5.21521">
        <ele>307</ele>
        <time>2023-02-05T12:35:47Z</time>
      </trkpt>
      <trkpt lat="43.76598" lon="5.21494">
        <ele>307.6</ele>
        <time>2023-02-05T12:35:51Z</time>
      </trkpt>
      <trkpt lat="43.76601" lon="5.21439">
        <ele>308.8</ele>
        <time>2023-02-05T12:35:59Z</time>
      </trkpt>
      <trkpt lat="43.76606" lon="5.21396">
        <ele>309.8</ele>
        <time>2023-02-05T12:36:05Z</time>
      </trkpt>
      <trkpt lat="43.76607" lon="5.21389">
        <ele>310</ele>
        <time>2023-02-05T12:36:06Z</time>
      </trkpt>
      <trkpt lat="43.76607" lon="5.21383">
        <ele>310</ele>
        <time>2023-02-05T12:36:07Z</time>
      </trkpt>
      <trkpt lat="43.76611" lon="5.21348">
        <ele>310.8</ele>
        <time>2023-02-05T12:36:12Z</time>
      </trkpt>
      <trkpt lat="43.76614" lon="5.21329">
        <ele>311.4</ele>
        <time>2023-02-05T12:36:15Z</time>
      </trkpt>
      <trkpt lat="43.76619" lon="5.21318">
        <ele>311.8</ele>
        <time>2023-02-05T12:36:17Z</time>
      </trkpt>
      <trkpt lat="43.76626" lon="5.21311">
        <ele>312.2</ele>
        <time>2023-02-05T12:36:19Z</time>
      </trkpt>
      <trkpt lat="43.76634" lon="5.21306">
        <ele>312.6</ele>
        <time>2023-02-05T12:36:21Z</time>
      </trkpt>
      <trkpt lat="43.76638" lon="5.21306">
        <ele>312.8</ele>
        <time>2023-02-05T12:36:22Z</time>
      </trkpt>
      <trkpt lat="43.7665" lon="5.21302">
        <ele>313.4</ele>
        <time>2023-02-05T12:36:25Z</time>
      </trkpt>
      <trkpt lat="43.76656" lon="5.21297">
        <ele>313.6</ele>
        <time>2023-02-05T12:36:27Z</time>
      </trkpt>
      <trkpt lat="43.76662" lon="5.21288">
        <ele>314</ele>
        <time>2023-02-05T12:36:29Z</time>
      </trkpt>
      <trkpt lat="43.7667" lon="5.21282">
        <ele>314.4</ele>
        <time>2023-02-05T12:36:31Z</time>
      </trkpt>
      <trkpt lat="43.76697" lon="5.21272">
        <ele>315.4</ele>
        <time>2023-02-05T12:36:37Z</time>
      </trkpt>
      <trkpt lat="43.76721" lon="5.21268">
        <ele>316.4</ele>
        <time>2023-02-05T12:36:43Z</time>
      </trkpt>
      <trkpt lat="43.7675" lon="5.21265">
        <ele>317.2</ele>
        <time>2023-02-05T12:36:49Z</time>
      </trkpt>
      <trkpt lat="43.76773" lon="5.21262">
        <ele>317.4</ele>
        <time>2023-02-05T12:36:53Z</time>
      </trkpt>
      <trkpt lat="43.76801" lon="5.21246">
        <ele>317.8</ele>
        <time>2023-02-05T12:36:58Z</time>
      </trkpt>
      <trkpt lat="43.76825" lon="5.21226">
        <ele>317.6</ele>
        <time>2023-02-05T12:37:02Z</time>
      </trkpt>
      <trkpt lat="43.76846" lon="5.21206">
        <ele>317.4</ele>
        <time>2023-02-05T12:37:06Z</time>
      </trkpt>
      <trkpt lat="43.76854" lon="5.21199">
        <ele>318.4</ele>
        <time>2023-02-05T12:37:08Z</time>
      </trkpt>
      <trkpt lat="43.76861" lon="5.21191">
        <ele>317.2</ele>
        <time>2023-02-05T12:37:10Z</time>
      </trkpt>
      <trkpt lat="43.76869" lon="5.21184">
        <ele>316.6</ele>
        <time>2023-02-05T12:37:12Z</time>
      </trkpt>
      <trkpt lat="43.76875" lon="5.21184">
        <ele>316.4</ele>
        <time>2023-02-05T12:37:14Z</time>
      </trkpt>
      <trkpt lat="43.76886" lon="5.21188">
        <ele>315.8</ele>
        <time>2023-02-05T12:37:18Z</time>
      </trkpt>
      <trkpt lat="43.76892" lon="5.21202">
        <ele>315.2</ele>
        <time>2023-02-05T12:37:22Z</time>
      </trkpt>
      <trkpt lat="43.76902" lon="5.21216">
        <ele>315</ele>
        <time>2023-02-05T12:37:27Z</time>
      </trkpt>
      <trkpt lat="43.76917" lon="5.21233">
        <ele>314.6</ele>
        <time>2023-02-05T12:37:32Z</time>
      </trkpt>
      <trkpt lat="43.76916" lon="5.21246">
        <ele>314.4</ele>
        <time>2023-02-05T12:37:35Z</time>
      </trkpt>
      <trkpt lat="43.76914" lon="5.21251">
        <ele>314.2</ele>
        <time>2023-02-05T12:37:36Z</time>
      </trkpt>
      <trkpt lat="43.76912" lon="5.21264">
        <ele>314</ele>
        <time>2023-02-05T12:37:38Z</time>
      </trkpt>
      <trkpt lat="43.76911" lon="5.21271">
        <ele>314</ele>
        <time>2023-02-05T12:37:39Z</time>
      </trkpt>
      <trkpt lat="43.76904" lon="5.21317">
        <ele>312.6</ele>
        <time>2023-02-05T12:37:44Z</time>
      </trkpt>
      <trkpt lat="43.76901" lon="5.21355">
        <ele>311.2</ele>
        <time>2023-02-05T12:37:47Z</time>
      </trkpt>
      <trkpt lat="43.76901" lon="5.21368">
        <ele>310.8</ele>
        <time>2023-02-05T12:37:48Z</time>
      </trkpt>
      <trkpt lat="43.76899" lon="5.2138">
        <ele>310.4</ele>
        <time>2023-02-05T12:37:49Z</time>
      </trkpt>
      <trkpt lat="43.76892" lon="5.21399">
        <ele>309.8</ele>
        <time>2023-02-05T12:37:51Z</time>
      </trkpt>
      <trkpt lat="43.76888" lon="5.21411">
        <ele>309</ele>
        <time>2023-02-05T12:37:53Z</time>
      </trkpt>
      <trkpt lat="43.76886" lon="5.21421">
        <ele>308.4</ele>
        <time>2023-02-05T12:37:55Z</time>
      </trkpt>
      <trkpt lat="43.76878" lon="5.21439">
        <ele>306.6</ele>
        <time>2023-02-05T12:38:00Z</time>
      </trkpt>
      <trkpt lat="43.76878" lon="5.21443">
        <ele>306.4</ele>
        <time>2023-02-05T12:38:01Z</time>
      </trkpt>
      <trkpt lat="43.76875" lon="5.21451">
        <ele>305.6</ele>
        <time>2023-02-05T12:38:03Z</time>
      </trkpt>
      <trkpt lat="43.76869" lon="5.21469">
        <ele>304</ele>
        <time>2023-02-05T12:38:07Z</time>
      </trkpt>
      <trkpt lat="43.76862" lon="5.21491">
        <ele>302.4</ele>
        <time>2023-02-05T12:38:11Z</time>
      </trkpt>
      <trkpt lat="43.7686" lon="5.21495">
        <ele>301.8</ele>
        <time>2023-02-05T12:38:12Z</time>
      </trkpt>
      <trkpt lat="43.76854" lon="5.21504">
        <ele>301</ele>
        <time>2023-02-05T12:38:14Z</time>
      </trkpt>
      <trkpt lat="43.76846" lon="5.21515">
        <ele>299.4</ele>
        <time>2023-02-05T12:38:17Z</time>
      </trkpt>
      <trkpt lat="43.76847" lon="5.21524">
        <ele>298.2</ele>
        <time>2023-02-05T12:38:19Z</time>
      </trkpt>
      <trkpt lat="43.76848" lon="5.2153">
        <ele>297.6</ele>
        <time>2023-02-05T12:38:20Z</time>
      </trkpt>
      <trkpt lat="43.76853" lon="5.21549">
        <ele>295.6</ele>
        <time>2023-02-05T12:38:24Z</time>
      </trkpt>
      <trkpt lat="43.76856" lon="5.21556">
        <ele>294.6</ele>
        <time>2023-02-05T12:38:26Z</time>
      </trkpt>
      <trkpt lat="43.76856" lon="5.21559">
        <ele>294</ele>
        <time>2023-02-05T12:38:27Z</time>
      </trkpt>
      <trkpt lat="43.76856" lon="5.21561">
        <ele>293.6</ele>
        <time>2023-02-05T12:38:28Z</time>
      </trkpt>
      <trkpt lat="43.76857" lon="5.21571">
        <ele>292.6</ele>
        <time>2023-02-05T12:38:30Z</time>
      </trkpt>
      <trkpt lat="43.76857" lon="5.21583">
        <ele>291.4</ele>
        <time>2023-02-05T12:38:32Z</time>
      </trkpt>
      <trkpt lat="43.76856" lon="5.21606">
        <ele>289.2</ele>
        <time>2023-02-05T12:38:36Z</time>
      </trkpt>
      <trkpt lat="43.76854" lon="5.21622">
        <ele>287</ele>
        <time>2023-02-05T12:38:40Z</time>
      </trkpt>
      <trkpt lat="43.76852" lon="5.2165">
        <ele>284.4</ele>
        <time>2023-02-05T12:38:45Z</time>
      </trkpt>
      <trkpt lat="43.76851" lon="5.21661">
        <ele>283.6</ele>
        <time>2023-02-05T12:38:47Z</time>
      </trkpt>
      <trkpt lat="43.76849" lon="5.21675">
        <ele>282.4</ele>
        <time>2023-02-05T12:38:49Z</time>
      </trkpt>
      <trkpt lat="43.76848" lon="5.21682">
        <ele>282</ele>
        <time>2023-02-05T12:38:50Z</time>
      </trkpt>
      <trkpt lat="43.76846" lon="5.21699">
        <ele>280.8</ele>
        <time>2023-02-05T12:38:52Z</time>
      </trkpt>
      <trkpt lat="43.76843" lon="5.21707">
        <ele>280.2</ele>
        <time>2023-02-05T12:38:53Z</time>
      </trkpt>
      <trkpt lat="43.7684" lon="5.21715">
        <ele>279.6</ele>
        <time>2023-02-05T12:38:54Z</time>
      </trkpt>
      <trkpt lat="43.76833" lon="5.21731">
        <ele>278.6</ele>
        <time>2023-02-05T12:38:56Z</time>
      </trkpt>
      <trkpt lat="43.7683" lon="5.21736">
        <ele>278.2</ele>
        <time>2023-02-05T12:38:57Z</time>
      </trkpt>
      <trkpt lat="43.76824" lon="5.21746">
        <ele>277.4</ele>
        <time>2023-02-05T12:38:59Z</time>
      </trkpt>
      <trkpt lat="43.76822" lon="5.21753">
        <ele>276.8</ele>
        <time>2023-02-05T12:39:00Z</time>
      </trkpt>
      <trkpt lat="43.7682" lon="5.2176">
        <ele>276.4</ele>
        <time>2023-02-05T12:39:01Z</time>
      </trkpt>
      <trkpt lat="43.76822" lon="5.21778">
        <ele>275.4</ele>
        <time>2023-02-05T12:39:03Z</time>
      </trkpt>
      <trkpt lat="43.76831" lon="5.21793">
        <ele>274.6</ele>
        <time>2023-02-05T12:39:05Z</time>
      </trkpt>
      <trkpt lat="43.76838" lon="5.21807">
        <ele>273.6</ele>
        <time>2023-02-05T12:39:07Z</time>
      </trkpt>
      <trkpt lat="43.76841" lon="5.21817">
        <ele>273</ele>
        <time>2023-02-05T12:39:08Z</time>
      </trkpt>
      <trkpt lat="43.76842" lon="5.21826">
        <ele>272.6</ele>
        <time>2023-02-05T12:39:09Z</time>
      </trkpt>
      <trkpt lat="43.76839" lon="5.21843">
        <ele>271.8</ele>
        <time>2023-02-05T12:39:11Z</time>
      </trkpt>
      <trkpt lat="43.76838" lon="5.21852">
        <ele>271.2</ele>
        <time>2023-02-05T12:39:12Z</time>
      </trkpt>
      <trkpt lat="43.76834" lon="5.2187">
        <ele>270.4</ele>
        <time>2023-02-05T12:39:14Z</time>
      </trkpt>
      <trkpt lat="43.76832" lon="5.21878">
        <ele>269.8</ele>
        <time>2023-02-05T12:39:15Z</time>
      </trkpt>
      <trkpt lat="43.76825" lon="5.21892">
        <ele>268.8</ele>
        <time>2023-02-05T12:39:17Z</time>
      </trkpt>
      <trkpt lat="43.76817" lon="5.21904">
        <ele>267.8</ele>
        <time>2023-02-05T12:39:19Z</time>
      </trkpt>
      <trkpt lat="43.76817" lon="5.21913">
        <ele>267.4</ele>
        <time>2023-02-05T12:39:20Z</time>
      </trkpt>
      <trkpt lat="43.76819" lon="5.21922">
        <ele>266.8</ele>
        <time>2023-02-05T12:39:21Z</time>
      </trkpt>
      <trkpt lat="43.76825" lon="5.21939">
        <ele>265.8</ele>
        <time>2023-02-05T12:39:23Z</time>
      </trkpt>
      <trkpt lat="43.76829" lon="5.21948">
        <ele>265.4</ele>
        <time>2023-02-05T12:39:24Z</time>
      </trkpt>
      <trkpt lat="43.76833" lon="5.21957">
        <ele>264.8</ele>
        <time>2023-02-05T12:39:25Z</time>
      </trkpt>
      <trkpt lat="43.76836" lon="5.21975">
        <ele>264</ele>
        <time>2023-02-05T12:39:27Z</time>
      </trkpt>
      <trkpt lat="43.76831" lon="5.22004">
        <ele>262.8</ele>
        <time>2023-02-05T12:39:30Z</time>
      </trkpt>
      <trkpt lat="43.76823" lon="5.22022">
        <ele>261.8</ele>
        <time>2023-02-05T12:39:32Z</time>
      </trkpt>
      <trkpt lat="43.76815" lon="5.22038">
        <ele>261</ele>
        <time>2023-02-05T12:39:34Z</time>
      </trkpt>
      <trkpt lat="43.76811" lon="5.22064">
        <ele>259.6</ele>
        <time>2023-02-05T12:39:37Z</time>
      </trkpt>
      <trkpt lat="43.7681" lon="5.22074">
        <ele>259</ele>
        <time>2023-02-05T12:39:38Z</time>
      </trkpt>
      <trkpt lat="43.76809" lon="5.22127">
        <ele>256.8</ele>
        <time>2023-02-05T12:39:43Z</time>
      </trkpt>
      <trkpt lat="43.76809" lon="5.22146">
        <ele>256</ele>
        <time>2023-02-05T12:39:45Z</time>
      </trkpt>
      <trkpt lat="43.76808" lon="5.22163">
        <ele>255.2</ele>
        <time>2023-02-05T12:39:47Z</time>
      </trkpt>
      <trkpt lat="43.76811" lon="5.22189">
        <ele>253.4</ele>
        <time>2023-02-05T12:39:51Z</time>
      </trkpt>
      <trkpt lat="43.76819" lon="5.22212">
        <ele>250.8</ele>
        <time>2023-02-05T12:39:56Z</time>
      </trkpt>
      <trkpt lat="43.76821" lon="5.22213">
        <ele>249.2</ele>
        <time>2023-02-05T12:39:59Z</time>
      </trkpt>
      <trkpt lat="43.76821" lon="5.22213">
        <ele>248.8</ele>
        <time>2023-02-05T12:40:00Z</time>
      </trkpt>
      <trkpt lat="43.76819" lon="5.22215">
        <ele>247.6</ele>
        <time>2023-02-05T12:40:03Z</time>
      </trkpt>
      <trkpt lat="43.76816" lon="5.22218">
        <ele>246.6</ele>
        <time>2023-02-05T12:40:05Z</time>
      </trkpt>
      <trkpt lat="43.76814" lon="5.2222">
        <ele>246.2</ele>
        <time>2023-02-05T12:40:06Z</time>
      </trkpt>
      <trkpt lat="43.76807" lon="5.22233">
        <ele>245</ele>
        <time>2023-02-05T12:40:09Z</time>
      </trkpt>
      <trkpt lat="43.76803" lon="5.22238">
        <ele>244.6</ele>
        <time>2023-02-05T12:40:10Z</time>
      </trkpt>
      <trkpt lat="43.76799" lon="5.22242">
        <ele>244.4</ele>
        <time>2023-02-05T12:40:11Z</time>
      </trkpt>
      <trkpt lat="43.76789" lon="5.22252">
        <ele>243.8</ele>
        <time>2023-02-05T12:40:13Z</time>
      </trkpt>
      <trkpt lat="43.76761" lon="5.22281">
        <ele>241.8</ele>
        <time>2023-02-05T12:40:19Z</time>
      </trkpt>
      <trkpt lat="43.76749" lon="5.22296">
        <ele>240.8</ele>
        <time>2023-02-05T12:40:22Z</time>
      </trkpt>
      <trkpt lat="43.76742" lon="5.22308">
        <ele>240.2</ele>
        <time>2023-02-05T12:40:24Z</time>
      </trkpt>
      <trkpt lat="43.76735" lon="5.22319">
        <ele>239.6</ele>
        <time>2023-02-05T12:40:26Z</time>
      </trkpt>
      <trkpt lat="43.76727" lon="5.22337">
        <ele>238.6</ele>
        <time>2023-02-05T12:40:29Z</time>
      </trkpt>
      <trkpt lat="43.76724" lon="5.22344">
        <ele>238.4</ele>
        <time>2023-02-05T12:40:30Z</time>
      </trkpt>
      <trkpt lat="43.7672" lon="5.22363">
        <ele>237.6</ele>
        <time>2023-02-05T12:40:33Z</time>
      </trkpt>
      <trkpt lat="43.76718" lon="5.22369">
        <ele>237.2</ele>
        <time>2023-02-05T12:40:34Z</time>
      </trkpt>
      <trkpt lat="43.76714" lon="5.22381">
        <ele>236.6</ele>
        <time>2023-02-05T12:40:36Z</time>
      </trkpt>
      <trkpt lat="43.76712" lon="5.22386">
        <ele>236.4</ele>
        <time>2023-02-05T12:40:37Z</time>
      </trkpt>
      <trkpt lat="43.7671" lon="5.22392">
        <ele>236.2</ele>
        <time>2023-02-05T12:40:38Z</time>
      </trkpt>
      <trkpt lat="43.76706" lon="5.22403">
        <ele>235.6</ele>
        <time>2023-02-05T12:40:40Z</time>
      </trkpt>
      <trkpt lat="43.76705" lon="5.22409">
        <ele>235.4</ele>
        <time>2023-02-05T12:40:41Z</time>
      </trkpt>
      <trkpt lat="43.767" lon="5.2242">
        <ele>234.8</ele>
        <time>2023-02-05T12:40:43Z</time>
      </trkpt>
      <trkpt lat="43.76693" lon="5.22436">
        <ele>233.8</ele>
        <time>2023-02-05T12:40:46Z</time>
      </trkpt>
      <trkpt lat="43.7669" lon="5.22441">
        <ele>233.6</ele>
        <time>2023-02-05T12:40:47Z</time>
      </trkpt>
      <trkpt lat="43.7668" lon="5.22457">
        <ele>232.6</ele>
        <time>2023-02-05T12:40:50Z</time>
      </trkpt>
      <trkpt lat="43.76675" lon="5.22469">
        <ele>232.2</ele>
        <time>2023-02-05T12:40:52Z</time>
      </trkpt>
      <trkpt lat="43.76672" lon="5.22483">
        <ele>231.6</ele>
        <time>2023-02-05T12:40:54Z</time>
      </trkpt>
      <trkpt lat="43.7667" lon="5.22498">
        <ele>231</ele>
        <time>2023-02-05T12:40:56Z</time>
      </trkpt>
      <trkpt lat="43.76667" lon="5.22511">
        <ele>230.2</ele>
        <time>2023-02-05T12:40:58Z</time>
      </trkpt>
      <trkpt lat="43.76663" lon="5.22514">
        <ele>230</ele>
        <time>2023-02-05T12:40:59Z</time>
      </trkpt>
      <trkpt lat="43.76648" lon="5.22518">
        <ele>228.6</ele>
        <time>2023-02-05T12:41:03Z</time>
      </trkpt>
      <trkpt lat="43.76636" lon="5.22514">
        <ele>227.6</ele>
        <time>2023-02-05T12:41:07Z</time>
      </trkpt>
      <trkpt lat="43.76632" lon="5.22512">
        <ele>227.4</ele>
        <time>2023-02-05T12:41:08Z</time>
      </trkpt>
      <trkpt lat="43.76625" lon="5.22505">
        <ele>226.8</ele>
        <time>2023-02-05T12:41:10Z</time>
      </trkpt>
      <trkpt lat="43.76621" lon="5.22501">
        <ele>226.6</ele>
        <time>2023-02-05T12:41:11Z</time>
      </trkpt>
      <trkpt lat="43.76615" lon="5.22492">
        <ele>226</ele>
        <time>2023-02-05T12:41:13Z</time>
      </trkpt>
      <trkpt lat="43.76607" lon="5.22485">
        <ele>225.4</ele>
        <time>2023-02-05T12:41:15Z</time>
      </trkpt>
      <trkpt lat="43.76603" lon="5.22481">
        <ele>225.2</ele>
        <time>2023-02-05T12:41:16Z</time>
      </trkpt>
      <trkpt lat="43.76598" lon="5.22478">
        <ele>225</ele>
        <time>2023-02-05T12:41:17Z</time>
      </trkpt>
      <trkpt lat="43.76583" lon="5.22471">
        <ele>224</ele>
        <time>2023-02-05T12:41:21Z</time>
      </trkpt>
      <trkpt lat="43.76576" lon="5.2247">
        <ele>223.4</ele>
        <time>2023-02-05T12:41:23Z</time>
      </trkpt>
      <trkpt lat="43.76564" lon="5.22473">
        <ele>222.6</ele>
        <time>2023-02-05T12:41:25Z</time>
      </trkpt>
      <trkpt lat="43.76557" lon="5.22476">
        <ele>222.2</ele>
        <time>2023-02-05T12:41:26Z</time>
      </trkpt>
      <trkpt lat="43.76543" lon="5.22482">
        <ele>221.4</ele>
        <time>2023-02-05T12:41:28Z</time>
      </trkpt>
      <trkpt lat="43.76537" lon="5.22485">
        <ele>221</ele>
        <time>2023-02-05T12:41:29Z</time>
      </trkpt>
      <trkpt lat="43.76532" lon="5.22489">
        <ele>220.6</ele>
        <time>2023-02-05T12:41:30Z</time>
      </trkpt>
      <trkpt lat="43.76522" lon="5.22497">
        <ele>220.2</ele>
        <time>2023-02-05T12:41:32Z</time>
      </trkpt>
      <trkpt lat="43.76496" lon="5.2253">
        <ele>218.2</ele>
        <time>2023-02-05T12:41:38Z</time>
      </trkpt>
      <trkpt lat="43.76491" lon="5.22556">
        <ele>216.4</ele>
        <time>2023-02-05T12:41:41Z</time>
      </trkpt>
      <trkpt lat="43.76486" lon="5.2257">
        <ele>215.8</ele>
        <time>2023-02-05T12:41:43Z</time>
      </trkpt>
      <trkpt lat="43.76475" lon="5.22596">
        <ele>214.8</ele>
        <time>2023-02-05T12:41:47Z</time>
      </trkpt>
      <trkpt lat="43.76469" lon="5.22609">
        <ele>214.4</ele>
        <time>2023-02-05T12:41:49Z</time>
      </trkpt>
      <trkpt lat="43.76462" lon="5.22629">
        <ele>213.8</ele>
        <time>2023-02-05T12:41:52Z</time>
      </trkpt>
      <trkpt lat="43.76458" lon="5.22642">
        <ele>213.4</ele>
        <time>2023-02-05T12:41:54Z</time>
      </trkpt>
      <trkpt lat="43.76445" lon="5.22683">
        <ele>212.2</ele>
        <time>2023-02-05T12:42:00Z</time>
      </trkpt>
      <trkpt lat="43.76441" lon="5.22688">
        <ele>212</ele>
        <time>2023-02-05T12:42:01Z</time>
      </trkpt>
      <trkpt lat="43.76437" lon="5.22693">
        <ele>211.6</ele>
        <time>2023-02-05T12:42:02Z</time>
      </trkpt>
      <trkpt lat="43.76434" lon="5.22698">
        <ele>211.4</ele>
        <time>2023-02-05T12:42:03Z</time>
      </trkpt>
      <trkpt lat="43.76429" lon="5.22702">
        <ele>211.2</ele>
        <time>2023-02-05T12:42:04Z</time>
      </trkpt>
      <trkpt lat="43.76418" lon="5.22707">
        <ele>210.6</ele>
        <time>2023-02-05T12:42:06Z</time>
      </trkpt>
      <trkpt lat="43.76409" lon="5.22719">
        <ele>210</ele>
        <time>2023-02-05T12:42:08Z</time>
      </trkpt>
      <trkpt lat="43.76405" lon="5.22726">
        <ele>209.8</ele>
        <time>2023-02-05T12:42:09Z</time>
      </trkpt>
      <trkpt lat="43.76401" lon="5.22732">
        <ele>209.4</ele>
        <time>2023-02-05T12:42:10Z</time>
      </trkpt>
      <trkpt lat="43.76393" lon="5.22743">
        <ele>209</ele>
        <time>2023-02-05T12:42:12Z</time>
      </trkpt>
      <trkpt lat="43.76389" lon="5.22749">
        <ele>208.6</ele>
        <time>2023-02-05T12:42:13Z</time>
      </trkpt>
      <trkpt lat="43.76386" lon="5.22756">
        <ele>208.4</ele>
        <time>2023-02-05T12:42:14Z</time>
      </trkpt>
      <trkpt lat="43.76379" lon="5.2277">
        <ele>208</ele>
        <time>2023-02-05T12:42:16Z</time>
      </trkpt>
      <trkpt lat="43.76375" lon="5.22777">
        <ele>207.8</ele>
        <time>2023-02-05T12:42:17Z</time>
      </trkpt>
      <trkpt lat="43.76371" lon="5.22784">
        <ele>207.6</ele>
        <time>2023-02-05T12:42:18Z</time>
      </trkpt>
      <trkpt lat="43.76362" lon="5.22795">
        <ele>207.2</ele>
        <time>2023-02-05T12:42:20Z</time>
      </trkpt>
      <trkpt lat="43.76357" lon="5.22801">
        <ele>207</ele>
        <time>2023-02-05T12:42:21Z</time>
      </trkpt>
      <trkpt lat="43.76353" lon="5.22807">
        <ele>206.8</ele>
        <time>2023-02-05T12:42:22Z</time>
      </trkpt>
      <trkpt lat="43.76342" lon="5.22829">
        <ele>206.2</ele>
        <time>2023-02-05T12:42:25Z</time>
      </trkpt>
      <trkpt lat="43.76336" lon="5.22844">
        <ele>205.8</ele>
        <time>2023-02-05T12:42:27Z</time>
      </trkpt>
      <trkpt lat="43.76332" lon="5.22861">
        <ele>205.2</ele>
        <time>2023-02-05T12:42:29Z</time>
      </trkpt>
      <trkpt lat="43.76318" lon="5.22889">
        <ele>204.2</ele>
        <time>2023-02-05T12:42:33Z</time>
      </trkpt>
      <trkpt lat="43.76313" lon="5.22905">
        <ele>203.8</ele>
        <time>2023-02-05T12:42:35Z</time>
      </trkpt>
      <trkpt lat="43.76305" lon="5.22917">
        <ele>203.2</ele>
        <time>2023-02-05T12:42:37Z</time>
      </trkpt>
      <trkpt lat="43.76301" lon="5.22923">
        <ele>202.8</ele>
        <time>2023-02-05T12:42:38Z</time>
      </trkpt>
      <trkpt lat="43.76294" lon="5.22937">
        <ele>202.2</ele>
        <time>2023-02-05T12:42:40Z</time>
      </trkpt>
      <trkpt lat="43.76283" lon="5.22959">
        <ele>201.4</ele>
        <time>2023-02-05T12:42:43Z</time>
      </trkpt>
      <trkpt lat="43.76275" lon="5.22972">
        <ele>200.6</ele>
        <time>2023-02-05T12:42:45Z</time>
      </trkpt>
      <trkpt lat="43.76248" lon="5.23012">
        <ele>198.8</ele>
        <time>2023-02-05T12:42:51Z</time>
      </trkpt>
      <trkpt lat="43.76239" lon="5.23025">
        <ele>198.4</ele>
        <time>2023-02-05T12:42:53Z</time>
      </trkpt>
      <trkpt lat="43.76233" lon="5.23029">
        <ele>198</ele>
        <time>2023-02-05T12:42:54Z</time>
      </trkpt>
      <trkpt lat="43.76226" lon="5.2303">
        <ele>197.8</ele>
        <time>2023-02-05T12:42:55Z</time>
      </trkpt>
      <trkpt lat="43.76215" lon="5.23029">
        <ele>197</ele>
        <time>2023-02-05T12:42:57Z</time>
      </trkpt>
      <trkpt lat="43.76189" lon="5.23032">
        <ele>195.4</ele>
        <time>2023-02-05T12:43:01Z</time>
      </trkpt>
      <trkpt lat="43.76182" lon="5.23031">
        <ele>195</ele>
        <time>2023-02-05T12:43:02Z</time>
      </trkpt>
      <trkpt lat="43.76176" lon="5.23031">
        <ele>194.8</ele>
        <time>2023-02-05T12:43:03Z</time>
      </trkpt>
      <trkpt lat="43.76165" lon="5.23037">
        <ele>194.4</ele>
        <time>2023-02-05T12:43:05Z</time>
      </trkpt>
      <trkpt lat="43.7616" lon="5.23049">
        <ele>193.8</ele>
        <time>2023-02-05T12:43:07Z</time>
      </trkpt>
      <trkpt lat="43.76162" lon="5.23058">
        <ele>193.4</ele>
        <time>2023-02-05T12:43:08Z</time>
      </trkpt>
      <trkpt lat="43.76171" lon="5.23075">
        <ele>192.4</ele>
        <time>2023-02-05T12:43:10Z</time>
      </trkpt>
      <trkpt lat="43.76175" lon="5.23083">
        <ele>192</ele>
        <time>2023-02-05T12:43:11Z</time>
      </trkpt>
      <trkpt lat="43.76178" lon="5.2309">
        <ele>191.6</ele>
        <time>2023-02-05T12:43:12Z</time>
      </trkpt>
      <trkpt lat="43.76185" lon="5.23104">
        <ele>191</ele>
        <time>2023-02-05T12:43:14Z</time>
      </trkpt>
      <trkpt lat="43.76188" lon="5.23111">
        <ele>190.6</ele>
        <time>2023-02-05T12:43:15Z</time>
      </trkpt>
      <trkpt lat="43.76208" lon="5.23145">
        <ele>188.8</ele>
        <time>2023-02-05T12:43:20Z</time>
      </trkpt>
      <trkpt lat="43.76215" lon="5.23158">
        <ele>188.2</ele>
        <time>2023-02-05T12:43:22Z</time>
      </trkpt>
      <trkpt lat="43.76217" lon="5.23166">
        <ele>187.8</ele>
        <time>2023-02-05T12:43:23Z</time>
      </trkpt>
      <trkpt lat="43.76217" lon="5.23175">
        <ele>187.4</ele>
        <time>2023-02-05T12:43:24Z</time>
      </trkpt>
      <trkpt lat="43.76213" lon="5.2319">
        <ele>186.6</ele>
        <time>2023-02-05T12:43:26Z</time>
      </trkpt>
      <trkpt lat="43.7621" lon="5.23198">
        <ele>186.2</ele>
        <time>2023-02-05T12:43:27Z</time>
      </trkpt>
      <trkpt lat="43.76206" lon="5.23214">
        <ele>185.2</ele>
        <time>2023-02-05T12:43:29Z</time>
      </trkpt>
      <trkpt lat="43.76206" lon="5.23222">
        <ele>184.8</ele>
        <time>2023-02-05T12:43:30Z</time>
      </trkpt>
      <trkpt lat="43.76206" lon="5.23227">
        <ele>184.4</ele>
        <time>2023-02-05T12:43:31Z</time>
      </trkpt>
      <trkpt lat="43.76207" lon="5.23229">
        <ele>184</ele>
        <time>2023-02-05T12:43:32Z</time>
      </trkpt>
      <trkpt lat="43.76211" lon="5.23229">
        <ele>182.2</ele>
        <time>2023-02-05T12:43:36Z</time>
      </trkpt>
      <trkpt lat="43.76215" lon="5.23219">
        <ele>180.4</ele>
        <time>2023-02-05T12:43:41Z</time>
      </trkpt>
      <trkpt lat="43.76216" lon="5.23217">
        <ele>180.2</ele>
        <time>2023-02-05T12:43:42Z</time>
      </trkpt>
      <trkpt lat="43.76216" lon="5.23214">
        <ele>180</ele>
        <time>2023-02-05T12:43:43Z</time>
      </trkpt>
      <trkpt lat="43.7622" lon="5.23208">
        <ele>179.4</ele>
        <time>2023-02-05T12:43:45Z</time>
      </trkpt>
      <trkpt lat="43.76226" lon="5.23203">
        <ele>178.6</ele>
        <time>2023-02-05T12:43:48Z</time>
      </trkpt>
      <trkpt lat="43.76229" lon="5.23203">
        <ele>178.4</ele>
        <time>2023-02-05T12:43:49Z</time>
      </trkpt>
      <trkpt lat="43.76246" lon="5.23206">
        <ele>177.6</ele>
        <time>2023-02-05T12:43:54Z</time>
      </trkpt>
      <trkpt lat="43.76255" lon="5.23206">
        <ele>176.8</ele>
        <time>2023-02-05T12:43:58Z</time>
      </trkpt>
      <trkpt lat="43.76267" lon="5.23204">
        <ele>176.2</ele>
        <time>2023-02-05T12:44:03Z</time>
      </trkpt>
      <trkpt lat="43.76278" lon="5.23196">
        <ele>175.2</ele>
        <time>2023-02-05T12:44:07Z</time>
      </trkpt>
      <trkpt lat="43.76297" lon="5.23177">
        <ele>173.8</ele>
        <time>2023-02-05T12:44:13Z</time>
      </trkpt>
      <trkpt lat="43.76309" lon="5.23159">
        <ele>173.2</ele>
        <time>2023-02-05T12:44:17Z</time>
      </trkpt>
      <trkpt lat="43.76312" lon="5.23154">
        <ele>173</ele>
        <time>2023-02-05T12:44:18Z</time>
      </trkpt>
      <trkpt lat="43.76322" lon="5.2314">
        <ele>172.6</ele>
        <time>2023-02-05T12:44:21Z</time>
      </trkpt>
      <trkpt lat="43.76331" lon="5.23125">
        <ele>172.2</ele>
        <time>2023-02-05T12:44:24Z</time>
      </trkpt>
      <trkpt lat="43.76337" lon="5.23116">
        <ele>172</ele>
        <time>2023-02-05T12:44:26Z</time>
      </trkpt>
      <trkpt lat="43.76342" lon="5.23106">
        <ele>172</ele>
        <time>2023-02-05T12:44:28Z</time>
      </trkpt>
      <trkpt lat="43.76355" lon="5.23095">
        <ele>171.6</ele>
        <time>2023-02-05T12:44:32Z</time>
      </trkpt>
      <trkpt lat="43.76376" lon="5.23084">
        <ele>171</ele>
        <time>2023-02-05T12:44:37Z</time>
      </trkpt>
      <trkpt lat="43.76378" lon="5.2308">
        <ele>171</ele>
        <time>2023-02-05T12:44:38Z</time>
      </trkpt>
      <trkpt lat="43.76388" lon="5.23069">
        <ele>170.4</ele>
        <time>2023-02-05T12:44:41Z</time>
      </trkpt>
      <trkpt lat="43.76399" lon="5.23051">
        <ele>170.2</ele>
        <time>2023-02-05T12:44:45Z</time>
      </trkpt>
      <trkpt lat="43.76415" lon="5.2303">
        <ele>169.8</ele>
        <time>2023-02-05T12:44:50Z</time>
      </trkpt>
      <trkpt lat="43.7643" lon="5.23017">
        <ele>169.8</ele>
        <time>2023-02-05T12:44:54Z</time>
      </trkpt>
      <trkpt lat="43.76448" lon="5.23008">
        <ele>169.6</ele>
        <time>2023-02-05T12:44:59Z</time>
      </trkpt>
      <trkpt lat="43.76467" lon="5.22998">
        <ele>169.2</ele>
        <time>2023-02-05T12:45:04Z</time>
      </trkpt>
      <trkpt lat="43.76488" lon="5.22998">
        <ele>168.8</ele>
        <time>2023-02-05T12:45:09Z</time>
      </trkpt>
      <trkpt lat="43.76506" lon="5.23004">
        <ele>168.6</ele>
        <time>2023-02-05T12:45:13Z</time>
      </trkpt>
      <trkpt lat="43.76509" lon="5.23007">
        <ele>168.4</ele>
        <time>2023-02-05T12:45:14Z</time>
      </trkpt>
      <trkpt lat="43.76519" lon="5.23015">
        <ele>168.2</ele>
        <time>2023-02-05T12:45:17Z</time>
      </trkpt>
      <trkpt lat="43.76526" lon="5.23021">
        <ele>168</ele>
        <time>2023-02-05T12:45:19Z</time>
      </trkpt>
      <trkpt lat="43.76537" lon="5.23027">
        <ele>168</ele>
        <time>2023-02-05T12:45:22Z</time>
      </trkpt>
      <trkpt lat="43.76541" lon="5.2303">
        <ele>168</ele>
        <time>2023-02-05T12:45:23Z</time>
      </trkpt>
      <trkpt lat="43.7655" lon="5.23035">
        <ele>167.8</ele>
        <time>2023-02-05T12:45:26Z</time>
      </trkpt>
      <trkpt lat="43.76559" lon="5.23034">
        <ele>167.6</ele>
        <time>2023-02-05T12:45:30Z</time>
      </trkpt>
      <trkpt lat="43.76567" lon="5.23031">
        <ele>167.6</ele>
        <time>2023-02-05T12:45:33Z</time>
      </trkpt>
      <trkpt lat="43.76569" lon="5.23028">
        <ele>167.6</ele>
        <time>2023-02-05T12:45:34Z</time>
      </trkpt>
      <trkpt lat="43.76583" lon="5.23011">
        <ele>167.2</ele>
        <time>2023-02-05T12:45:40Z</time>
      </trkpt>
      <trkpt lat="43.76588" lon="5.22999">
        <ele>167.2</ele>
        <time>2023-02-05T12:45:44Z</time>
      </trkpt>
      <trkpt lat="43.76589" lon="5.22997">
        <ele>167.2</ele>
        <time>2023-02-05T12:45:45Z</time>
      </trkpt>
      <trkpt lat="43.76591" lon="5.22991">
        <ele>167</ele>
        <time>2023-02-05T12:45:48Z</time>
      </trkpt>
      <trkpt lat="43.76601" lon="5.22983">
        <ele>167</ele>
        <time>2023-02-05T12:45:54Z</time>
      </trkpt>
      <trkpt lat="43.76608" lon="5.22982">
        <ele>167</ele>
        <time>2023-02-05T12:45:57Z</time>
      </trkpt>
      <trkpt lat="43.76615" lon="5.22983">
        <ele>166.8</ele>
        <time>2023-02-05T12:46:00Z</time>
      </trkpt>
      <trkpt lat="43.76621" lon="5.22987">
        <ele>166.8</ele>
        <time>2023-02-05T12:46:03Z</time>
      </trkpt>
      <trkpt lat="43.76622" lon="5.22989">
        <ele>166.8</ele>
        <time>2023-02-05T12:46:04Z</time>
      </trkpt>
      <trkpt lat="43.76625" lon="5.23">
        <ele>166.8</ele>
        <time>2023-02-05T12:46:09Z</time>
      </trkpt>
      <trkpt lat="43.76627" lon="5.23009">
        <ele>167.2</ele>
        <time>2023-02-05T12:46:13Z</time>
      </trkpt>
      <trkpt lat="43.76631" lon="5.23023">
        <ele>167.8</ele>
        <time>2023-02-05T12:46:19Z</time>
      </trkpt>
      <trkpt lat="43.76638" lon="5.23032">
        <ele>168.6</ele>
        <time>2023-02-05T12:46:24Z</time>
      </trkpt>
      <trkpt lat="43.76643" lon="5.23036">
        <ele>169</ele>
        <time>2023-02-05T12:46:27Z</time>
      </trkpt>
      <trkpt lat="43.76645" lon="5.23036">
        <ele>169.2</ele>
        <time>2023-02-05T12:46:28Z</time>
      </trkpt>
      <trkpt lat="43.76651" lon="5.23036">
        <ele>169.2</ele>
        <time>2023-02-05T12:46:32Z</time>
      </trkpt>
      <trkpt lat="43.76661" lon="5.2303">
        <ele>169.2</ele>
        <time>2023-02-05T12:46:37Z</time>
      </trkpt>
      <trkpt lat="43.76674" lon="5.23015">
        <ele>169.2</ele>
        <time>2023-02-05T12:46:43Z</time>
      </trkpt>
      <trkpt lat="43.76675" lon="5.23013">
        <ele>169.2</ele>
        <time>2023-02-05T12:46:44Z</time>
      </trkpt>
      <trkpt lat="43.76684" lon="5.23006">
        <ele>169.6</ele>
        <time>2023-02-05T12:46:48Z</time>
      </trkpt>
      <trkpt lat="43.76686" lon="5.23005">
        <ele>169.6</ele>
        <time>2023-02-05T12:46:49Z</time>
      </trkpt>
      <trkpt lat="43.76695" lon="5.22999">
        <ele>170</ele>
        <time>2023-02-05T12:46:52Z</time>
      </trkpt>
      <trkpt lat="43.76708" lon="5.22998">
        <ele>170.4</ele>
        <time>2023-02-05T12:46:56Z</time>
      </trkpt>
      <trkpt lat="43.76731" lon="5.23003">
        <ele>171.2</ele>
        <time>2023-02-05T12:47:03Z</time>
      </trkpt>
      <trkpt lat="43.76744" lon="5.23006">
        <ele>171.6</ele>
        <time>2023-02-05T12:47:08Z</time>
      </trkpt>
      <trkpt lat="43.76759" lon="5.23006">
        <ele>172.2</ele>
        <time>2023-02-05T12:47:13Z</time>
      </trkpt>
      <trkpt lat="43.76774" lon="5.23004">
        <ele>172.6</ele>
        <time>2023-02-05T12:47:18Z</time>
      </trkpt>
      <trkpt lat="43.76786" lon="5.23008">
        <ele>173</ele>
        <time>2023-02-05T12:47:22Z</time>
      </trkpt>
      <trkpt lat="43.76797" lon="5.23017">
        <ele>173.6</ele>
        <time>2023-02-05T12:47:27Z</time>
      </trkpt>
      <trkpt lat="43.76809" lon="5.23029">
        <ele>174.2</ele>
        <time>2023-02-05T12:47:33Z</time>
      </trkpt>
      <trkpt lat="43.76819" lon="5.23032">
        <ele>174.6</ele>
        <time>2023-02-05T12:47:37Z</time>
      </trkpt>
      <trkpt lat="43.76826" lon="5.23036">
        <ele>175.6</ele>
        <time>2023-02-05T12:47:41Z</time>
      </trkpt>
      <trkpt lat="43.76829" lon="5.23039">
        <ele>176.2</ele>
        <time>2023-02-05T12:47:45Z</time>
      </trkpt>
      <trkpt lat="43.76829" lon="5.23039">
        <ele>177.4</ele>
        <time>2023-02-05T12:47:57Z</time>
      </trkpt>
      <trkpt lat="43.76832" lon="5.23042">
        <ele>177.8</ele>
        <time>2023-02-05T12:48:01Z</time>
      </trkpt>
      <trkpt lat="43.76844" lon="5.23046">
        <ele>178.4</ele>
        <time>2023-02-05T12:48:06Z</time>
      </trkpt>
      <trkpt lat="43.7686" lon="5.23051">
        <ele>179</ele>
        <time>2023-02-05T12:48:12Z</time>
      </trkpt>
      <trkpt lat="43.7687" lon="5.23049">
        <ele>179.6</ele>
        <time>2023-02-05T12:48:16Z</time>
      </trkpt>
      <trkpt lat="43.76873" lon="5.2305">
        <ele>179.8</ele>
        <time>2023-02-05T12:48:17Z</time>
      </trkpt>
      <trkpt lat="43.76883" lon="5.23057">
        <ele>180.6</ele>
        <time>2023-02-05T12:48:22Z</time>
      </trkpt>
      <trkpt lat="43.7688" lon="5.23063">
        <ele>181.2</ele>
        <time>2023-02-05T12:48:26Z</time>
      </trkpt>
      <trkpt lat="43.7687" lon="5.23068">
        <ele>182</ele>
        <time>2023-02-05T12:48:32Z</time>
      </trkpt>
      <trkpt lat="43.76858" lon="5.23074">
        <ele>182.8</ele>
        <time>2023-02-05T12:48:38Z</time>
      </trkpt>
      <trkpt lat="43.76855" lon="5.23077">
        <ele>183.2</ele>
        <time>2023-02-05T12:48:40Z</time>
      </trkpt>
      <trkpt lat="43.76851" lon="5.23077">
        <ele>183.6</ele>
        <time>2023-02-05T12:48:42Z</time>
      </trkpt>
      <trkpt lat="43.76843" lon="5.23081">
        <ele>184.6</ele>
        <time>2023-02-05T12:48:46Z</time>
      </trkpt>
      <trkpt lat="43.76842" lon="5.23085">
        <ele>185.2</ele>
        <time>2023-02-05T12:48:48Z</time>
      </trkpt>
      <trkpt lat="43.76843" lon="5.23089">
        <ele>185.8</ele>
        <time>2023-02-05T12:48:50Z</time>
      </trkpt>
      <trkpt lat="43.76845" lon="5.23091">
        <ele>186.6</ele>
        <time>2023-02-05T12:48:54Z</time>
      </trkpt>
      <trkpt lat="43.76846" lon="5.23092">
        <ele>187.8</ele>
        <time>2023-02-05T12:48:59Z</time>
      </trkpt>
      <trkpt lat="43.76846" lon="5.23094">
        <ele>188</ele>
        <time>2023-02-05T12:49:00Z</time>
      </trkpt>
      <trkpt lat="43.76843" lon="5.23096">
        <ele>188.6</ele>
        <time>2023-02-05T12:49:02Z</time>
      </trkpt>
      <trkpt lat="43.7684" lon="5.23096">
        <ele>189.2</ele>
        <time>2023-02-05T12:49:04Z</time>
      </trkpt>
      <trkpt lat="43.7683" lon="5.23098">
        <ele>190.6</ele>
        <time>2023-02-05T12:49:09Z</time>
      </trkpt>
      <trkpt lat="43.76818" lon="5.23105">
        <ele>193.2</ele>
        <time>2023-02-05T12:49:16Z</time>
      </trkpt>
      <trkpt lat="43.76809" lon="5.23114">
        <ele>195.6</ele>
        <time>2023-02-05T12:49:22Z</time>
      </trkpt>
      <trkpt lat="43.76802" lon="5.2312">
        <ele>196.6</ele>
        <time>2023-02-05T12:49:26Z</time>
      </trkpt>
      <trkpt lat="43.768" lon="5.23121">
        <ele>197</ele>
        <time>2023-02-05T12:49:27Z</time>
      </trkpt>
      <trkpt lat="43.76797" lon="5.23122">
        <ele>197.2</ele>
        <time>2023-02-05T12:49:28Z</time>
      </trkpt>
      <trkpt lat="43.76795" lon="5.23127">
        <ele>197.8</ele>
        <time>2023-02-05T12:49:30Z</time>
      </trkpt>
      <trkpt lat="43.76793" lon="5.23133">
        <ele>198.4</ele>
        <time>2023-02-05T12:49:33Z</time>
      </trkpt>
      <trkpt lat="43.76788" lon="5.23135">
        <ele>199</ele>
        <time>2023-02-05T12:49:35Z</time>
      </trkpt>
      <trkpt lat="43.76777" lon="5.23141">
        <ele>200.4</ele>
        <time>2023-02-05T12:49:41Z</time>
      </trkpt>
      <trkpt lat="43.76769" lon="5.23138">
        <ele>201.4</ele>
        <time>2023-02-05T12:49:46Z</time>
      </trkpt>
      <trkpt lat="43.76759" lon="5.23136">
        <ele>203</ele>
        <time>2023-02-05T12:49:52Z</time>
      </trkpt>
      <trkpt lat="43.76744" lon="5.23135">
        <ele>205.8</ele>
        <time>2023-02-05T12:49:59Z</time>
      </trkpt>
      <trkpt lat="43.7673" lon="5.2314">
        <ele>208.8</ele>
        <time>2023-02-05T12:50:06Z</time>
      </trkpt>
      <trkpt lat="43.7672" lon="5.23149">
        <ele>210.8</ele>
        <time>2023-02-05T12:50:12Z</time>
      </trkpt>
      <trkpt lat="43.76717" lon="5.23151">
        <ele>211.4</ele>
        <time>2023-02-05T12:50:14Z</time>
      </trkpt>
      <trkpt lat="43.76711" lon="5.23153">
        <ele>212.4</ele>
        <time>2023-02-05T12:50:17Z</time>
      </trkpt>
      <trkpt lat="43.76694" lon="5.23164">
        <ele>215</ele>
        <time>2023-02-05T12:50:24Z</time>
      </trkpt>
      <trkpt lat="43.76684" lon="5.23177">
        <ele>216.8</ele>
        <time>2023-02-05T12:50:29Z</time>
      </trkpt>
      <trkpt lat="43.76674" lon="5.23186">
        <ele>218</ele>
        <time>2023-02-05T12:50:33Z</time>
      </trkpt>
      <trkpt lat="43.76668" lon="5.23186">
        <ele>218.8</ele>
        <time>2023-02-05T12:50:35Z</time>
      </trkpt>
      <trkpt lat="43.76664" lon="5.23192">
        <ele>219.4</ele>
        <time>2023-02-05T12:50:37Z</time>
      </trkpt>
      <trkpt lat="43.76663" lon="5.23196">
        <ele>219.8</ele>
        <time>2023-02-05T12:50:38Z</time>
      </trkpt>
      <trkpt lat="43.76662" lon="5.23211">
        <ele>220.6</ele>
        <time>2023-02-05T12:50:41Z</time>
      </trkpt>
      <trkpt lat="43.76659" lon="5.23221">
        <ele>221.2</ele>
        <time>2023-02-05T12:50:43Z</time>
      </trkpt>
      <trkpt lat="43.76652" lon="5.23229">
        <ele>221.6</ele>
        <time>2023-02-05T12:50:45Z</time>
      </trkpt>
      <trkpt lat="43.76645" lon="5.23235">
        <ele>222</ele>
        <time>2023-02-05T12:50:47Z</time>
      </trkpt>
      <trkpt lat="43.7664" lon="5.23245">
        <ele>222.6</ele>
        <time>2023-02-05T12:50:49Z</time>
      </trkpt>
      <trkpt lat="43.76637" lon="5.23251">
        <ele>223</ele>
        <time>2023-02-05T12:50:50Z</time>
      </trkpt>
      <trkpt lat="43.76634" lon="5.23263">
        <ele>223.4</ele>
        <time>2023-02-05T12:50:52Z</time>
      </trkpt>
      <trkpt lat="43.7663" lon="5.23268">
        <ele>223.6</ele>
        <time>2023-02-05T12:50:53Z</time>
      </trkpt>
      <trkpt lat="43.76626" lon="5.23272">
        <ele>223.8</ele>
        <time>2023-02-05T12:50:54Z</time>
      </trkpt>
      <trkpt lat="43.76608" lon="5.23291">
        <ele>224.6</ele>
        <time>2023-02-05T12:50:58Z</time>
      </trkpt>
      <trkpt lat="43.766" lon="5.2331">
        <ele>225.2</ele>
        <time>2023-02-05T12:51:01Z</time>
      </trkpt>
      <trkpt lat="43.76598" lon="5.23318">
        <ele>225.4</ele>
        <time>2023-02-05T12:51:02Z</time>
      </trkpt>
      <trkpt lat="43.76597" lon="5.23326">
        <ele>225.6</ele>
        <time>2023-02-05T12:51:03Z</time>
      </trkpt>
      <trkpt lat="43.76591" lon="5.23339">
        <ele>225.8</ele>
        <time>2023-02-05T12:51:05Z</time>
      </trkpt>
      <trkpt lat="43.76587" lon="5.23344">
        <ele>226</ele>
        <time>2023-02-05T12:51:06Z</time>
      </trkpt>
      <trkpt lat="43.76582" lon="5.2335">
        <ele>226</ele>
        <time>2023-02-05T12:51:07Z</time>
      </trkpt>
      <trkpt lat="43.76576" lon="5.23362">
        <ele>226.2</ele>
        <time>2023-02-05T12:51:09Z</time>
      </trkpt>
      <trkpt lat="43.76571" lon="5.23375">
        <ele>226.6</ele>
        <time>2023-02-05T12:51:11Z</time>
      </trkpt>
      <trkpt lat="43.76565" lon="5.23387">
        <ele>226.8</ele>
        <time>2023-02-05T12:51:13Z</time>
      </trkpt>
      <trkpt lat="43.76557" lon="5.23395">
        <ele>227</ele>
        <time>2023-02-05T12:51:15Z</time>
      </trkpt>
      <trkpt lat="43.76554" lon="5.234">
        <ele>227</ele>
        <time>2023-02-05T12:51:16Z</time>
      </trkpt>
      <trkpt lat="43.76553" lon="5.23406">
        <ele>227.2</ele>
        <time>2023-02-05T12:51:17Z</time>
      </trkpt>
      <trkpt lat="43.76553" lon="5.23419">
        <ele>227.4</ele>
        <time>2023-02-05T12:51:19Z</time>
      </trkpt>
      <trkpt lat="43.76551" lon="5.23432">
        <ele>227.6</ele>
        <time>2023-02-05T12:51:21Z</time>
      </trkpt>
      <trkpt lat="43.76554" lon="5.23439">
        <ele>227.6</ele>
        <time>2023-02-05T12:51:22Z</time>
      </trkpt>
      <trkpt lat="43.76561" lon="5.23452">
        <ele>227.6</ele>
        <time>2023-02-05T12:51:24Z</time>
      </trkpt>
      <trkpt lat="43.76562" lon="5.23458">
        <ele>227.6</ele>
        <time>2023-02-05T12:51:25Z</time>
      </trkpt>
      <trkpt lat="43.7656" lon="5.23464">
        <ele>227.8</ele>
        <time>2023-02-05T12:51:26Z</time>
      </trkpt>
      <trkpt lat="43.76556" lon="5.23475">
        <ele>227.8</ele>
        <time>2023-02-05T12:51:28Z</time>
      </trkpt>
      <trkpt lat="43.76555" lon="5.23481">
        <ele>227.8</ele>
        <time>2023-02-05T12:51:29Z</time>
      </trkpt>
      <trkpt lat="43.76558" lon="5.23489">
        <ele>228</ele>
        <time>2023-02-05T12:51:31Z</time>
      </trkpt>
      <trkpt lat="43.76568" lon="5.23493">
        <ele>228</ele>
        <time>2023-02-05T12:51:34Z</time>
      </trkpt>
      <trkpt lat="43.76577" lon="5.2351">
        <ele>227.8</ele>
        <time>2023-02-05T12:51:37Z</time>
      </trkpt>
      <trkpt lat="43.76579" lon="5.23514">
        <ele>227.8</ele>
        <time>2023-02-05T12:51:38Z</time>
      </trkpt>
      <trkpt lat="43.76581" lon="5.23519">
        <ele>227.6</ele>
        <time>2023-02-05T12:51:39Z</time>
      </trkpt>
      <trkpt lat="43.76581" lon="5.23533">
        <ele>228</ele>
        <time>2023-02-05T12:51:41Z</time>
      </trkpt>
      <trkpt lat="43.76586" lon="5.23544">
        <ele>227.2</ele>
        <time>2023-02-05T12:51:43Z</time>
      </trkpt>
      <trkpt lat="43.76588" lon="5.23549">
        <ele>226.6</ele>
        <time>2023-02-05T12:51:44Z</time>
      </trkpt>
      <trkpt lat="43.76591" lon="5.23564">
        <ele>227</ele>
        <time>2023-02-05T12:51:47Z</time>
      </trkpt>
      <trkpt lat="43.76595" lon="5.23576">
        <ele>226.8</ele>
        <time>2023-02-05T12:51:49Z</time>
      </trkpt>
      <trkpt lat="43.76598" lon="5.23593">
        <ele>226.8</ele>
        <time>2023-02-05T12:51:52Z</time>
      </trkpt>
      <trkpt lat="43.76604" lon="5.23603">
        <ele>226.6</ele>
        <time>2023-02-05T12:51:54Z</time>
      </trkpt>
      <trkpt lat="43.76607" lon="5.23605">
        <ele>226.6</ele>
        <time>2023-02-05T12:51:55Z</time>
      </trkpt>
      <trkpt lat="43.76611" lon="5.23608">
        <ele>226.6</ele>
        <time>2023-02-05T12:51:56Z</time>
      </trkpt>
      <trkpt lat="43.76617" lon="5.23617">
        <ele>226.4</ele>
        <time>2023-02-05T12:51:58Z</time>
      </trkpt>
      <trkpt lat="43.76623" lon="5.23634">
        <ele>226.2</ele>
        <time>2023-02-05T12:52:01Z</time>
      </trkpt>
      <trkpt lat="43.76626" lon="5.23639">
        <ele>226.2</ele>
        <time>2023-02-05T12:52:02Z</time>
      </trkpt>
      <trkpt lat="43.76628" lon="5.23645">
        <ele>226.2</ele>
        <time>2023-02-05T12:52:03Z</time>
      </trkpt>
      <trkpt lat="43.76633" lon="5.23658">
        <ele>226</ele>
        <time>2023-02-05T12:52:05Z</time>
      </trkpt>
      <trkpt lat="43.76641" lon="5.23669">
        <ele>225.8</ele>
        <time>2023-02-05T12:52:07Z</time>
      </trkpt>
      <trkpt lat="43.76647" lon="5.23671">
        <ele>225.8</ele>
        <time>2023-02-05T12:52:08Z</time>
      </trkpt>
      <trkpt lat="43.76656" lon="5.23678">
        <ele>225.4</ele>
        <time>2023-02-05T12:52:10Z</time>
      </trkpt>
      <trkpt lat="43.76659" lon="5.23684">
        <ele>225.4</ele>
        <time>2023-02-05T12:52:11Z</time>
      </trkpt>
      <trkpt lat="43.76667" lon="5.23702">
        <ele>225</ele>
        <time>2023-02-05T12:52:14Z</time>
      </trkpt>
      <trkpt lat="43.76671" lon="5.23703">
        <ele>225</ele>
        <time>2023-02-05T12:52:15Z</time>
      </trkpt>
      <trkpt lat="43.76679" lon="5.23701">
        <ele>224.8</ele>
        <time>2023-02-05T12:52:17Z</time>
      </trkpt>
      <trkpt lat="43.76689" lon="5.23694">
        <ele>224.4</ele>
        <time>2023-02-05T12:52:19Z</time>
      </trkpt>
      <trkpt lat="43.76698" lon="5.23691">
        <ele>224</ele>
        <time>2023-02-05T12:52:21Z</time>
      </trkpt>
      <trkpt lat="43.767" lon="5.23694">
        <ele>224</ele>
        <time>2023-02-05T12:52:22Z</time>
      </trkpt>
      <trkpt lat="43.76699" lon="5.23709">
        <ele>223.4</ele>
        <time>2023-02-05T12:52:25Z</time>
      </trkpt>
      <trkpt lat="43.76693" lon="5.23717">
        <ele>223</ele>
        <time>2023-02-05T12:52:27Z</time>
      </trkpt>
      <trkpt lat="43.76686" lon="5.23724">
        <ele>222.6</ele>
        <time>2023-02-05T12:52:29Z</time>
      </trkpt>
      <trkpt lat="43.76677" lon="5.23741">
        <ele>222</ele>
        <time>2023-02-05T12:52:32Z</time>
      </trkpt>
      <trkpt lat="43.76674" lon="5.23745">
        <ele>221.8</ele>
        <time>2023-02-05T12:52:33Z</time>
      </trkpt>
      <trkpt lat="43.76672" lon="5.23748">
        <ele>221.6</ele>
        <time>2023-02-05T12:52:34Z</time>
      </trkpt>
      <trkpt lat="43.7667" lon="5.23749">
        <ele>221</ele>
        <time>2023-02-05T12:52:36Z</time>
      </trkpt>
      <trkpt lat="43.76663" lon="5.23751">
        <ele>220.2</ele>
        <time>2023-02-05T12:52:39Z</time>
      </trkpt>
      <trkpt lat="43.76661" lon="5.23753">
        <ele>219.8</ele>
        <time>2023-02-05T12:52:40Z</time>
      </trkpt>
      <trkpt lat="43.76659" lon="5.23756">
        <ele>219.6</ele>
        <time>2023-02-05T12:52:41Z</time>
      </trkpt>
      <trkpt lat="43.76659" lon="5.23761">
        <ele>219</ele>
        <time>2023-02-05T12:52:43Z</time>
      </trkpt>
      <trkpt lat="43.76657" lon="5.23776">
        <ele>217.6</ele>
        <time>2023-02-05T12:52:47Z</time>
      </trkpt>
      <trkpt lat="43.76654" lon="5.23791">
        <ele>216.2</ele>
        <time>2023-02-05T12:52:51Z</time>
      </trkpt>
      <trkpt lat="43.76649" lon="5.23802">
        <ele>215</ele>
        <time>2023-02-05T12:52:54Z</time>
      </trkpt>
      <trkpt lat="43.76648" lon="5.23808">
        <ele>213.8</ele>
        <time>2023-02-05T12:52:57Z</time>
      </trkpt>
      <trkpt lat="43.76647" lon="5.2381">
        <ele>213.4</ele>
        <time>2023-02-05T12:52:58Z</time>
      </trkpt>
      <trkpt lat="43.76645" lon="5.23814">
        <ele>212.8</ele>
        <time>2023-02-05T12:52:59Z</time>
      </trkpt>
      <trkpt lat="43.76642" lon="5.23825">
        <ele>211.8</ele>
        <time>2023-02-05T12:53:01Z</time>
      </trkpt>
      <trkpt lat="43.76638" lon="5.23835">
        <ele>210</ele>
        <time>2023-02-05T12:53:04Z</time>
      </trkpt>
      <trkpt lat="43.76632" lon="5.23846">
        <ele>208.2</ele>
        <time>2023-02-05T12:53:07Z</time>
      </trkpt>
      <trkpt lat="43.76631" lon="5.23852">
        <ele>207.6</ele>
        <time>2023-02-05T12:53:08Z</time>
      </trkpt>
      <trkpt lat="43.76631" lon="5.23867">
        <ele>205.6</ele>
        <time>2023-02-05T12:53:11Z</time>
      </trkpt>
      <trkpt lat="43.76627" lon="5.23877">
        <ele>203.8</ele>
        <time>2023-02-05T12:53:14Z</time>
      </trkpt>
      <trkpt lat="43.76626" lon="5.23881">
        <ele>203.6</ele>
        <time>2023-02-05T12:53:15Z</time>
      </trkpt>
      <trkpt lat="43.76625" lon="5.23884">
        <ele>203.2</ele>
        <time>2023-02-05T12:53:16Z</time>
      </trkpt>
      <trkpt lat="43.76619" lon="5.23888">
        <ele>202.4</ele>
        <time>2023-02-05T12:53:18Z</time>
      </trkpt>
      <trkpt lat="43.76606" lon="5.2389">
        <ele>200.8</ele>
        <time>2023-02-05T12:53:22Z</time>
      </trkpt>
      <trkpt lat="43.76603" lon="5.23891">
        <ele>200.4</ele>
        <time>2023-02-05T12:53:23Z</time>
      </trkpt>
      <trkpt lat="43.76596" lon="5.23896">
        <ele>199.8</ele>
        <time>2023-02-05T12:53:25Z</time>
      </trkpt>
      <trkpt lat="43.76584" lon="5.23908">
        <ele>198.2</ele>
        <time>2023-02-05T12:53:29Z</time>
      </trkpt>
      <trkpt lat="43.76572" lon="5.2391">
        <ele>196.6</ele>
        <time>2023-02-05T12:53:33Z</time>
      </trkpt>
      <trkpt lat="43.76568" lon="5.23909">
        <ele>196.2</ele>
        <time>2023-02-05T12:53:34Z</time>
      </trkpt>
      <trkpt lat="43.76563" lon="5.23909">
        <ele>195.8</ele>
        <time>2023-02-05T12:53:35Z</time>
      </trkpt>
      <trkpt lat="43.76554" lon="5.23912">
        <ele>195.2</ele>
        <time>2023-02-05T12:53:37Z</time>
      </trkpt>
      <trkpt lat="43.76546" lon="5.23921">
        <ele>194.4</ele>
        <time>2023-02-05T12:53:40Z</time>
      </trkpt>
      <trkpt lat="43.76543" lon="5.23924">
        <ele>194</ele>
        <time>2023-02-05T12:53:41Z</time>
      </trkpt>
      <trkpt lat="43.76533" lon="5.23941">
        <ele>193</ele>
        <time>2023-02-05T12:53:46Z</time>
      </trkpt>
      <trkpt lat="43.76532" lon="5.23945">
        <ele>192.8</ele>
        <time>2023-02-05T12:53:47Z</time>
      </trkpt>
      <trkpt lat="43.76528" lon="5.23962">
        <ele>192.2</ele>
        <time>2023-02-05T12:53:50Z</time>
      </trkpt>
      <trkpt lat="43.76527" lon="5.23968">
        <ele>192</ele>
        <time>2023-02-05T12:53:51Z</time>
      </trkpt>
      <trkpt lat="43.76522" lon="5.23978">
        <ele>191.6</ele>
        <time>2023-02-05T12:53:53Z</time>
      </trkpt>
      <trkpt lat="43.7652" lon="5.23981">
        <ele>191.4</ele>
        <time>2023-02-05T12:53:54Z</time>
      </trkpt>
      <trkpt lat="43.76511" lon="5.23996">
        <ele>190.8</ele>
        <time>2023-02-05T12:53:58Z</time>
      </trkpt>
      <trkpt lat="43.76504" lon="5.24001">
        <ele>190.4</ele>
        <time>2023-02-05T12:54:00Z</time>
      </trkpt>
      <trkpt lat="43.76496" lon="5.24006">
        <ele>190</ele>
        <time>2023-02-05T12:54:02Z</time>
      </trkpt>
      <trkpt lat="43.76491" lon="5.24007">
        <ele>189.8</ele>
        <time>2023-02-05T12:54:03Z</time>
      </trkpt>
      <trkpt lat="43.76487" lon="5.24008">
        <ele>189.6</ele>
        <time>2023-02-05T12:54:04Z</time>
      </trkpt>
      <trkpt lat="43.76478" lon="5.24012">
        <ele>188.8</ele>
        <time>2023-02-05T12:54:07Z</time>
      </trkpt>
      <trkpt lat="43.76477" lon="5.24014">
        <ele>188.6</ele>
        <time>2023-02-05T12:54:08Z</time>
      </trkpt>
      <trkpt lat="43.76479" lon="5.24018">
        <ele>188.2</ele>
        <time>2023-02-05T12:54:10Z</time>
      </trkpt>
      <trkpt lat="43.7648" lon="5.2402">
        <ele>187.4</ele>
        <time>2023-02-05T12:54:15Z</time>
      </trkpt>
      <trkpt lat="43.7648" lon="5.2402">
        <ele>185.6</ele>
        <time>2023-02-05T12:54:27Z</time>
      </trkpt>
      <trkpt lat="43.76479" lon="5.2402">
        <ele>185.6</ele>
        <time>2023-02-05T12:54:28Z</time>
      </trkpt>
      <trkpt lat="43.76468" lon="5.24018">
        <ele>185.2</ele>
        <time>2023-02-05T12:54:32Z</time>
      </trkpt>
      <trkpt lat="43.76457" lon="5.24016">
        <ele>184.6</ele>
        <time>2023-02-05T12:54:35Z</time>
      </trkpt>
      <trkpt lat="43.76454" lon="5.24018">
        <ele>184.4</ele>
        <time>2023-02-05T12:54:36Z</time>
      </trkpt>
      <trkpt lat="43.76451" lon="5.2402">
        <ele>184.2</ele>
        <time>2023-02-05T12:54:37Z</time>
      </trkpt>
      <trkpt lat="43.7645" lon="5.24027">
        <ele>183.6</ele>
        <time>2023-02-05T12:54:39Z</time>
      </trkpt>
      <trkpt lat="43.76455" lon="5.24035">
        <ele>182.8</ele>
        <time>2023-02-05T12:54:42Z</time>
      </trkpt>
      <trkpt lat="43.76462" lon="5.24048">
        <ele>181.8</ele>
        <time>2023-02-05T12:54:47Z</time>
      </trkpt>
      <trkpt lat="43.7647" lon="5.24067">
        <ele>180.8</ele>
        <time>2023-02-05T12:54:53Z</time>
      </trkpt>
      <trkpt lat="43.76479" lon="5.24081">
        <ele>180.6</ele>
        <time>2023-02-05T12:54:58Z</time>
      </trkpt>
      <trkpt lat="43.76487" lon="5.24086">
        <ele>180.4</ele>
        <time>2023-02-05T12:55:02Z</time>
      </trkpt>
      <trkpt lat="43.76498" lon="5.24093">
        <ele>180.2</ele>
        <time>2023-02-05T12:55:07Z</time>
      </trkpt>
      <trkpt lat="43.76501" lon="5.24096">
        <ele>180</ele>
        <time>2023-02-05T12:55:09Z</time>
      </trkpt>
      <trkpt lat="43.76505" lon="5.24098">
        <ele>180</ele>
        <time>2023-02-05T12:55:11Z</time>
      </trkpt>
      <trkpt lat="43.76511" lon="5.24103">
        <ele>180.4</ele>
        <time>2023-02-05T12:55:15Z</time>
      </trkpt>
      <trkpt lat="43.76515" lon="5.24104">
        <ele>181.8</ele>
        <time>2023-02-05T12:55:19Z</time>
      </trkpt>
      <trkpt lat="43.76518" lon="5.24111">
        <ele>182.6</ele>
        <time>2023-02-05T12:55:22Z</time>
      </trkpt>
      <trkpt lat="43.76518" lon="5.24119">
        <ele>183.2</ele>
        <time>2023-02-05T12:55:25Z</time>
      </trkpt>
      <trkpt lat="43.76517" lon="5.24125">
        <ele>183.4</ele>
        <time>2023-02-05T12:55:27Z</time>
      </trkpt>
      <trkpt lat="43.76516" lon="5.24134">
        <ele>183.8</ele>
        <time>2023-02-05T12:55:30Z</time>
      </trkpt>
      <trkpt lat="43.76514" lon="5.24142">
        <ele>184.2</ele>
        <time>2023-02-05T12:55:33Z</time>
      </trkpt>
      <trkpt lat="43.76513" lon="5.24145">
        <ele>184.4</ele>
        <time>2023-02-05T12:55:35Z</time>
      </trkpt>
      <trkpt lat="43.76509" lon="5.24159">
        <ele>185.2</ele>
        <time>2023-02-05T12:55:40Z</time>
      </trkpt>
      <trkpt lat="43.76506" lon="5.24185">
        <ele>186.6</ele>
        <time>2023-02-05T12:55:48Z</time>
      </trkpt>
      <trkpt lat="43.76503" lon="5.24206">
        <ele>187.6</ele>
        <time>2023-02-05T12:55:54Z</time>
      </trkpt>
      <trkpt lat="43.76508" lon="5.24226">
        <ele>188.8</ele>
        <time>2023-02-05T12:56:00Z</time>
      </trkpt>
      <trkpt lat="43.76513" lon="5.24242">
        <ele>189.6</ele>
        <time>2023-02-05T12:56:05Z</time>
      </trkpt>
      <trkpt lat="43.76517" lon="5.24254">
        <ele>190.2</ele>
        <time>2023-02-05T12:56:09Z</time>
      </trkpt>
      <trkpt lat="43.76523" lon="5.24272">
        <ele>191</ele>
        <time>2023-02-05T12:56:15Z</time>
      </trkpt>
      <trkpt lat="43.76524" lon="5.24275">
        <ele>191</ele>
        <time>2023-02-05T12:56:16Z</time>
      </trkpt>
      <trkpt lat="43.76524" lon="5.24283">
        <ele>191.2</ele>
        <time>2023-02-05T12:56:18Z</time>
      </trkpt>
      <trkpt lat="43.76523" lon="5.2429">
        <ele>191.4</ele>
        <time>2023-02-05T12:56:20Z</time>
      </trkpt>
      <trkpt lat="43.76523" lon="5.243">
        <ele>191.8</ele>
        <time>2023-02-05T12:56:23Z</time>
      </trkpt>
      <trkpt lat="43.76527" lon="5.24317">
        <ele>192.8</ele>
        <time>2023-02-05T12:56:29Z</time>
      </trkpt>
      <trkpt lat="43.76529" lon="5.24323">
        <ele>193.2</ele>
        <time>2023-02-05T12:56:31Z</time>
      </trkpt>
      <trkpt lat="43.76528" lon="5.24328">
        <ele>194</ele>
        <time>2023-02-05T12:56:33Z</time>
      </trkpt>
      <trkpt lat="43.7653" lon="5.24343">
        <ele>195.4</ele>
        <time>2023-02-05T12:56:38Z</time>
      </trkpt>
      <trkpt lat="43.76535" lon="5.24363">
        <ele>197.4</ele>
        <time>2023-02-05T12:56:45Z</time>
      </trkpt>
      <trkpt lat="43.76538" lon="5.24374">
        <ele>198.6</ele>
        <time>2023-02-05T12:56:49Z</time>
      </trkpt>
      <trkpt lat="43.7654" lon="5.24388">
        <ele>199.8</ele>
        <time>2023-02-05T12:56:54Z</time>
      </trkpt>
      <trkpt lat="43.76539" lon="5.24406">
        <ele>201.6</ele>
        <time>2023-02-05T12:57:00Z</time>
      </trkpt>
      <trkpt lat="43.76539" lon="5.24411">
        <ele>202.2</ele>
        <time>2023-02-05T12:57:02Z</time>
      </trkpt>
      <trkpt lat="43.76539" lon="5.24417">
        <ele>202.8</ele>
        <time>2023-02-05T12:57:04Z</time>
      </trkpt>
      <trkpt lat="43.76539" lon="5.24422">
        <ele>203.6</ele>
        <time>2023-02-05T12:57:06Z</time>
      </trkpt>
      <trkpt lat="43.76541" lon="5.24426">
        <ele>204.2</ele>
        <time>2023-02-05T12:57:08Z</time>
      </trkpt>
      <trkpt lat="43.76548" lon="5.24432">
        <ele>205.2</ele>
        <time>2023-02-05T12:57:12Z</time>
      </trkpt>
      <trkpt lat="43.76557" lon="5.24437">
        <ele>205.8</ele>
        <time>2023-02-05T12:57:15Z</time>
      </trkpt>
      <trkpt lat="43.76556" lon="5.24441">
        <ele>206</ele>
        <time>2023-02-05T12:57:16Z</time>
      </trkpt>
      <trkpt lat="43.76557" lon="5.24463">
        <ele>207.8</ele>
        <time>2023-02-05T12:57:23Z</time>
      </trkpt>
      <trkpt lat="43.76564" lon="5.24478">
        <ele>209</ele>
        <time>2023-02-05T12:57:28Z</time>
      </trkpt>
      <trkpt lat="43.76564" lon="5.24481">
        <ele>209.2</ele>
        <time>2023-02-05T12:57:29Z</time>
      </trkpt>
      <trkpt lat="43.76567" lon="5.2449">
        <ele>210.2</ele>
        <time>2023-02-05T12:57:32Z</time>
      </trkpt>
      <trkpt lat="43.76572" lon="5.24501">
        <ele>212.4</ele>
        <time>2023-02-05T12:57:37Z</time>
      </trkpt>
      <trkpt lat="43.76581" lon="5.24514">
        <ele>214.8</ele>
        <time>2023-02-05T12:57:43Z</time>
      </trkpt>
      <trkpt lat="43.76582" lon="5.2452">
        <ele>215.6</ele>
        <time>2023-02-05T12:57:45Z</time>
      </trkpt>
      <trkpt lat="43.76583" lon="5.24526">
        <ele>216.4</ele>
        <time>2023-02-05T12:57:47Z</time>
      </trkpt>
      <trkpt lat="43.7659" lon="5.24541">
        <ele>218</ele>
        <time>2023-02-05T12:57:52Z</time>
      </trkpt>
      <trkpt lat="43.76597" lon="5.24555">
        <ele>219.8</ele>
        <time>2023-02-05T12:57:57Z</time>
      </trkpt>
      <trkpt lat="43.76602" lon="5.24564">
        <ele>220.8</ele>
        <time>2023-02-05T12:58:00Z</time>
      </trkpt>
      <trkpt lat="43.76603" lon="5.2457">
        <ele>221.4</ele>
        <time>2023-02-05T12:58:02Z</time>
      </trkpt>
      <trkpt lat="43.76605" lon="5.24584">
        <ele>222.8</ele>
        <time>2023-02-05T12:58:06Z</time>
      </trkpt>
      <trkpt lat="43.76613" lon="5.24602">
        <ele>224.6</ele>
        <time>2023-02-05T12:58:12Z</time>
      </trkpt>
      <trkpt lat="43.76615" lon="5.24605">
        <ele>225</ele>
        <time>2023-02-05T12:58:13Z</time>
      </trkpt>
      <trkpt lat="43.7662" lon="5.24603">
        <ele>225.6</ele>
        <time>2023-02-05T12:58:15Z</time>
      </trkpt>
      <trkpt lat="43.76632" lon="5.24589">
        <ele>227</ele>
        <time>2023-02-05T12:58:20Z</time>
      </trkpt>
      <trkpt lat="43.76643" lon="5.24582">
        <ele>227.6</ele>
        <time>2023-02-05T12:58:23Z</time>
      </trkpt>
      <trkpt lat="43.76651" lon="5.24579">
        <ele>228</ele>
        <time>2023-02-05T12:58:25Z</time>
      </trkpt>
      <trkpt lat="43.76654" lon="5.24577">
        <ele>228</ele>
        <time>2023-02-05T12:58:26Z</time>
      </trkpt>
      <trkpt lat="43.76658" lon="5.24575">
        <ele>228.2</ele>
        <time>2023-02-05T12:58:27Z</time>
      </trkpt>
      <trkpt lat="43.76664" lon="5.24574">
        <ele>228.4</ele>
        <time>2023-02-05T12:58:29Z</time>
      </trkpt>
      <trkpt lat="43.76674" lon="5.2458">
        <ele>228.8</ele>
        <time>2023-02-05T12:58:32Z</time>
      </trkpt>
      <trkpt lat="43.76683" lon="5.24584">
        <ele>229</ele>
        <time>2023-02-05T12:58:36Z</time>
      </trkpt>
      <trkpt lat="43.76692" lon="5.24589">
        <ele>229.6</ele>
        <time>2023-02-05T12:58:40Z</time>
      </trkpt>
      <trkpt lat="43.76693" lon="5.24588">
        <ele>229.8</ele>
        <time>2023-02-05T12:58:41Z</time>
      </trkpt>
      <trkpt lat="43.76696" lon="5.24586">
        <ele>230</ele>
        <time>2023-02-05T12:58:43Z</time>
      </trkpt>
      <trkpt lat="43.76698" lon="5.24583">
        <ele>230.2</ele>
        <time>2023-02-05T12:58:46Z</time>
      </trkpt>
      <trkpt lat="43.76718" lon="5.24585">
        <ele>230.4</ele>
        <time>2023-02-05T12:58:50Z</time>
      </trkpt>
      <trkpt lat="43.7673" lon="5.24588">
        <ele>230.6</ele>
        <time>2023-02-05T12:58:54Z</time>
      </trkpt>
      <trkpt lat="43.76743" lon="5.24605">
        <ele>230.8</ele>
        <time>2023-02-05T12:59:00Z</time>
      </trkpt>
      <trkpt lat="43.7675" lon="5.24611">
        <ele>230.8</ele>
        <time>2023-02-05T12:59:02Z</time>
      </trkpt>
      <trkpt lat="43.76758" lon="5.24613">
        <ele>231</ele>
        <time>2023-02-05T12:59:04Z</time>
      </trkpt>
      <trkpt lat="43.76769" lon="5.24621">
        <ele>231</ele>
        <time>2023-02-05T12:59:07Z</time>
      </trkpt>
      <trkpt lat="43.76773" lon="5.24624">
        <ele>230.8</ele>
        <time>2023-02-05T12:59:08Z</time>
      </trkpt>
      <trkpt lat="43.76788" lon="5.2463">
        <ele>230.8</ele>
        <time>2023-02-05T12:59:12Z</time>
      </trkpt>
      <trkpt lat="43.76806" lon="5.24626">
        <ele>231.4</ele>
        <time>2023-02-05T12:59:18Z</time>
      </trkpt>
      <trkpt lat="43.76816" lon="5.24622">
        <ele>231.8</ele>
        <time>2023-02-05T12:59:22Z</time>
      </trkpt>
      <trkpt lat="43.76827" lon="5.24614">
        <ele>232</ele>
        <time>2023-02-05T12:59:25Z</time>
      </trkpt>
      <trkpt lat="43.76831" lon="5.24612">
        <ele>232</ele>
        <time>2023-02-05T12:59:26Z</time>
      </trkpt>
      <trkpt lat="43.76835" lon="5.24611">
        <ele>232</ele>
        <time>2023-02-05T12:59:27Z</time>
      </trkpt>
      <trkpt lat="43.76843" lon="5.24614">
        <ele>232</ele>
        <time>2023-02-05T12:59:29Z</time>
      </trkpt>
      <trkpt lat="43.7686" lon="5.24621">
        <ele>232.4</ele>
        <time>2023-02-05T12:59:35Z</time>
      </trkpt>
      <trkpt lat="43.76874" lon="5.24631">
        <ele>232.8</ele>
        <time>2023-02-05T12:59:41Z</time>
      </trkpt>
      <trkpt lat="43.76883" lon="5.24634">
        <ele>233.2</ele>
        <time>2023-02-05T12:59:45Z</time>
      </trkpt>
      <trkpt lat="43.7689" lon="5.24639">
        <ele>233.8</ele>
        <time>2023-02-05T12:59:48Z</time>
      </trkpt>
      <trkpt lat="43.76893" lon="5.24638">
        <ele>233.8</ele>
        <time>2023-02-05T12:59:49Z</time>
      </trkpt>
      <trkpt lat="43.76897" lon="5.24638">
        <ele>234</ele>
        <time>2023-02-05T12:59:50Z</time>
      </trkpt>
      <trkpt lat="43.76906" lon="5.24638">
        <ele>234.4</ele>
        <time>2023-02-05T12:59:53Z</time>
      </trkpt>
      <trkpt lat="43.76921" lon="5.24636">
        <ele>234.8</ele>
        <time>2023-02-05T12:59:58Z</time>
      </trkpt>
      <trkpt lat="43.76938" lon="5.24629">
        <ele>235.6</ele>
        <time>2023-02-05T13:00:04Z</time>
      </trkpt>
      <trkpt lat="43.76954" lon="5.24634">
        <ele>236.6</ele>
        <time>2023-02-05T13:00:10Z</time>
      </trkpt>
      <trkpt lat="43.76972" lon="5.24645">
        <ele>237.6</ele>
        <time>2023-02-05T13:00:17Z</time>
      </trkpt>
      <trkpt lat="43.76983" lon="5.24662">
        <ele>238.8</ele>
        <time>2023-02-05T13:00:23Z</time>
      </trkpt>
      <trkpt lat="43.76995" lon="5.2468">
        <ele>240.4</ele>
        <time>2023-02-05T13:00:30Z</time>
      </trkpt>
      <trkpt lat="43.76995" lon="5.24694">
        <ele>241.6</ele>
        <time>2023-02-05T13:00:36Z</time>
      </trkpt>
      <trkpt lat="43.76989" lon="5.2471">
        <ele>242.4</ele>
        <time>2023-02-05T13:00:41Z</time>
      </trkpt>
      <trkpt lat="43.76978" lon="5.24734">
        <ele>243.2</ele>
        <time>2023-02-05T13:00:47Z</time>
      </trkpt>
      <trkpt lat="43.76974" lon="5.24745">
        <ele>243.6</ele>
        <time>2023-02-05T13:00:50Z</time>
      </trkpt>
      <trkpt lat="43.76975" lon="5.24748">
        <ele>243.6</ele>
        <time>2023-02-05T13:00:51Z</time>
      </trkpt>
      <trkpt lat="43.76978" lon="5.24744">
        <ele>244</ele>
        <time>2023-02-05T13:00:54Z</time>
      </trkpt>
      <trkpt lat="43.76978" lon="5.2474">
        <ele>244.2</ele>
        <time>2023-02-05T13:00:55Z</time>
      </trkpt>
      <trkpt lat="43.76982" lon="5.24726">
        <ele>244.4</ele>
        <time>2023-02-05T13:00:58Z</time>
      </trkpt>
      <trkpt lat="43.76994" lon="5.24696">
        <ele>245.6</ele>
        <time>2023-02-05T13:01:05Z</time>
      </trkpt>
      <trkpt lat="43.76996" lon="5.24686">
        <ele>245.8</ele>
        <time>2023-02-05T13:01:07Z</time>
      </trkpt>
      <trkpt lat="43.76994" lon="5.24678">
        <ele>246</ele>
        <time>2023-02-05T13:01:09Z</time>
      </trkpt>
      <trkpt lat="43.7699" lon="5.2467">
        <ele>246.2</ele>
        <time>2023-02-05T13:01:11Z</time>
      </trkpt>
      <trkpt lat="43.76983" lon="5.24662">
        <ele>246.2</ele>
        <time>2023-02-05T13:01:13Z</time>
      </trkpt>
      <trkpt lat="43.76976" lon="5.24652">
        <ele>246.4</ele>
        <time>2023-02-05T13:01:15Z</time>
      </trkpt>
      <trkpt lat="43.76969" lon="5.2464">
        <ele>246.4</ele>
        <time>2023-02-05T13:01:18Z</time>
      </trkpt>
      <trkpt lat="43.76968" lon="5.24635">
        <ele>246.2</ele>
        <time>2023-02-05T13:01:19Z</time>
      </trkpt>
      <trkpt lat="43.76968" lon="5.24623">
        <ele>246.2</ele>
        <time>2023-02-05T13:01:21Z</time>
      </trkpt>
      <trkpt lat="43.76971" lon="5.24601">
        <ele>246.4</ele>
        <time>2023-02-05T13:01:26Z</time>
      </trkpt>
      <trkpt lat="43.76971" lon="5.24583">
        <ele>246.8</ele>
        <time>2023-02-05T13:01:30Z</time>
      </trkpt>
      <trkpt lat="43.76973" lon="5.24574">
        <ele>247</ele>
        <time>2023-02-05T13:01:32Z</time>
      </trkpt>
      <trkpt lat="43.76976" lon="5.24559">
        <ele>247.4</ele>
        <time>2023-02-05T13:01:36Z</time>
      </trkpt>
      <trkpt lat="43.76978" lon="5.24533">
        <ele>248.2</ele>
        <time>2023-02-05T13:01:43Z</time>
      </trkpt>
      <trkpt lat="43.76982" lon="5.24504">
        <ele>248.8</ele>
        <time>2023-02-05T13:01:50Z</time>
      </trkpt>
      <trkpt lat="43.76987" lon="5.24475">
        <ele>249.6</ele>
        <time>2023-02-05T13:01:57Z</time>
      </trkpt>
      <trkpt lat="43.7699" lon="5.24447">
        <ele>250.6</ele>
        <time>2023-02-05T13:02:04Z</time>
      </trkpt>
      <trkpt lat="43.76992" lon="5.24425">
        <ele>251.2</ele>
        <time>2023-02-05T13:02:10Z</time>
      </trkpt>
      <trkpt lat="43.76994" lon="5.24408">
        <ele>251.4</ele>
        <time>2023-02-05T13:02:15Z</time>
      </trkpt>
      <trkpt lat="43.76996" lon="5.24404">
        <ele>251.6</ele>
        <time>2023-02-05T13:02:17Z</time>
      </trkpt>
      <trkpt lat="43.76999" lon="5.24396">
        <ele>251.8</ele>
        <time>2023-02-05T13:02:20Z</time>
      </trkpt>
      <trkpt lat="43.77004" lon="5.24387">
        <ele>252.2</ele>
        <time>2023-02-05T13:02:26Z</time>
      </trkpt>
      <trkpt lat="43.77006" lon="5.24391">
        <ele>252.4</ele>
        <time>2023-02-05T13:02:28Z</time>
      </trkpt>
      <trkpt lat="43.77004" lon="5.24395">
        <ele>252.6</ele>
        <time>2023-02-05T13:02:30Z</time>
      </trkpt>
      <trkpt lat="43.76996" lon="5.24411">
        <ele>252.8</ele>
        <time>2023-02-05T13:02:34Z</time>
      </trkpt>
      <trkpt lat="43.7699" lon="5.24446">
        <ele>253.2</ele>
        <time>2023-02-05T13:02:40Z</time>
      </trkpt>
      <trkpt lat="43.76987" lon="5.24472">
        <ele>253.2</ele>
        <time>2023-02-05T13:02:44Z</time>
      </trkpt>
      <trkpt lat="43.76986" lon="5.24486">
        <ele>253.4</ele>
        <time>2023-02-05T13:02:46Z</time>
      </trkpt>
      <trkpt lat="43.76984" lon="5.24501">
        <ele>253.4</ele>
        <time>2023-02-05T13:02:48Z</time>
      </trkpt>
      <trkpt lat="43.7698" lon="5.24525">
        <ele>253.4</ele>
        <time>2023-02-05T13:02:51Z</time>
      </trkpt>
      <trkpt lat="43.76977" lon="5.24551">
        <ele>253.4</ele>
        <time>2023-02-05T13:02:54Z</time>
      </trkpt>
      <trkpt lat="43.76978" lon="5.2457">
        <ele>253.6</ele>
        <time>2023-02-05T13:02:56Z</time>
      </trkpt>
      <trkpt lat="43.76984" lon="5.24585">
        <ele>253.4</ele>
        <time>2023-02-05T13:02:58Z</time>
      </trkpt>
      <trkpt lat="43.76988" lon="5.24591">
        <ele>253.4</ele>
        <time>2023-02-05T13:02:59Z</time>
      </trkpt>
      <trkpt lat="43.76993" lon="5.24597">
        <ele>253.4</ele>
        <time>2023-02-05T13:03:00Z</time>
      </trkpt>
      <trkpt lat="43.77002" lon="5.24607">
        <ele>253.4</ele>
        <time>2023-02-05T13:03:02Z</time>
      </trkpt>
      <trkpt lat="43.77005" lon="5.24614">
        <ele>253.4</ele>
        <time>2023-02-05T13:03:03Z</time>
      </trkpt>
      <trkpt lat="43.77008" lon="5.24621">
        <ele>253.4</ele>
        <time>2023-02-05T13:03:04Z</time>
      </trkpt>
      <trkpt lat="43.77009" lon="5.24634">
        <ele>253.6</ele>
        <time>2023-02-05T13:03:06Z</time>
      </trkpt>
      <trkpt lat="43.77002" lon="5.24674">
        <ele>254</ele>
        <time>2023-02-05T13:03:12Z</time>
      </trkpt>
      <trkpt lat="43.77001" lon="5.2468">
        <ele>254</ele>
        <time>2023-02-05T13:03:13Z</time>
      </trkpt>
      <trkpt lat="43.76992" lon="5.24706">
        <ele>254.2</ele>
        <time>2023-02-05T13:03:17Z</time>
      </trkpt>
      <trkpt lat="43.76977" lon="5.24739">
        <ele>254.4</ele>
        <time>2023-02-05T13:03:22Z</time>
      </trkpt>
      <trkpt lat="43.76971" lon="5.24751">
        <ele>254.4</ele>
        <time>2023-02-05T13:03:24Z</time>
      </trkpt>
      <trkpt lat="43.76961" lon="5.24769">
        <ele>254.4</ele>
        <time>2023-02-05T13:03:27Z</time>
      </trkpt>
      <trkpt lat="43.76952" lon="5.24786">
        <ele>254.4</ele>
        <time>2023-02-05T13:03:30Z</time>
      </trkpt>
      <trkpt lat="43.76947" lon="5.24798">
        <ele>254.4</ele>
        <time>2023-02-05T13:03:32Z</time>
      </trkpt>
      <trkpt lat="43.7694" lon="5.24822">
        <ele>254.6</ele>
        <time>2023-02-05T13:03:36Z</time>
      </trkpt>
      <trkpt lat="43.76927" lon="5.24861">
        <ele>254.8</ele>
        <time>2023-02-05T13:03:42Z</time>
      </trkpt>
      <trkpt lat="43.76907" lon="5.24926">
        <ele>254.8</ele>
        <time>2023-02-05T13:03:51Z</time>
      </trkpt>
      <trkpt lat="43.76895" lon="5.24965">
        <ele>255</ele>
        <time>2023-02-05T13:03:57Z</time>
      </trkpt>
      <trkpt lat="43.76885" lon="5.25004">
        <ele>255.2</ele>
        <time>2023-02-05T13:04:04Z</time>
      </trkpt>
      <trkpt lat="43.76886" lon="5.25037">
        <ele>255.4</ele>
        <time>2023-02-05T13:04:10Z</time>
      </trkpt>
      <trkpt lat="43.76889" lon="5.25055">
        <ele>255.6</ele>
        <time>2023-02-05T13:04:14Z</time>
      </trkpt>
      <trkpt lat="43.76891" lon="5.25058">
        <ele>255.4</ele>
        <time>2023-02-05T13:04:15Z</time>
      </trkpt>
      <trkpt lat="43.76903" lon="5.2507">
        <ele>255.2</ele>
        <time>2023-02-05T13:04:19Z</time>
      </trkpt>
      <trkpt lat="43.76913" lon="5.25076">
        <ele>255.2</ele>
        <time>2023-02-05T13:04:21Z</time>
      </trkpt>
      <trkpt lat="43.76925" lon="5.25086">
        <ele>255</ele>
        <time>2023-02-05T13:04:23Z</time>
      </trkpt>
      <trkpt lat="43.76936" lon="5.25095">
        <ele>254.8</ele>
        <time>2023-02-05T13:04:25Z</time>
      </trkpt>
      <trkpt lat="43.76947" lon="5.25099">
        <ele>254.4</ele>
        <time>2023-02-05T13:04:27Z</time>
      </trkpt>
      <trkpt lat="43.7696" lon="5.25101">
        <ele>254</ele>
        <time>2023-02-05T13:04:29Z</time>
      </trkpt>
      <trkpt lat="43.76976" lon="5.25107">
        <ele>253.6</ele>
        <time>2023-02-05T13:04:31Z</time>
      </trkpt>
      <trkpt lat="43.76982" lon="5.25108">
        <ele>253.4</ele>
        <time>2023-02-05T13:04:32Z</time>
      </trkpt>
      <trkpt lat="43.76992" lon="5.25106">
        <ele>253</ele>
        <time>2023-02-05T13:04:34Z</time>
      </trkpt>
      <trkpt lat="43.7702" lon="5.25092">
        <ele>252</ele>
        <time>2023-02-05T13:04:38Z</time>
      </trkpt>
      <trkpt lat="43.77028" lon="5.25089">
        <ele>251.8</ele>
        <time>2023-02-05T13:04:39Z</time>
      </trkpt>
      <trkpt lat="43.77044" lon="5.2509">
        <ele>251.2</ele>
        <time>2023-02-05T13:04:41Z</time>
      </trkpt>
      <trkpt lat="43.77088" lon="5.25103">
        <ele>249.2</ele>
        <time>2023-02-05T13:04:46Z</time>
      </trkpt>
      <trkpt lat="43.77103" lon="5.25116">
        <ele>248.2</ele>
        <time>2023-02-05T13:04:48Z</time>
      </trkpt>
      <trkpt lat="43.77109" lon="5.25123">
        <ele>247.6</ele>
        <time>2023-02-05T13:04:49Z</time>
      </trkpt>
      <trkpt lat="43.77126" lon="5.25143">
        <ele>246.4</ele>
        <time>2023-02-05T13:04:52Z</time>
      </trkpt>
      <trkpt lat="43.77132" lon="5.25147">
        <ele>246</ele>
        <time>2023-02-05T13:04:53Z</time>
      </trkpt>
      <trkpt lat="43.77141" lon="5.25153">
        <ele>245</ele>
        <time>2023-02-05T13:04:55Z</time>
      </trkpt>
      <trkpt lat="43.77145" lon="5.25154">
        <ele>244.4</ele>
        <time>2023-02-05T13:04:56Z</time>
      </trkpt>
      <trkpt lat="43.77149" lon="5.25155">
        <ele>243.2</ele>
        <time>2023-02-05T13:04:59Z</time>
      </trkpt>
      <trkpt lat="43.77147" lon="5.25159">
        <ele>240.8</ele>
        <time>2023-02-05T13:05:08Z</time>
      </trkpt>
      <trkpt lat="43.77145" lon="5.25161">
        <ele>240.4</ele>
        <time>2023-02-05T13:05:09Z</time>
      </trkpt>
      <trkpt lat="43.77138" lon="5.25163">
        <ele>240</ele>
        <time>2023-02-05T13:05:11Z</time>
      </trkpt>
      <trkpt lat="43.77129" lon="5.25161">
        <ele>239.4</ele>
        <time>2023-02-05T13:05:13Z</time>
      </trkpt>
      <trkpt lat="43.77121" lon="5.25158">
        <ele>239</ele>
        <time>2023-02-05T13:05:15Z</time>
      </trkpt>
      <trkpt lat="43.77116" lon="5.25157">
        <ele>238.6</ele>
        <time>2023-02-05T13:05:16Z</time>
      </trkpt>
      <trkpt lat="43.77097" lon="5.25149">
        <ele>237.4</ele>
        <time>2023-02-05T13:05:20Z</time>
      </trkpt>
      <trkpt lat="43.77081" lon="5.25146">
        <ele>236.4</ele>
        <time>2023-02-05T13:05:23Z</time>
      </trkpt>
      <trkpt lat="43.77075" lon="5.25147">
        <ele>236.2</ele>
        <time>2023-02-05T13:05:24Z</time>
      </trkpt>
      <trkpt lat="43.77064" lon="5.25149">
        <ele>235.6</ele>
        <time>2023-02-05T13:05:26Z</time>
      </trkpt>
      <trkpt lat="43.77048" lon="5.25154">
        <ele>234.6</ele>
        <time>2023-02-05T13:05:29Z</time>
      </trkpt>
      <trkpt lat="43.77043" lon="5.25157">
        <ele>234.4</ele>
        <time>2023-02-05T13:05:30Z</time>
      </trkpt>
      <trkpt lat="43.77027" lon="5.25165">
        <ele>233.6</ele>
        <time>2023-02-05T13:05:33Z</time>
      </trkpt>
      <trkpt lat="43.77011" lon="5.25172">
        <ele>232.8</ele>
        <time>2023-02-05T13:05:36Z</time>
      </trkpt>
      <trkpt lat="43.77001" lon="5.25175">
        <ele>232.2</ele>
        <time>2023-02-05T13:05:38Z</time>
      </trkpt>
      <trkpt lat="43.76991" lon="5.2518">
        <ele>231.6</ele>
        <time>2023-02-05T13:05:40Z</time>
      </trkpt>
      <trkpt lat="43.76982" lon="5.25189">
        <ele>231.2</ele>
        <time>2023-02-05T13:05:42Z</time>
      </trkpt>
      <trkpt lat="43.76973" lon="5.25202">
        <ele>230.4</ele>
        <time>2023-02-05T13:05:44Z</time>
      </trkpt>
      <trkpt lat="43.76964" lon="5.25217">
        <ele>230</ele>
        <time>2023-02-05T13:05:46Z</time>
      </trkpt>
      <trkpt lat="43.76953" lon="5.25228">
        <ele>229.4</ele>
        <time>2023-02-05T13:05:48Z</time>
      </trkpt>
      <trkpt lat="43.76941" lon="5.25237">
        <ele>228.8</ele>
        <time>2023-02-05T13:05:50Z</time>
      </trkpt>
      <trkpt lat="43.76929" lon="5.25244">
        <ele>228.2</ele>
        <time>2023-02-05T13:05:52Z</time>
      </trkpt>
      <trkpt lat="43.76899" lon="5.25253">
        <ele>227</ele>
        <time>2023-02-05T13:05:57Z</time>
      </trkpt>
      <trkpt lat="43.76882" lon="5.25255">
        <ele>226.2</ele>
        <time>2023-02-05T13:06:00Z</time>
      </trkpt>
      <trkpt lat="43.76876" lon="5.25255">
        <ele>226</ele>
        <time>2023-02-05T13:06:01Z</time>
      </trkpt>
      <trkpt lat="43.76864" lon="5.25255">
        <ele>225.4</ele>
        <time>2023-02-05T13:06:03Z</time>
      </trkpt>
      <trkpt lat="43.76844" lon="5.25255">
        <ele>224.6</ele>
        <time>2023-02-05T13:06:06Z</time>
      </trkpt>
      <trkpt lat="43.76831" lon="5.25257">
        <ele>224</ele>
        <time>2023-02-05T13:06:08Z</time>
      </trkpt>
      <trkpt lat="43.76816" lon="5.25257">
        <ele>223.6</ele>
        <time>2023-02-05T13:06:10Z</time>
      </trkpt>
      <trkpt lat="43.76809" lon="5.25257">
        <ele>223.4</ele>
        <time>2023-02-05T13:06:11Z</time>
      </trkpt>
      <trkpt lat="43.76797" lon="5.2526">
        <ele>222.8</ele>
        <time>2023-02-05T13:06:13Z</time>
      </trkpt>
      <trkpt lat="43.76785" lon="5.25269">
        <ele>222.4</ele>
        <time>2023-02-05T13:06:15Z</time>
      </trkpt>
      <trkpt lat="43.76779" lon="5.25274">
        <ele>222</ele>
        <time>2023-02-05T13:06:16Z</time>
      </trkpt>
      <trkpt lat="43.76772" lon="5.25279">
        <ele>221.8</ele>
        <time>2023-02-05T13:06:17Z</time>
      </trkpt>
      <trkpt lat="43.7676" lon="5.25288">
        <ele>221.2</ele>
        <time>2023-02-05T13:06:19Z</time>
      </trkpt>
      <trkpt lat="43.76737" lon="5.25297">
        <ele>220</ele>
        <time>2023-02-05T13:06:23Z</time>
      </trkpt>
      <trkpt lat="43.7673" lon="5.25311">
        <ele>219.4</ele>
        <time>2023-02-05T13:06:25Z</time>
      </trkpt>
      <trkpt lat="43.76727" lon="5.25318">
        <ele>219.2</ele>
        <time>2023-02-05T13:06:26Z</time>
      </trkpt>
      <trkpt lat="43.76721" lon="5.25332">
        <ele>218.6</ele>
        <time>2023-02-05T13:06:28Z</time>
      </trkpt>
      <trkpt lat="43.7671" lon="5.25353">
        <ele>218</ele>
        <time>2023-02-05T13:06:31Z</time>
      </trkpt>
      <trkpt lat="43.76694" lon="5.25387">
        <ele>217.2</ele>
        <time>2023-02-05T13:06:35Z</time>
      </trkpt>
      <trkpt lat="43.76689" lon="5.25395">
        <ele>217</ele>
        <time>2023-02-05T13:06:36Z</time>
      </trkpt>
      <trkpt lat="43.76683" lon="5.25401">
        <ele>216.8</ele>
        <time>2023-02-05T13:06:37Z</time>
      </trkpt>
      <trkpt lat="43.76665" lon="5.25413">
        <ele>216</ele>
        <time>2023-02-05T13:06:40Z</time>
      </trkpt>
      <trkpt lat="43.76654" lon="5.25423">
        <ele>215.6</ele>
        <time>2023-02-05T13:06:42Z</time>
      </trkpt>
      <trkpt lat="43.7665" lon="5.2543">
        <ele>215.2</ele>
        <time>2023-02-05T13:06:43Z</time>
      </trkpt>
      <trkpt lat="43.76647" lon="5.25438">
        <ele>215</ele>
        <time>2023-02-05T13:06:44Z</time>
      </trkpt>
      <trkpt lat="43.76641" lon="5.25454">
        <ele>214.6</ele>
        <time>2023-02-05T13:06:46Z</time>
      </trkpt>
      <trkpt lat="43.76638" lon="5.25462">
        <ele>214.2</ele>
        <time>2023-02-05T13:06:47Z</time>
      </trkpt>
      <trkpt lat="43.76634" lon="5.25469">
        <ele>214</ele>
        <time>2023-02-05T13:06:48Z</time>
      </trkpt>
      <trkpt lat="43.76627" lon="5.25483">
        <ele>213.4</ele>
        <time>2023-02-05T13:06:50Z</time>
      </trkpt>
      <trkpt lat="43.76612" lon="5.25507">
        <ele>212.6</ele>
        <time>2023-02-05T13:06:53Z</time>
      </trkpt>
      <trkpt lat="43.76607" lon="5.25516">
        <ele>212.2</ele>
        <time>2023-02-05T13:06:54Z</time>
      </trkpt>
      <trkpt lat="43.76602" lon="5.25536">
        <ele>211.6</ele>
        <time>2023-02-05T13:06:56Z</time>
      </trkpt>
      <trkpt lat="43.76596" lon="5.25554">
        <ele>211</ele>
        <time>2023-02-05T13:06:58Z</time>
      </trkpt>
      <trkpt lat="43.7659" lon="5.25581">
        <ele>210.2</ele>
        <time>2023-02-05T13:07:01Z</time>
      </trkpt>
      <trkpt lat="43.76588" lon="5.25589">
        <ele>210</ele>
        <time>2023-02-05T13:07:02Z</time>
      </trkpt>
      <trkpt lat="43.7658" lon="5.25604">
        <ele>209.4</ele>
        <time>2023-02-05T13:07:04Z</time>
      </trkpt>
      <trkpt lat="43.76575" lon="5.25609">
        <ele>209.2</ele>
        <time>2023-02-05T13:07:05Z</time>
      </trkpt>
      <trkpt lat="43.76564" lon="5.25614">
        <ele>208.6</ele>
        <time>2023-02-05T13:07:07Z</time>
      </trkpt>
      <trkpt lat="43.76546" lon="5.25615">
        <ele>207.6</ele>
        <time>2023-02-05T13:07:10Z</time>
      </trkpt>
      <trkpt lat="43.76542" lon="5.25617">
        <ele>207.2</ele>
        <time>2023-02-05T13:07:11Z</time>
      </trkpt>
      <trkpt lat="43.76532" lon="5.25619">
        <ele>206.4</ele>
        <time>2023-02-05T13:07:13Z</time>
      </trkpt>
      <trkpt lat="43.76522" lon="5.25618">
        <ele>205.8</ele>
        <time>2023-02-05T13:07:15Z</time>
      </trkpt>
      <trkpt lat="43.76517" lon="5.25618">
        <ele>205.6</ele>
        <time>2023-02-05T13:07:16Z</time>
      </trkpt>
      <trkpt lat="43.76512" lon="5.25618">
        <ele>205.2</ele>
        <time>2023-02-05T13:07:17Z</time>
      </trkpt>
      <trkpt lat="43.76504" lon="5.2562">
        <ele>204.6</ele>
        <time>2023-02-05T13:07:19Z</time>
      </trkpt>
      <trkpt lat="43.765" lon="5.25622">
        <ele>204.4</ele>
        <time>2023-02-05T13:07:20Z</time>
      </trkpt>
      <trkpt lat="43.76492" lon="5.25625">
        <ele>203.8</ele>
        <time>2023-02-05T13:07:22Z</time>
      </trkpt>
      <trkpt lat="43.76483" lon="5.25625">
        <ele>203.2</ele>
        <time>2023-02-05T13:07:24Z</time>
      </trkpt>
      <trkpt lat="43.76464" lon="5.25626">
        <ele>202</ele>
        <time>2023-02-05T13:07:28Z</time>
      </trkpt>
      <trkpt lat="43.76459" lon="5.25629">
        <ele>201.6</ele>
        <time>2023-02-05T13:07:29Z</time>
      </trkpt>
      <trkpt lat="43.76455" lon="5.25632">
        <ele>201.2</ele>
        <time>2023-02-05T13:07:30Z</time>
      </trkpt>
      <trkpt lat="43.76447" lon="5.25634">
        <ele>200.6</ele>
        <time>2023-02-05T13:07:32Z</time>
      </trkpt>
      <trkpt lat="43.76443" lon="5.25633">
        <ele>200.4</ele>
        <time>2023-02-05T13:07:33Z</time>
      </trkpt>
      <trkpt lat="43.76438" lon="5.25633">
        <ele>200</ele>
        <time>2023-02-05T13:07:34Z</time>
      </trkpt>
      <trkpt lat="43.76426" lon="5.25634">
        <ele>199</ele>
        <time>2023-02-05T13:07:37Z</time>
      </trkpt>
      <trkpt lat="43.7641" lon="5.25639">
        <ele>197.4</ele>
        <time>2023-02-05T13:07:41Z</time>
      </trkpt>
      <trkpt lat="43.76406" lon="5.2564">
        <ele>197</ele>
        <time>2023-02-05T13:07:42Z</time>
      </trkpt>
      <trkpt lat="43.76401" lon="5.2564">
        <ele>196.6</ele>
        <time>2023-02-05T13:07:43Z</time>
      </trkpt>
      <trkpt lat="43.76387" lon="5.25639">
        <ele>195.4</ele>
        <time>2023-02-05T13:07:46Z</time>
      </trkpt>
      <trkpt lat="43.76383" lon="5.25638">
        <ele>195</ele>
        <time>2023-02-05T13:07:47Z</time>
      </trkpt>
      <trkpt lat="43.76373" lon="5.25636">
        <ele>194.2</ele>
        <time>2023-02-05T13:07:49Z</time>
      </trkpt>
      <trkpt lat="43.76363" lon="5.25636">
        <ele>193.2</ele>
        <time>2023-02-05T13:07:51Z</time>
      </trkpt>
      <trkpt lat="43.76358" lon="5.25637">
        <ele>192.8</ele>
        <time>2023-02-05T13:07:52Z</time>
      </trkpt>
      <trkpt lat="43.76337" lon="5.25634">
        <ele>189.8</ele>
        <time>2023-02-05T13:07:57Z</time>
      </trkpt>
      <trkpt lat="43.76315" lon="5.25627">
        <ele>185.6</ele>
        <time>2023-02-05T13:08:03Z</time>
      </trkpt>
      <trkpt lat="43.7631" lon="5.25626">
        <ele>184.8</ele>
        <time>2023-02-05T13:08:04Z</time>
      </trkpt>
      <trkpt lat="43.7629" lon="5.25622">
        <ele>180.6</ele>
        <time>2023-02-05T13:08:09Z</time>
      </trkpt>
      <trkpt lat="43.76285" lon="5.25621">
        <ele>179.8</ele>
        <time>2023-02-05T13:08:10Z</time>
      </trkpt>
      <trkpt lat="43.76272" lon="5.25614">
        <ele>177.2</ele>
        <time>2023-02-05T13:08:13Z</time>
      </trkpt>
      <trkpt lat="43.76264" lon="5.2561">
        <ele>175.4</ele>
        <time>2023-02-05T13:08:15Z</time>
      </trkpt>
      <trkpt lat="43.76254" lon="5.25611">
        <ele>174</ele>
        <time>2023-02-05T13:08:17Z</time>
      </trkpt>
      <trkpt lat="43.76244" lon="5.2561">
        <ele>171.8</ele>
        <time>2023-02-05T13:08:20Z</time>
      </trkpt>
      <trkpt lat="43.76241" lon="5.25608">
        <ele>170.6</ele>
        <time>2023-02-05T13:08:22Z</time>
      </trkpt>
      <trkpt lat="43.76235" lon="5.25606">
        <ele>172.8</ele>
        <time>2023-02-05T13:08:24Z</time>
      </trkpt>
      <trkpt lat="43.76229" lon="5.25621">
        <ele>174</ele>
        <time>2023-02-05T13:08:30Z</time>
      </trkpt>
      <trkpt lat="43.76225" lon="5.25651">
        <ele>169.6</ele>
        <time>2023-02-05T13:08:38Z</time>
      </trkpt>
      <trkpt lat="43.76223" lon="5.25679">
        <ele>173</ele>
        <time>2023-02-05T13:08:44Z</time>
      </trkpt>
      <trkpt lat="43.7622" lon="5.25707">
        <ele>177.2</ele>
        <time>2023-02-05T13:08:51Z</time>
      </trkpt>
      <trkpt lat="43.76217" lon="5.25728">
        <ele>174.4</ele>
        <time>2023-02-05T13:08:56Z</time>
      </trkpt>
      <trkpt lat="43.76216" lon="5.25732">
        <ele>174.4</ele>
        <time>2023-02-05T13:08:57Z</time>
      </trkpt>
      <trkpt lat="43.76216" lon="5.25743">
        <ele>174.8</ele>
        <time>2023-02-05T13:09:00Z</time>
      </trkpt>
      <trkpt lat="43.76209" lon="5.25761">
        <ele>175.2</ele>
        <time>2023-02-05T13:09:06Z</time>
      </trkpt>
      <trkpt lat="43.76202" lon="5.25778">
        <ele>175.2</ele>
        <time>2023-02-05T13:09:12Z</time>
      </trkpt>
      <trkpt lat="43.76195" lon="5.25792">
        <ele>176</ele>
        <time>2023-02-05T13:09:17Z</time>
      </trkpt>
      <trkpt lat="43.7619" lon="5.25812">
        <ele>176</ele>
        <time>2023-02-05T13:09:23Z</time>
      </trkpt>
      <trkpt lat="43.76183" lon="5.25829">
        <ele>175.8</ele>
        <time>2023-02-05T13:09:29Z</time>
      </trkpt>
      <trkpt lat="43.76175" lon="5.25848">
        <ele>176.2</ele>
        <time>2023-02-05T13:09:36Z</time>
      </trkpt>
      <trkpt lat="43.7617" lon="5.25859">
        <ele>177.4</ele>
        <time>2023-02-05T13:09:41Z</time>
      </trkpt>
      <trkpt lat="43.76169" lon="5.25862">
        <ele>178</ele>
        <time>2023-02-05T13:09:42Z</time>
      </trkpt>
      <trkpt lat="43.76171" lon="5.25867">
        <ele>178.8</ele>
        <time>2023-02-05T13:09:44Z</time>
      </trkpt>
      <trkpt lat="43.76174" lon="5.25869">
        <ele>179.6</ele>
        <time>2023-02-05T13:09:46Z</time>
      </trkpt>
      <trkpt lat="43.76182" lon="5.25864">
        <ele>180.8</ele>
        <time>2023-02-05T13:09:50Z</time>
      </trkpt>
      <trkpt lat="43.76198" lon="5.25859">
        <ele>181.8</ele>
        <time>2023-02-05T13:09:55Z</time>
      </trkpt>
      <trkpt lat="43.76224" lon="5.25857">
        <ele>183.8</ele>
        <time>2023-02-05T13:10:02Z</time>
      </trkpt>
      <trkpt lat="43.76255" lon="5.25857">
        <ele>186.6</ele>
        <time>2023-02-05T13:10:11Z</time>
      </trkpt>
      <trkpt lat="43.76286" lon="5.25858">
        <ele>189</ele>
        <time>2023-02-05T13:10:20Z</time>
      </trkpt>
      <trkpt lat="43.76306" lon="5.25859">
        <ele>190.6</ele>
        <time>2023-02-05T13:10:26Z</time>
      </trkpt>
      <trkpt lat="43.76338" lon="5.25862">
        <ele>192.8</ele>
        <time>2023-02-05T13:10:35Z</time>
      </trkpt>
      <trkpt lat="43.76365" lon="5.25868">
        <ele>194.6</ele>
        <time>2023-02-05T13:10:43Z</time>
      </trkpt>
      <trkpt lat="43.76386" lon="5.25872">
        <ele>196.2</ele>
        <time>2023-02-05T13:10:50Z</time>
      </trkpt>
      <trkpt lat="43.76402" lon="5.2587">
        <ele>197.2</ele>
        <time>2023-02-05T13:10:55Z</time>
      </trkpt>
      <trkpt lat="43.76415" lon="5.25865">
        <ele>198.2</ele>
        <time>2023-02-05T13:10:59Z</time>
      </trkpt>
      <trkpt lat="43.76439" lon="5.25855">
        <ele>199.8</ele>
        <time>2023-02-05T13:11:06Z</time>
      </trkpt>
      <trkpt lat="43.76461" lon="5.25857">
        <ele>201.6</ele>
        <time>2023-02-05T13:11:13Z</time>
      </trkpt>
      <trkpt lat="43.76479" lon="5.25866">
        <ele>203.4</ele>
        <time>2023-02-05T13:11:20Z</time>
      </trkpt>
      <trkpt lat="43.76497" lon="5.25878">
        <ele>205.4</ele>
        <time>2023-02-05T13:11:28Z</time>
      </trkpt>
      <trkpt lat="43.76518" lon="5.25887">
        <ele>208</ele>
        <time>2023-02-05T13:11:37Z</time>
      </trkpt>
      <trkpt lat="43.76536" lon="5.25896">
        <ele>210.2</ele>
        <time>2023-02-05T13:11:45Z</time>
      </trkpt>
      <trkpt lat="43.76548" lon="5.25905">
        <ele>211.8</ele>
        <time>2023-02-05T13:11:51Z</time>
      </trkpt>
      <trkpt lat="43.76565" lon="5.25909">
        <ele>213.6</ele>
        <time>2023-02-05T13:11:58Z</time>
      </trkpt>
      <trkpt lat="43.76577" lon="5.25903">
        <ele>215.2</ele>
        <time>2023-02-05T13:12:03Z</time>
      </trkpt>
      <trkpt lat="43.76579" lon="5.259">
        <ele>215.4</ele>
        <time>2023-02-05T13:12:04Z</time>
      </trkpt>
      <trkpt lat="43.7658" lon="5.25894">
        <ele>216</ele>
        <time>2023-02-05T13:12:06Z</time>
      </trkpt>
      <trkpt lat="43.76581" lon="5.25891">
        <ele>216.2</ele>
        <time>2023-02-05T13:12:07Z</time>
      </trkpt>
      <trkpt lat="43.76582" lon="5.25888">
        <ele>216.6</ele>
        <time>2023-02-05T13:12:08Z</time>
      </trkpt>
      <trkpt lat="43.76583" lon="5.25883">
        <ele>217</ele>
        <time>2023-02-05T13:12:10Z</time>
      </trkpt>
      <trkpt lat="43.76585" lon="5.25881">
        <ele>217.2</ele>
        <time>2023-02-05T13:12:11Z</time>
      </trkpt>
      <trkpt lat="43.76586" lon="5.25881">
        <ele>217.4</ele>
        <time>2023-02-05T13:12:12Z</time>
      </trkpt>
      <trkpt lat="43.76593" lon="5.25882">
        <ele>217.8</ele>
        <time>2023-02-05T13:12:15Z</time>
      </trkpt>
      <trkpt lat="43.76603" lon="5.25891">
        <ele>219</ele>
        <time>2023-02-05T13:12:20Z</time>
      </trkpt>
      <trkpt lat="43.76615" lon="5.25903">
        <ele>220.6</ele>
        <time>2023-02-05T13:12:26Z</time>
      </trkpt>
      <trkpt lat="43.76623" lon="5.2591">
        <ele>221.4</ele>
        <time>2023-02-05T13:12:30Z</time>
      </trkpt>
      <trkpt lat="43.76626" lon="5.25914">
        <ele>222</ele>
        <time>2023-02-05T13:12:32Z</time>
      </trkpt>
      <trkpt lat="43.76638" lon="5.25929">
        <ele>224</ele>
        <time>2023-02-05T13:12:39Z</time>
      </trkpt>
      <trkpt lat="43.76646" lon="5.25939">
        <ele>225.4</ele>
        <time>2023-02-05T13:12:44Z</time>
      </trkpt>
      <trkpt lat="43.7665" lon="5.25943">
        <ele>226</ele>
        <time>2023-02-05T13:12:46Z</time>
      </trkpt>
      <trkpt lat="43.76653" lon="5.25947">
        <ele>226.6</ele>
        <time>2023-02-05T13:12:48Z</time>
      </trkpt>
      <trkpt lat="43.76664" lon="5.25959">
        <ele>227.8</ele>
        <time>2023-02-05T13:12:54Z</time>
      </trkpt>
      <trkpt lat="43.76678" lon="5.2597">
        <ele>229.6</ele>
        <time>2023-02-05T13:13:01Z</time>
      </trkpt>
      <trkpt lat="43.76683" lon="5.25975">
        <ele>230.4</ele>
        <time>2023-02-05T13:13:04Z</time>
      </trkpt>
      <trkpt lat="43.76684" lon="5.25978">
        <ele>230.8</ele>
        <time>2023-02-05T13:13:05Z</time>
      </trkpt>
      <trkpt lat="43.76684" lon="5.25981">
        <ele>231</ele>
        <time>2023-02-05T13:13:06Z</time>
      </trkpt>
      <trkpt lat="43.76689" lon="5.25984">
        <ele>231.4</ele>
        <time>2023-02-05T13:13:08Z</time>
      </trkpt>
      <trkpt lat="43.76692" lon="5.25985">
        <ele>231.6</ele>
        <time>2023-02-05T13:13:09Z</time>
      </trkpt>
      <trkpt lat="43.76705" lon="5.25994">
        <ele>233.4</ele>
        <time>2023-02-05T13:13:15Z</time>
      </trkpt>
      <trkpt lat="43.76718" lon="5.26003">
        <ele>235</ele>
        <time>2023-02-05T13:13:21Z</time>
      </trkpt>
      <trkpt lat="43.76729" lon="5.26016">
        <ele>236.6</ele>
        <time>2023-02-05T13:13:27Z</time>
      </trkpt>
      <trkpt lat="43.76742" lon="5.26026">
        <ele>238.6</ele>
        <time>2023-02-05T13:13:34Z</time>
      </trkpt>
      <trkpt lat="43.76751" lon="5.26034">
        <ele>239.6</ele>
        <time>2023-02-05T13:13:39Z</time>
      </trkpt>
      <trkpt lat="43.76752" lon="5.26036">
        <ele>239.8</ele>
        <time>2023-02-05T13:13:40Z</time>
      </trkpt>
      <trkpt lat="43.76759" lon="5.26045">
        <ele>241</ele>
        <time>2023-02-05T13:13:44Z</time>
      </trkpt>
      <trkpt lat="43.76768" lon="5.26058">
        <ele>242.6</ele>
        <time>2023-02-05T13:13:50Z</time>
      </trkpt>
      <trkpt lat="43.76769" lon="5.2606">
        <ele>243</ele>
        <time>2023-02-05T13:13:51Z</time>
      </trkpt>
      <trkpt lat="43.76773" lon="5.26069">
        <ele>244</ele>
        <time>2023-02-05T13:13:55Z</time>
      </trkpt>
      <trkpt lat="43.76774" lon="5.26072">
        <ele>244.4</ele>
        <time>2023-02-05T13:13:56Z</time>
      </trkpt>
      <trkpt lat="43.7678" lon="5.26083">
        <ele>245.4</ele>
        <time>2023-02-05T13:14:00Z</time>
      </trkpt>
      <trkpt lat="43.76783" lon="5.26087">
        <ele>245.8</ele>
        <time>2023-02-05T13:14:02Z</time>
      </trkpt>
      <trkpt lat="43.7679" lon="5.26102">
        <ele>246.8</ele>
        <time>2023-02-05T13:14:07Z</time>
      </trkpt>
      <trkpt lat="43.76792" lon="5.26107">
        <ele>247.2</ele>
        <time>2023-02-05T13:14:09Z</time>
      </trkpt>
      <trkpt lat="43.76795" lon="5.26111">
        <ele>247.4</ele>
        <time>2023-02-05T13:14:11Z</time>
      </trkpt>
      <trkpt lat="43.768" lon="5.26126">
        <ele>248.2</ele>
        <time>2023-02-05T13:14:16Z</time>
      </trkpt>
      <trkpt lat="43.76809" lon="5.26138">
        <ele>249.4</ele>
        <time>2023-02-05T13:14:21Z</time>
      </trkpt>
      <trkpt lat="43.76811" lon="5.26143">
        <ele>249.8</ele>
        <time>2023-02-05T13:14:23Z</time>
      </trkpt>
      <trkpt lat="43.76816" lon="5.26146">
        <ele>250.2</ele>
        <time>2023-02-05T13:14:25Z</time>
      </trkpt>
      <trkpt lat="43.76827" lon="5.26158">
        <ele>251.8</ele>
        <time>2023-02-05T13:14:31Z</time>
      </trkpt>
      <trkpt lat="43.76832" lon="5.26167">
        <ele>252.6</ele>
        <time>2023-02-05T13:14:35Z</time>
      </trkpt>
      <trkpt lat="43.76832" lon="5.26169">
        <ele>252.8</ele>
        <time>2023-02-05T13:14:36Z</time>
      </trkpt>
      <trkpt lat="43.76832" lon="5.26172">
        <ele>253</ele>
        <time>2023-02-05T13:14:37Z</time>
      </trkpt>
      <trkpt lat="43.76829" lon="5.26177">
        <ele>253.4</ele>
        <time>2023-02-05T13:14:39Z</time>
      </trkpt>
      <trkpt lat="43.76826" lon="5.26191">
        <ele>253.8</ele>
        <time>2023-02-05T13:14:43Z</time>
      </trkpt>
      <trkpt lat="43.76825" lon="5.26195">
        <ele>254</ele>
        <time>2023-02-05T13:14:44Z</time>
      </trkpt>
      <trkpt lat="43.76822" lon="5.26209">
        <ele>254.4</ele>
        <time>2023-02-05T13:14:48Z</time>
      </trkpt>
      <trkpt lat="43.76821" lon="5.26214">
        <ele>254.4</ele>
        <time>2023-02-05T13:14:49Z</time>
      </trkpt>
      <trkpt lat="43.76817" lon="5.26227">
        <ele>254.8</ele>
        <time>2023-02-05T13:14:52Z</time>
      </trkpt>
      <trkpt lat="43.76814" lon="5.26247">
        <ele>255.4</ele>
        <time>2023-02-05T13:14:56Z</time>
      </trkpt>
      <trkpt lat="43.76813" lon="5.26253">
        <ele>255.6</ele>
        <time>2023-02-05T13:14:57Z</time>
      </trkpt>
      <trkpt lat="43.76812" lon="5.26268">
        <ele>255.8</ele>
        <time>2023-02-05T13:15:00Z</time>
      </trkpt>
      <trkpt lat="43.76812" lon="5.26273">
        <ele>256</ele>
        <time>2023-02-05T13:15:01Z</time>
      </trkpt>
      <trkpt lat="43.7681" lon="5.26285">
        <ele>256.2</ele>
        <time>2023-02-05T13:15:04Z</time>
      </trkpt>
      <trkpt lat="43.76808" lon="5.26287">
        <ele>256.4</ele>
        <time>2023-02-05T13:15:05Z</time>
      </trkpt>
      <trkpt lat="43.76803" lon="5.2629">
        <ele>256.6</ele>
        <time>2023-02-05T13:15:07Z</time>
      </trkpt>
      <trkpt lat="43.76801" lon="5.26292">
        <ele>256.6</ele>
        <time>2023-02-05T13:15:08Z</time>
      </trkpt>
      <trkpt lat="43.76793" lon="5.26302">
        <ele>257</ele>
        <time>2023-02-05T13:15:11Z</time>
      </trkpt>
      <trkpt lat="43.76792" lon="5.26306">
        <ele>257.2</ele>
        <time>2023-02-05T13:15:12Z</time>
      </trkpt>
      <trkpt lat="43.7679" lon="5.26317">
        <ele>257.4</ele>
        <time>2023-02-05T13:15:14Z</time>
      </trkpt>
      <trkpt lat="43.76786" lon="5.2633">
        <ele>257.4</ele>
        <time>2023-02-05T13:15:16Z</time>
      </trkpt>
      <trkpt lat="43.76783" lon="5.26335">
        <ele>257.6</ele>
        <time>2023-02-05T13:15:17Z</time>
      </trkpt>
      <trkpt lat="43.7678" lon="5.26339">
        <ele>257.6</ele>
        <time>2023-02-05T13:15:18Z</time>
      </trkpt>
      <trkpt lat="43.76776" lon="5.26352">
        <ele>257.8</ele>
        <time>2023-02-05T13:15:20Z</time>
      </trkpt>
      <trkpt lat="43.76772" lon="5.26383">
        <ele>257.8</ele>
        <time>2023-02-05T13:15:24Z</time>
      </trkpt>
      <trkpt lat="43.76762" lon="5.26397">
        <ele>257.8</ele>
        <time>2023-02-05T13:15:27Z</time>
      </trkpt>
      <trkpt lat="43.7676" lon="5.26402">
        <ele>257.8</ele>
        <time>2023-02-05T13:15:28Z</time>
      </trkpt>
      <trkpt lat="43.76759" lon="5.26411">
        <ele>257.6</ele>
        <time>2023-02-05T13:15:30Z</time>
      </trkpt>
      <trkpt lat="43.7676" lon="5.26412">
        <ele>257.6</ele>
        <time>2023-02-05T13:15:31Z</time>
      </trkpt>
      <trkpt lat="43.76764" lon="5.26418">
        <ele>257.6</ele>
        <time>2023-02-05T13:15:36Z</time>
      </trkpt>
      <trkpt lat="43.76764" lon="5.26428">
        <ele>256.6</ele>
        <time>2023-02-05T13:15:39Z</time>
      </trkpt>
      <trkpt lat="43.76763" lon="5.26434">
        <ele>257</ele>
        <time>2023-02-05T13:15:40Z</time>
      </trkpt>
      <trkpt lat="43.76762" lon="5.26451">
        <ele>256.4</ele>
        <time>2023-02-05T13:15:43Z</time>
      </trkpt>
      <trkpt lat="43.76757" lon="5.26468">
        <ele>255.8</ele>
        <time>2023-02-05T13:15:47Z</time>
      </trkpt>
      <trkpt lat="43.76756" lon="5.26471">
        <ele>255.2</ele>
        <time>2023-02-05T13:15:49Z</time>
      </trkpt>
      <trkpt lat="43.76757" lon="5.26475">
        <ele>255</ele>
        <time>2023-02-05T13:15:50Z</time>
      </trkpt>
      <trkpt lat="43.76763" lon="5.26486">
        <ele>254.2</ele>
        <time>2023-02-05T13:15:53Z</time>
      </trkpt>
      <trkpt lat="43.76771" lon="5.26494">
        <ele>253.6</ele>
        <time>2023-02-05T13:15:55Z</time>
      </trkpt>
      <trkpt lat="43.76776" lon="5.26497">
        <ele>253.4</ele>
        <time>2023-02-05T13:15:56Z</time>
      </trkpt>
      <trkpt lat="43.76788" lon="5.26501">
        <ele>252.4</ele>
        <time>2023-02-05T13:16:00Z</time>
      </trkpt>
      <trkpt lat="43.768" lon="5.26505">
        <ele>251.4</ele>
        <time>2023-02-05T13:16:05Z</time>
      </trkpt>
      <trkpt lat="43.76813" lon="5.26504">
        <ele>250.4</ele>
        <time>2023-02-05T13:16:10Z</time>
      </trkpt>
      <trkpt lat="43.76821" lon="5.26505">
        <ele>250.2</ele>
        <time>2023-02-05T13:16:13Z</time>
      </trkpt>
      <trkpt lat="43.76822" lon="5.26506">
        <ele>250</ele>
        <time>2023-02-05T13:16:14Z</time>
      </trkpt>
      <trkpt lat="43.76825" lon="5.2651">
        <ele>249.4</ele>
        <time>2023-02-05T13:16:18Z</time>
      </trkpt>
      <trkpt lat="43.76824" lon="5.26512">
        <ele>249.2</ele>
        <time>2023-02-05T13:16:19Z</time>
      </trkpt>
      <trkpt lat="43.76823" lon="5.26513">
        <ele>249.2</ele>
        <time>2023-02-05T13:16:20Z</time>
      </trkpt>
      <trkpt lat="43.76818" lon="5.26515">
        <ele>249</ele>
        <time>2023-02-05T13:16:21Z</time>
      </trkpt>
      <trkpt lat="43.76816" lon="5.26517">
        <ele>248.8</ele>
        <time>2023-02-05T13:16:22Z</time>
      </trkpt>
      <trkpt lat="43.76824" lon="5.26518">
        <ele>248.2</ele>
        <time>2023-02-05T13:16:23Z</time>
      </trkpt>
      <trkpt lat="43.76829" lon="5.2652">
        <ele>247.6</ele>
        <time>2023-02-05T13:16:24Z</time>
      </trkpt>
      <trkpt lat="43.76831" lon="5.26521">
        <ele>246.6</ele>
        <time>2023-02-05T13:16:27Z</time>
      </trkpt>
      <trkpt lat="43.76831" lon="5.26531">
        <ele>245.4</ele>
        <time>2023-02-05T13:16:31Z</time>
      </trkpt>
      <trkpt lat="43.76831" lon="5.26533">
        <ele>245.2</ele>
        <time>2023-02-05T13:16:32Z</time>
      </trkpt>
      <trkpt lat="43.76833" lon="5.2654">
        <ele>244.6</ele>
        <time>2023-02-05T13:16:35Z</time>
      </trkpt>
      <trkpt lat="43.76836" lon="5.2655">
        <ele>244.4</ele>
        <time>2023-02-05T13:16:38Z</time>
      </trkpt>
      <trkpt lat="43.76843" lon="5.26566">
        <ele>243.8</ele>
        <time>2023-02-05T13:16:44Z</time>
      </trkpt>
      <trkpt lat="43.76846" lon="5.26581">
        <ele>243.2</ele>
        <time>2023-02-05T13:16:48Z</time>
      </trkpt>
      <trkpt lat="43.76852" lon="5.26618">
        <ele>241.8</ele>
        <time>2023-02-05T13:16:55Z</time>
      </trkpt>
      <trkpt lat="43.76858" lon="5.26633">
        <ele>241.2</ele>
        <time>2023-02-05T13:16:58Z</time>
      </trkpt>
      <trkpt lat="43.76866" lon="5.26644">
        <ele>240.8</ele>
        <time>2023-02-05T13:17:01Z</time>
      </trkpt>
      <trkpt lat="43.76874" lon="5.26657">
        <ele>240</ele>
        <time>2023-02-05T13:17:05Z</time>
      </trkpt>
      <trkpt lat="43.76882" lon="5.26674">
        <ele>239.4</ele>
        <time>2023-02-05T13:17:10Z</time>
      </trkpt>
      <trkpt lat="43.76888" lon="5.26683">
        <ele>239.2</ele>
        <time>2023-02-05T13:17:13Z</time>
      </trkpt>
      <trkpt lat="43.7689" lon="5.26685">
        <ele>239.2</ele>
        <time>2023-02-05T13:17:14Z</time>
      </trkpt>
      <trkpt lat="43.76897" lon="5.26698">
        <ele>239</ele>
        <time>2023-02-05T13:17:19Z</time>
      </trkpt>
      <trkpt lat="43.76909" lon="5.2672">
        <ele>238.6</ele>
        <time>2023-02-05T13:17:24Z</time>
      </trkpt>
      <trkpt lat="43.76921" lon="5.26739">
        <ele>238.4</ele>
        <time>2023-02-05T13:17:29Z</time>
      </trkpt>
      <trkpt lat="43.76932" lon="5.26761">
        <ele>237.8</ele>
        <time>2023-02-05T13:17:35Z</time>
      </trkpt>
      <trkpt lat="43.76944" lon="5.26788">
        <ele>236.8</ele>
        <time>2023-02-05T13:17:42Z</time>
      </trkpt>
      <trkpt lat="43.76948" lon="5.26799">
        <ele>237</ele>
        <time>2023-02-05T13:17:45Z</time>
      </trkpt>
      <trkpt lat="43.76945" lon="5.26807">
        <ele>237</ele>
        <time>2023-02-05T13:17:47Z</time>
      </trkpt>
      <trkpt lat="43.76935" lon="5.26812">
        <ele>237</ele>
        <time>2023-02-05T13:17:50Z</time>
      </trkpt>
      <trkpt lat="43.76923" lon="5.26806">
        <ele>236.4</ele>
        <time>2023-02-05T13:17:54Z</time>
      </trkpt>
      <trkpt lat="43.76921" lon="5.26806">
        <ele>236.6</ele>
        <time>2023-02-05T13:17:55Z</time>
      </trkpt>
      <trkpt lat="43.76919" lon="5.26806">
        <ele>238.6</ele>
        <time>2023-02-05T13:17:57Z</time>
      </trkpt>
      <trkpt lat="43.7692" lon="5.26816">
        <ele>238.6</ele>
        <time>2023-02-05T13:18:01Z</time>
      </trkpt>
      <trkpt lat="43.76926" lon="5.26831">
        <ele>239.2</ele>
        <time>2023-02-05T13:18:05Z</time>
      </trkpt>
      <trkpt lat="43.7693" lon="5.26846">
        <ele>240</ele>
        <time>2023-02-05T13:18:10Z</time>
      </trkpt>
      <trkpt lat="43.76934" lon="5.26863">
        <ele>240.8</ele>
        <time>2023-02-05T13:18:15Z</time>
      </trkpt>
      <trkpt lat="43.76935" lon="5.26865">
        <ele>240.8</ele>
        <time>2023-02-05T13:18:16Z</time>
      </trkpt>
      <trkpt lat="43.76941" lon="5.26874">
        <ele>241.2</ele>
        <time>2023-02-05T13:18:20Z</time>
      </trkpt>
      <trkpt lat="43.76949" lon="5.26878">
        <ele>241.6</ele>
        <time>2023-02-05T13:18:24Z</time>
      </trkpt>
      <trkpt lat="43.76951" lon="5.26879">
        <ele>241.6</ele>
        <time>2023-02-05T13:18:25Z</time>
      </trkpt>
      <trkpt lat="43.76953" lon="5.26884">
        <ele>241.8</ele>
        <time>2023-02-05T13:18:27Z</time>
      </trkpt>
      <trkpt lat="43.76958" lon="5.26888">
        <ele>242.6</ele>
        <time>2023-02-05T13:18:30Z</time>
      </trkpt>
      <trkpt lat="43.76959" lon="5.2689">
        <ele>242.8</ele>
        <time>2023-02-05T13:18:31Z</time>
      </trkpt>
      <trkpt lat="43.76963" lon="5.26896">
        <ele>243.8</ele>
        <time>2023-02-05T13:18:35Z</time>
      </trkpt>
      <trkpt lat="43.76963" lon="5.269">
        <ele>244.2</ele>
        <time>2023-02-05T13:18:37Z</time>
      </trkpt>
      <trkpt lat="43.76965" lon="5.26906">
        <ele>244.6</ele>
        <time>2023-02-05T13:18:39Z</time>
      </trkpt>
      <trkpt lat="43.76966" lon="5.26911">
        <ele>245</ele>
        <time>2023-02-05T13:18:41Z</time>
      </trkpt>
      <trkpt lat="43.76966" lon="5.26913">
        <ele>245.2</ele>
        <time>2023-02-05T13:18:43Z</time>
      </trkpt>
      <trkpt lat="43.76966" lon="5.26913">
        <ele>247.6</ele>
        <time>2023-02-05T13:19:02Z</time>
      </trkpt>
      <trkpt lat="43.76966" lon="5.26913">
        <ele>249.8</ele>
        <time>2023-02-05T13:19:23Z</time>
      </trkpt>
      <trkpt lat="43.76966" lon="5.26913">
        <ele>251.8</ele>
        <time>2023-02-05T13:19:46Z</time>
      </trkpt>
      <trkpt lat="43.76966" lon="5.26912">
        <ele>253</ele>
        <time>2023-02-05T13:20:07Z</time>
      </trkpt>
      <trkpt lat="43.76966" lon="5.26912">
        <ele>253.8</ele>
        <time>2023-02-05T13:20:23Z</time>
      </trkpt>
      <trkpt lat="43.76966" lon="5.26912">
        <ele>254.2</ele>
        <time>2023-02-05T13:20:30Z</time>
      </trkpt>
      <trkpt lat="43.76968" lon="5.26924">
        <ele>254.2</ele>
        <time>2023-02-05T13:20:34Z</time>
      </trkpt>
      <trkpt lat="43.76976" lon="5.26943">
        <ele>254.6</ele>
        <time>2023-02-05T13:20:39Z</time>
      </trkpt>
      <trkpt lat="43.76988" lon="5.26969">
        <ele>255.4</ele>
        <time>2023-02-05T13:20:46Z</time>
      </trkpt>
      <trkpt lat="43.76999" lon="5.26988">
        <ele>256</ele>
        <time>2023-02-05T13:20:52Z</time>
      </trkpt>
      <trkpt lat="43.77012" lon="5.27014">
        <ele>256</ele>
        <time>2023-02-05T13:20:59Z</time>
      </trkpt>
      <trkpt lat="43.77027" lon="5.27032">
        <ele>256.4</ele>
        <time>2023-02-05T13:21:05Z</time>
      </trkpt>
      <trkpt lat="43.77047" lon="5.27039">
        <ele>256.6</ele>
        <time>2023-02-05T13:21:11Z</time>
      </trkpt>
      <trkpt lat="43.77064" lon="5.2704">
        <ele>257</ele>
        <time>2023-02-05T13:21:16Z</time>
      </trkpt>
      <trkpt lat="43.77086" lon="5.2704">
        <ele>257.4</ele>
        <time>2023-02-05T13:21:22Z</time>
      </trkpt>
      <trkpt lat="43.77106" lon="5.27048">
        <ele>257.8</ele>
        <time>2023-02-05T13:21:28Z</time>
      </trkpt>
      <trkpt lat="43.77127" lon="5.27053">
        <ele>258.4</ele>
        <time>2023-02-05T13:21:34Z</time>
      </trkpt>
      <trkpt lat="43.77144" lon="5.27052">
        <ele>259</ele>
        <time>2023-02-05T13:21:39Z</time>
      </trkpt>
      <trkpt lat="43.77171" lon="5.2705">
        <ele>259.8</ele>
        <time>2023-02-05T13:21:46Z</time>
      </trkpt>
      <trkpt lat="43.77193" lon="5.2705">
        <ele>261</ele>
        <time>2023-02-05T13:21:53Z</time>
      </trkpt>
      <trkpt lat="43.77215" lon="5.27052">
        <ele>262.6</ele>
        <time>2023-02-05T13:22:00Z</time>
      </trkpt>
      <trkpt lat="43.77238" lon="5.27054">
        <ele>263.4</ele>
        <time>2023-02-05T13:22:06Z</time>
      </trkpt>
      <trkpt lat="43.77259" lon="5.27059">
        <ele>264.6</ele>
        <time>2023-02-05T13:22:12Z</time>
      </trkpt>
      <trkpt lat="43.77287" lon="5.27059">
        <ele>266.2</ele>
        <time>2023-02-05T13:22:20Z</time>
      </trkpt>
      <trkpt lat="43.77307" lon="5.27059">
        <ele>267.6</ele>
        <time>2023-02-05T13:22:26Z</time>
      </trkpt>
      <trkpt lat="43.77332" lon="5.27064">
        <ele>269.8</ele>
        <time>2023-02-05T13:22:34Z</time>
      </trkpt>
      <trkpt lat="43.77366" lon="5.27073">
        <ele>272.6</ele>
        <time>2023-02-05T13:22:44Z</time>
      </trkpt>
      <trkpt lat="43.77385" lon="5.2708">
        <ele>274.2</ele>
        <time>2023-02-05T13:22:50Z</time>
      </trkpt>
      <trkpt lat="43.77397" lon="5.27085">
        <ele>275.4</ele>
        <time>2023-02-05T13:22:54Z</time>
      </trkpt>
      <trkpt lat="43.77418" lon="5.27098">
        <ele>277.8</ele>
        <time>2023-02-05T13:23:01Z</time>
      </trkpt>
      <trkpt lat="43.77443" lon="5.27106">
        <ele>281.2</ele>
        <time>2023-02-05T13:23:09Z</time>
      </trkpt>
      <trkpt lat="43.77461" lon="5.27103">
        <ele>284</ele>
        <time>2023-02-05T13:23:15Z</time>
      </trkpt>
      <trkpt lat="43.77476" lon="5.27109">
        <ele>286.6</ele>
        <time>2023-02-05T13:23:20Z</time>
      </trkpt>
      <trkpt lat="43.77491" lon="5.27115">
        <ele>289</ele>
        <time>2023-02-05T13:23:25Z</time>
      </trkpt>
      <trkpt lat="43.7751" lon="5.27121">
        <ele>292</ele>
        <time>2023-02-05T13:23:32Z</time>
      </trkpt>
      <trkpt lat="43.77518" lon="5.27115">
        <ele>293.4</ele>
        <time>2023-02-05T13:23:35Z</time>
      </trkpt>
      <trkpt lat="43.77519" lon="5.27112">
        <ele>294</ele>
        <time>2023-02-05T13:23:36Z</time>
      </trkpt>
      <trkpt lat="43.77517" lon="5.27095">
        <ele>295.8</ele>
        <time>2023-02-05T13:23:40Z</time>
      </trkpt>
      <trkpt lat="43.77512" lon="5.27071">
        <ele>298.4</ele>
        <time>2023-02-05T13:23:46Z</time>
      </trkpt>
      <trkpt lat="43.77511" lon="5.27059">
        <ele>299.8</ele>
        <time>2023-02-05T13:23:49Z</time>
      </trkpt>
      <trkpt lat="43.77514" lon="5.27052">
        <ele>300.8</ele>
        <time>2023-02-05T13:23:51Z</time>
      </trkpt>
      <trkpt lat="43.77524" lon="5.27038">
        <ele>303.2</ele>
        <time>2023-02-05T13:23:56Z</time>
      </trkpt>
      <trkpt lat="43.77537" lon="5.2701">
        <ele>306.8</ele>
        <time>2023-02-05T13:24:04Z</time>
      </trkpt>
      <trkpt lat="43.77553" lon="5.26987">
        <ele>310.4</ele>
        <time>2023-02-05T13:24:12Z</time>
      </trkpt>
      <trkpt lat="43.77562" lon="5.2696">
        <ele>313.2</ele>
        <time>2023-02-05T13:24:19Z</time>
      </trkpt>
      <trkpt lat="43.77575" lon="5.26932">
        <ele>316.4</ele>
        <time>2023-02-05T13:24:27Z</time>
      </trkpt>
      <trkpt lat="43.77586" lon="5.26907">
        <ele>319.2</ele>
        <time>2023-02-05T13:24:34Z</time>
      </trkpt>
      <trkpt lat="43.77598" lon="5.26896">
        <ele>321.2</ele>
        <time>2023-02-05T13:24:39Z</time>
      </trkpt>
      <trkpt lat="43.77615" lon="5.26889">
        <ele>323.8</ele>
        <time>2023-02-05T13:24:45Z</time>
      </trkpt>
      <trkpt lat="43.77633" lon="5.2689">
        <ele>326.8</ele>
        <time>2023-02-05T13:24:52Z</time>
      </trkpt>
      <trkpt lat="43.77638" lon="5.26893">
        <ele>327.6</ele>
        <time>2023-02-05T13:24:54Z</time>
      </trkpt>
      <trkpt lat="43.77643" lon="5.26895">
        <ele>328.4</ele>
        <time>2023-02-05T13:24:56Z</time>
      </trkpt>
      <trkpt lat="43.77656" lon="5.26902">
        <ele>330.4</ele>
        <time>2023-02-05T13:25:01Z</time>
      </trkpt>
      <trkpt lat="43.77674" lon="5.2691">
        <ele>333.2</ele>
        <time>2023-02-05T13:25:08Z</time>
      </trkpt>
      <trkpt lat="43.77695" lon="5.26916">
        <ele>336.4</ele>
        <time>2023-02-05T13:25:16Z</time>
      </trkpt>
      <trkpt lat="43.77707" lon="5.26921">
        <ele>338.4</ele>
        <time>2023-02-05T13:25:21Z</time>
      </trkpt>
      <trkpt lat="43.77725" lon="5.26922">
        <ele>340.6</ele>
        <time>2023-02-05T13:25:27Z</time>
      </trkpt>
      <trkpt lat="43.77737" lon="5.2691">
        <ele>342.4</ele>
        <time>2023-02-05T13:25:32Z</time>
      </trkpt>
      <trkpt lat="43.77738" lon="5.26885">
        <ele>344.2</ele>
        <time>2023-02-05T13:25:37Z</time>
      </trkpt>
      <trkpt lat="43.77734" lon="5.26852">
        <ele>346.8</ele>
        <time>2023-02-05T13:25:45Z</time>
      </trkpt>
      <trkpt lat="43.77729" lon="5.26826">
        <ele>349.4</ele>
        <time>2023-02-05T13:25:52Z</time>
      </trkpt>
      <trkpt lat="43.77721" lon="5.26793">
        <ele>352.4</ele>
        <time>2023-02-05T13:26:01Z</time>
      </trkpt>
      <trkpt lat="43.7771" lon="5.26763">
        <ele>354.6</ele>
        <time>2023-02-05T13:26:08Z</time>
      </trkpt>
      <trkpt lat="43.777" lon="5.26726">
        <ele>356.6</ele>
        <time>2023-02-05T13:26:15Z</time>
      </trkpt>
      <trkpt lat="43.77691" lon="5.26682">
        <ele>358.6</ele>
        <time>2023-02-05T13:26:23Z</time>
      </trkpt>
      <trkpt lat="43.77687" lon="5.2665">
        <ele>359.8</ele>
        <time>2023-02-05T13:26:29Z</time>
      </trkpt>
      <trkpt lat="43.77685" lon="5.26635">
        <ele>360.8</ele>
        <time>2023-02-05T13:26:33Z</time>
      </trkpt>
      <trkpt lat="43.77684" lon="5.26626">
        <ele>361.8</ele>
        <time>2023-02-05T13:26:38Z</time>
      </trkpt>
      <trkpt lat="43.77685" lon="5.26627">
        <ele>363.6</ele>
        <time>2023-02-05T13:26:48Z</time>
      </trkpt>
      <trkpt lat="43.77685" lon="5.26627">
        <ele>366.4</ele>
        <time>2023-02-05T13:27:05Z</time>
      </trkpt>
      <trkpt lat="43.77685" lon="5.26627">
        <ele>369</ele>
        <time>2023-02-05T13:27:25Z</time>
      </trkpt>
      <trkpt lat="43.77685" lon="5.26627">
        <ele>370.4</ele>
        <time>2023-02-05T13:27:38Z</time>
      </trkpt>
      <trkpt lat="43.77685" lon="5.26627">
        <ele>370.6</ele>
        <time>2023-02-05T13:27:41Z</time>
      </trkpt>
      <trkpt lat="43.77684" lon="5.26628">
        <ele>370.8</ele>
        <time>2023-02-05T13:27:42Z</time>
      </trkpt>
      <trkpt lat="43.77681" lon="5.26628">
        <ele>371</ele>
        <time>2023-02-05T13:27:45Z</time>
      </trkpt>
      <trkpt lat="43.77677" lon="5.26628">
        <ele>371</ele>
        <time>2023-02-05T13:27:46Z</time>
      </trkpt>
      <trkpt lat="43.77672" lon="5.26629">
        <ele>371.2</ele>
        <time>2023-02-05T13:27:47Z</time>
      </trkpt>
      <trkpt lat="43.77663" lon="5.26636">
        <ele>371.2</ele>
        <time>2023-02-05T13:27:49Z</time>
      </trkpt>
      <trkpt lat="43.77654" lon="5.26646">
        <ele>371.2</ele>
        <time>2023-02-05T13:27:51Z</time>
      </trkpt>
      <trkpt lat="43.77644" lon="5.2665">
        <ele>371.2</ele>
        <time>2023-02-05T13:27:53Z</time>
      </trkpt>
      <trkpt lat="43.77627" lon="5.26645">
        <ele>371</ele>
        <time>2023-02-05T13:27:57Z</time>
      </trkpt>
      <trkpt lat="43.77618" lon="5.26639">
        <ele>370.8</ele>
        <time>2023-02-05T13:28:02Z</time>
      </trkpt>
      <trkpt lat="43.77611" lon="5.26637">
        <ele>371.4</ele>
        <time>2023-02-05T13:28:06Z</time>
      </trkpt>
      <trkpt lat="43.77609" lon="5.26637">
        <ele>371</ele>
        <time>2023-02-05T13:28:07Z</time>
      </trkpt>
      <trkpt lat="43.77595" lon="5.26632">
        <ele>370.4</ele>
        <time>2023-02-05T13:28:12Z</time>
      </trkpt>
      <trkpt lat="43.77587" lon="5.2663">
        <ele>370.4</ele>
        <time>2023-02-05T13:28:16Z</time>
      </trkpt>
      <trkpt lat="43.77585" lon="5.26629">
        <ele>370.4</ele>
        <time>2023-02-05T13:28:17Z</time>
      </trkpt>
      <trkpt lat="43.77573" lon="5.26628">
        <ele>370.6</ele>
        <time>2023-02-05T13:28:22Z</time>
      </trkpt>
      <trkpt lat="43.77562" lon="5.26633">
        <ele>370.2</ele>
        <time>2023-02-05T13:28:28Z</time>
      </trkpt>
      <trkpt lat="43.77554" lon="5.26634">
        <ele>370.8</ele>
        <time>2023-02-05T13:28:32Z</time>
      </trkpt>
      <trkpt lat="43.7754" lon="5.26636">
        <ele>370.2</ele>
        <time>2023-02-05T13:28:38Z</time>
      </trkpt>
      <trkpt lat="43.77529" lon="5.26635">
        <ele>370.8</ele>
        <time>2023-02-05T13:28:43Z</time>
      </trkpt>
      <trkpt lat="43.77527" lon="5.26634">
        <ele>370.8</ele>
        <time>2023-02-05T13:28:44Z</time>
      </trkpt>
      <trkpt lat="43.77519" lon="5.26627">
        <ele>371.2</ele>
        <time>2023-02-05T13:28:47Z</time>
      </trkpt>
      <trkpt lat="43.77514" lon="5.26623">
        <ele>371</ele>
        <time>2023-02-05T13:28:49Z</time>
      </trkpt>
      <trkpt lat="43.7751" lon="5.26621">
        <ele>371</ele>
        <time>2023-02-05T13:28:50Z</time>
      </trkpt>
      <trkpt lat="43.77502" lon="5.26612">
        <ele>371</ele>
        <time>2023-02-05T13:28:53Z</time>
      </trkpt>
      <trkpt lat="43.77498" lon="5.2661">
        <ele>370.8</ele>
        <time>2023-02-05T13:28:54Z</time>
      </trkpt>
      <trkpt lat="43.77495" lon="5.26609">
        <ele>371.2</ele>
        <time>2023-02-05T13:28:55Z</time>
      </trkpt>
      <trkpt lat="43.7749" lon="5.266">
        <ele>370.4</ele>
        <time>2023-02-05T13:28:57Z</time>
      </trkpt>
      <trkpt lat="43.77486" lon="5.26592">
        <ele>370.2</ele>
        <time>2023-02-05T13:28:59Z</time>
      </trkpt>
      <trkpt lat="43.77482" lon="5.26592">
        <ele>370.2</ele>
        <time>2023-02-05T13:29:00Z</time>
      </trkpt>
      <trkpt lat="43.77473" lon="5.26593">
        <ele>369.8</ele>
        <time>2023-02-05T13:29:04Z</time>
      </trkpt>
      <trkpt lat="43.77473" lon="5.26594">
        <ele>369.6</ele>
        <time>2023-02-05T13:29:10Z</time>
      </trkpt>
      <trkpt lat="43.77472" lon="5.26593">
        <ele>369.4</ele>
        <time>2023-02-05T13:29:11Z</time>
      </trkpt>
      <trkpt lat="43.77464" lon="5.26586">
        <ele>369.6</ele>
        <time>2023-02-05T13:29:15Z</time>
      </trkpt>
      <trkpt lat="43.77462" lon="5.26584">
        <ele>369.6</ele>
        <time>2023-02-05T13:29:16Z</time>
      </trkpt>
      <trkpt lat="43.77461" lon="5.26581">
        <ele>369.6</ele>
        <time>2023-02-05T13:29:17Z</time>
      </trkpt>
      <trkpt lat="43.77458" lon="5.26579">
        <ele>369.8</ele>
        <time>2023-02-05T13:29:19Z</time>
      </trkpt>
      <trkpt lat="43.77447" lon="5.26571">
        <ele>369.8</ele>
        <time>2023-02-05T13:29:24Z</time>
      </trkpt>
      <trkpt lat="43.77445" lon="5.26569">
        <ele>370.2</ele>
        <time>2023-02-05T13:29:25Z</time>
      </trkpt>
      <trkpt lat="43.77438" lon="5.26565">
        <ele>370.2</ele>
        <time>2023-02-05T13:29:28Z</time>
      </trkpt>
      <trkpt lat="43.77437" lon="5.26563">
        <ele>370.2</ele>
        <time>2023-02-05T13:29:29Z</time>
      </trkpt>
      <trkpt lat="43.77434" lon="5.26556">
        <ele>370.4</ele>
        <time>2023-02-05T13:29:32Z</time>
      </trkpt>
      <trkpt lat="43.77428" lon="5.26547">
        <ele>370.8</ele>
        <time>2023-02-05T13:29:36Z</time>
      </trkpt>
      <trkpt lat="43.77425" lon="5.26545">
        <ele>371</ele>
        <time>2023-02-05T13:29:38Z</time>
      </trkpt>
      <trkpt lat="43.77424" lon="5.26542">
        <ele>371.2</ele>
        <time>2023-02-05T13:29:40Z</time>
      </trkpt>
      <trkpt lat="43.77422" lon="5.2654">
        <ele>371.4</ele>
        <time>2023-02-05T13:29:42Z</time>
      </trkpt>
      <trkpt lat="43.77418" lon="5.26532">
        <ele>372</ele>
        <time>2023-02-05T13:29:46Z</time>
      </trkpt>
      <trkpt lat="43.77408" lon="5.26527">
        <ele>372.6</ele>
        <time>2023-02-05T13:29:52Z</time>
      </trkpt>
      <trkpt lat="43.77405" lon="5.26521">
        <ele>373</ele>
        <time>2023-02-05T13:29:56Z</time>
      </trkpt>
      <trkpt lat="43.77405" lon="5.26519">
        <ele>373.4</ele>
        <time>2023-02-05T13:30:02Z</time>
      </trkpt>
      <trkpt lat="43.77403" lon="5.26516">
        <ele>373.8</ele>
        <time>2023-02-05T13:30:07Z</time>
      </trkpt>
      <trkpt lat="43.77402" lon="5.26515">
        <ele>374.4</ele>
        <time>2023-02-05T13:30:12Z</time>
      </trkpt>
      <trkpt lat="43.774" lon="5.26513">
        <ele>374.8</ele>
        <time>2023-02-05T13:30:16Z</time>
      </trkpt>
      <trkpt lat="43.77399" lon="5.26511">
        <ele>375</ele>
        <time>2023-02-05T13:30:17Z</time>
      </trkpt>
      <trkpt lat="43.77396" lon="5.26508">
        <ele>375.6</ele>
        <time>2023-02-05T13:30:20Z</time>
      </trkpt>
      <trkpt lat="43.77395" lon="5.26507">
        <ele>375.6</ele>
        <time>2023-02-05T13:30:21Z</time>
      </trkpt>
      <trkpt lat="43.77394" lon="5.26505">
        <ele>376</ele>
        <time>2023-02-05T13:30:23Z</time>
      </trkpt>
      <trkpt lat="43.77393" lon="5.26501">
        <ele>376.4</ele>
        <time>2023-02-05T13:30:26Z</time>
      </trkpt>
      <trkpt lat="43.77392" lon="5.265">
        <ele>376.8</ele>
        <time>2023-02-05T13:30:27Z</time>
      </trkpt>
      <trkpt lat="43.7739" lon="5.26497">
        <ele>377</ele>
        <time>2023-02-05T13:30:29Z</time>
      </trkpt>
      <trkpt lat="43.77388" lon="5.26496">
        <ele>377.2</ele>
        <time>2023-02-05T13:30:30Z</time>
      </trkpt>
      <trkpt lat="43.77384" lon="5.26492">
        <ele>377.6</ele>
        <time>2023-02-05T13:30:33Z</time>
      </trkpt>
      <trkpt lat="43.77381" lon="5.26489">
        <ele>378</ele>
        <time>2023-02-05T13:30:35Z</time>
      </trkpt>
      <trkpt lat="43.77372" lon="5.26484">
        <ele>378.8</ele>
        <time>2023-02-05T13:30:40Z</time>
      </trkpt>
      <trkpt lat="43.77369" lon="5.26482">
        <ele>379.2</ele>
        <time>2023-02-05T13:30:42Z</time>
      </trkpt>
      <trkpt lat="43.77364" lon="5.26479">
        <ele>379.4</ele>
        <time>2023-02-05T13:30:44Z</time>
      </trkpt>
      <trkpt lat="43.77353" lon="5.2647">
        <ele>380.2</ele>
        <time>2023-02-05T13:30:49Z</time>
      </trkpt>
      <trkpt lat="43.77344" lon="5.26468">
        <ele>380.4</ele>
        <time>2023-02-05T13:30:52Z</time>
      </trkpt>
      <trkpt lat="43.77343" lon="5.26468">
        <ele>380.6</ele>
        <time>2023-02-05T13:30:53Z</time>
      </trkpt>
      <trkpt lat="43.77335" lon="5.26463">
        <ele>380.8</ele>
        <time>2023-02-05T13:30:57Z</time>
      </trkpt>
      <trkpt lat="43.77328" lon="5.26459">
        <ele>381.2</ele>
        <time>2023-02-05T13:31:00Z</time>
      </trkpt>
      <trkpt lat="43.77322" lon="5.26457">
        <ele>381.2</ele>
        <time>2023-02-05T13:31:02Z</time>
      </trkpt>
      <trkpt lat="43.77318" lon="5.26453">
        <ele>381.6</ele>
        <time>2023-02-05T13:31:05Z</time>
      </trkpt>
      <trkpt lat="43.77314" lon="5.26448">
        <ele>381.6</ele>
        <time>2023-02-05T13:31:07Z</time>
      </trkpt>
      <trkpt lat="43.77311" lon="5.26444">
        <ele>382</ele>
        <time>2023-02-05T13:31:09Z</time>
      </trkpt>
      <trkpt lat="43.77305" lon="5.26446">
        <ele>382.2</ele>
        <time>2023-02-05T13:31:12Z</time>
      </trkpt>
      <trkpt lat="43.77297" lon="5.26443">
        <ele>382.4</ele>
        <time>2023-02-05T13:31:15Z</time>
      </trkpt>
      <trkpt lat="43.77294" lon="5.26442">
        <ele>382.6</ele>
        <time>2023-02-05T13:31:16Z</time>
      </trkpt>
      <trkpt lat="43.77284" lon="5.26441">
        <ele>382.6</ele>
        <time>2023-02-05T13:31:19Z</time>
      </trkpt>
      <trkpt lat="43.77282" lon="5.26439">
        <ele>382.6</ele>
        <time>2023-02-05T13:31:20Z</time>
      </trkpt>
      <trkpt lat="43.77281" lon="5.26438">
        <ele>382.6</ele>
        <time>2023-02-05T13:31:21Z</time>
      </trkpt>
      <trkpt lat="43.77278" lon="5.26441">
        <ele>382.8</ele>
        <time>2023-02-05T13:31:23Z</time>
      </trkpt>
      <trkpt lat="43.77276" lon="5.26443">
        <ele>382.8</ele>
        <time>2023-02-05T13:31:24Z</time>
      </trkpt>
      <trkpt lat="43.77271" lon="5.26443">
        <ele>382.8</ele>
        <time>2023-02-05T13:31:27Z</time>
      </trkpt>
      <trkpt lat="43.77271" lon="5.26443">
        <ele>383.4</ele>
        <time>2023-02-05T13:31:34Z</time>
      </trkpt>
      <trkpt lat="43.77271" lon="5.26443">
        <ele>384</ele>
        <time>2023-02-05T13:31:51Z</time>
      </trkpt>
      <trkpt lat="43.77271" lon="5.26443">
        <ele>384.4</ele>
        <time>2023-02-05T13:32:02Z</time>
      </trkpt>
      <trkpt lat="43.77268" lon="5.26443">
        <ele>384.6</ele>
        <time>2023-02-05T13:32:09Z</time>
      </trkpt>
      <trkpt lat="43.77259" lon="5.26435">
        <ele>384.6</ele>
        <time>2023-02-05T13:32:12Z</time>
      </trkpt>
      <trkpt lat="43.77253" lon="5.26434">
        <ele>384.4</ele>
        <time>2023-02-05T13:32:14Z</time>
      </trkpt>
      <trkpt lat="43.77252" lon="5.26437">
        <ele>384.4</ele>
        <time>2023-02-05T13:32:15Z</time>
      </trkpt>
      <trkpt lat="43.77247" lon="5.26441">
        <ele>384.6</ele>
        <time>2023-02-05T13:32:17Z</time>
      </trkpt>
      <trkpt lat="43.77245" lon="5.2644">
        <ele>384.2</ele>
        <time>2023-02-05T13:32:18Z</time>
      </trkpt>
      <trkpt lat="43.77241" lon="5.26433">
        <ele>384</ele>
        <time>2023-02-05T13:32:20Z</time>
      </trkpt>
      <trkpt lat="43.77239" lon="5.26432">
        <ele>384</ele>
        <time>2023-02-05T13:32:21Z</time>
      </trkpt>
      <trkpt lat="43.77232" lon="5.26432">
        <ele>383.6</ele>
        <time>2023-02-05T13:32:23Z</time>
      </trkpt>
      <trkpt lat="43.77228" lon="5.26434">
        <ele>383.6</ele>
        <time>2023-02-05T13:32:24Z</time>
      </trkpt>
      <trkpt lat="43.77223" lon="5.26433">
        <ele>383.4</ele>
        <time>2023-02-05T13:32:25Z</time>
      </trkpt>
      <trkpt lat="43.77214" lon="5.26428">
        <ele>383</ele>
        <time>2023-02-05T13:32:27Z</time>
      </trkpt>
      <trkpt lat="43.77206" lon="5.26421">
        <ele>382.6</ele>
        <time>2023-02-05T13:32:29Z</time>
      </trkpt>
      <trkpt lat="43.77201" lon="5.26418">
        <ele>382</ele>
        <time>2023-02-05T13:32:31Z</time>
      </trkpt>
      <trkpt lat="43.77198" lon="5.26406">
        <ele>380.8</ele>
        <time>2023-02-05T13:32:35Z</time>
      </trkpt>
      <trkpt lat="43.77196" lon="5.26403">
        <ele>380.6</ele>
        <time>2023-02-05T13:32:36Z</time>
      </trkpt>
      <trkpt lat="43.77189" lon="5.26395">
        <ele>379.4</ele>
        <time>2023-02-05T13:32:39Z</time>
      </trkpt>
      <trkpt lat="43.77186" lon="5.26391">
        <ele>378.6</ele>
        <time>2023-02-05T13:32:41Z</time>
      </trkpt>
      <trkpt lat="43.77184" lon="5.26385">
        <ele>378</ele>
        <time>2023-02-05T13:32:43Z</time>
      </trkpt>
      <trkpt lat="43.77175" lon="5.26376">
        <ele>377</ele>
        <time>2023-02-05T13:32:46Z</time>
      </trkpt>
      <trkpt lat="43.77167" lon="5.26375">
        <ele>376.2</ele>
        <time>2023-02-05T13:32:48Z</time>
      </trkpt>
      <trkpt lat="43.77164" lon="5.26373">
        <ele>375.8</ele>
        <time>2023-02-05T13:32:49Z</time>
      </trkpt>
      <trkpt lat="43.7716" lon="5.26372">
        <ele>375.4</ele>
        <time>2023-02-05T13:32:50Z</time>
      </trkpt>
      <trkpt lat="43.7715" lon="5.26371">
        <ele>374.4</ele>
        <time>2023-02-05T13:32:52Z</time>
      </trkpt>
      <trkpt lat="43.77133" lon="5.26364">
        <ele>372.6</ele>
        <time>2023-02-05T13:32:56Z</time>
      </trkpt>
      <trkpt lat="43.77127" lon="5.2636">
        <ele>371.4</ele>
        <time>2023-02-05T13:32:58Z</time>
      </trkpt>
      <trkpt lat="43.77125" lon="5.26362">
        <ele>371</ele>
        <time>2023-02-05T13:32:59Z</time>
      </trkpt>
      <trkpt lat="43.77121" lon="5.26365">
        <ele>370.4</ele>
        <time>2023-02-05T13:33:00Z</time>
      </trkpt>
      <trkpt lat="43.77115" lon="5.2637">
        <ele>369.2</ele>
        <time>2023-02-05T13:33:02Z</time>
      </trkpt>
      <trkpt lat="43.77109" lon="5.26372">
        <ele>368.2</ele>
        <time>2023-02-05T13:33:04Z</time>
      </trkpt>
      <trkpt lat="43.77106" lon="5.26372">
        <ele>367.4</ele>
        <time>2023-02-05T13:33:05Z</time>
      </trkpt>
      <trkpt lat="43.77103" lon="5.26371">
        <ele>366.8</ele>
        <time>2023-02-05T13:33:06Z</time>
      </trkpt>
      <trkpt lat="43.77099" lon="5.26364">
        <ele>365.6</ele>
        <time>2023-02-05T13:33:08Z</time>
      </trkpt>
      <trkpt lat="43.77091" lon="5.26362">
        <ele>364.4</ele>
        <time>2023-02-05T13:33:10Z</time>
      </trkpt>
      <trkpt lat="43.77087" lon="5.2636">
        <ele>363.6</ele>
        <time>2023-02-05T13:33:11Z</time>
      </trkpt>
      <trkpt lat="43.77077" lon="5.26356">
        <ele>361.6</ele>
        <time>2023-02-05T13:33:14Z</time>
      </trkpt>
      <trkpt lat="43.77072" lon="5.26353">
        <ele>360.4</ele>
        <time>2023-02-05T13:33:16Z</time>
      </trkpt>
      <trkpt lat="43.77071" lon="5.26351">
        <ele>359.6</ele>
        <time>2023-02-05T13:33:17Z</time>
      </trkpt>
      <trkpt lat="43.77067" lon="5.26342">
        <ele>357.8</ele>
        <time>2023-02-05T13:33:20Z</time>
      </trkpt>
      <trkpt lat="43.77057" lon="5.26332">
        <ele>355.4</ele>
        <time>2023-02-05T13:33:24Z</time>
      </trkpt>
      <trkpt lat="43.77049" lon="5.26327">
        <ele>353.8</ele>
        <time>2023-02-05T13:33:27Z</time>
      </trkpt>
      <trkpt lat="43.77046" lon="5.26322">
        <ele>352.6</ele>
        <time>2023-02-05T13:33:29Z</time>
      </trkpt>
      <trkpt lat="43.77043" lon="5.26321">
        <ele>352</ele>
        <time>2023-02-05T13:33:30Z</time>
      </trkpt>
      <trkpt lat="43.77041" lon="5.26319">
        <ele>351.4</ele>
        <time>2023-02-05T13:33:31Z</time>
      </trkpt>
      <trkpt lat="43.77034" lon="5.26317">
        <ele>350.2</ele>
        <time>2023-02-05T13:33:33Z</time>
      </trkpt>
      <trkpt lat="43.77027" lon="5.26314">
        <ele>349</ele>
        <time>2023-02-05T13:33:35Z</time>
      </trkpt>
      <trkpt lat="43.77019" lon="5.26314">
        <ele>347.8</ele>
        <time>2023-02-05T13:33:37Z</time>
      </trkpt>
      <trkpt lat="43.77012" lon="5.26306">
        <ele>345.8</ele>
        <time>2023-02-05T13:33:40Z</time>
      </trkpt>
      <trkpt lat="43.77005" lon="5.26306">
        <ele>344.6</ele>
        <time>2023-02-05T13:33:42Z</time>
      </trkpt>
      <trkpt lat="43.77004" lon="5.26305">
        <ele>344</ele>
        <time>2023-02-05T13:33:43Z</time>
      </trkpt>
      <trkpt lat="43.77002" lon="5.26301">
        <ele>342.8</ele>
        <time>2023-02-05T13:33:45Z</time>
      </trkpt>
      <trkpt lat="43.76996" lon="5.26294">
        <ele>341.4</ele>
        <time>2023-02-05T13:33:47Z</time>
      </trkpt>
      <trkpt lat="43.76991" lon="5.26286">
        <ele>340.2</ele>
        <time>2023-02-05T13:33:49Z</time>
      </trkpt>
      <trkpt lat="43.76989" lon="5.26285">
        <ele>339.6</ele>
        <time>2023-02-05T13:33:50Z</time>
      </trkpt>
      <trkpt lat="43.76986" lon="5.26282">
        <ele>339</ele>
        <time>2023-02-05T13:33:51Z</time>
      </trkpt>
      <trkpt lat="43.76982" lon="5.26273">
        <ele>337.8</ele>
        <time>2023-02-05T13:33:53Z</time>
      </trkpt>
      <trkpt lat="43.76981" lon="5.26269">
        <ele>337</ele>
        <time>2023-02-05T13:33:54Z</time>
      </trkpt>
      <trkpt lat="43.76974" lon="5.26262">
        <ele>336</ele>
        <time>2023-02-05T13:33:56Z</time>
      </trkpt>
      <trkpt lat="43.7696" lon="5.26253">
        <ele>334</ele>
        <time>2023-02-05T13:33:59Z</time>
      </trkpt>
      <trkpt lat="43.76953" lon="5.26247">
        <ele>332.6</ele>
        <time>2023-02-05T13:34:01Z</time>
      </trkpt>
      <trkpt lat="43.7695" lon="5.26243">
        <ele>332</ele>
        <time>2023-02-05T13:34:02Z</time>
      </trkpt>
      <trkpt lat="43.76946" lon="5.26239">
        <ele>330.6</ele>
        <time>2023-02-05T13:34:04Z</time>
      </trkpt>
      <trkpt lat="43.76943" lon="5.26239">
        <ele>330</ele>
        <time>2023-02-05T13:34:05Z</time>
      </trkpt>
      <trkpt lat="43.7694" lon="5.26239">
        <ele>329.4</ele>
        <time>2023-02-05T13:34:06Z</time>
      </trkpt>
      <trkpt lat="43.76935" lon="5.26232">
        <ele>328.2</ele>
        <time>2023-02-05T13:34:08Z</time>
      </trkpt>
      <trkpt lat="43.76932" lon="5.26227">
        <ele>327.4</ele>
        <time>2023-02-05T13:34:09Z</time>
      </trkpt>
      <trkpt lat="43.76926" lon="5.26222">
        <ele>325.8</ele>
        <time>2023-02-05T13:34:11Z</time>
      </trkpt>
      <trkpt lat="43.76918" lon="5.26217">
        <ele>323.2</ele>
        <time>2023-02-05T13:34:14Z</time>
      </trkpt>
      <trkpt lat="43.76914" lon="5.26214">
        <ele>322.4</ele>
        <time>2023-02-05T13:34:15Z</time>
      </trkpt>
      <trkpt lat="43.7691" lon="5.26211">
        <ele>321.6</ele>
        <time>2023-02-05T13:34:16Z</time>
      </trkpt>
      <trkpt lat="43.76901" lon="5.262">
        <ele>318.8</ele>
        <time>2023-02-05T13:34:19Z</time>
      </trkpt>
      <trkpt lat="43.76898" lon="5.26197">
        <ele>318</ele>
        <time>2023-02-05T13:34:20Z</time>
      </trkpt>
      <trkpt lat="43.76897" lon="5.26193">
        <ele>316.2</ele>
        <time>2023-02-05T13:34:22Z</time>
      </trkpt>
      <trkpt lat="43.76898" lon="5.26191">
        <ele>312.6</ele>
        <time>2023-02-05T13:34:28Z</time>
      </trkpt>
      <trkpt lat="43.76898" lon="5.26191">
        <ele>309.4</ele>
        <time>2023-02-05T13:34:34Z</time>
      </trkpt>
      <trkpt lat="43.76899" lon="5.2619">
        <ele>308.8</ele>
        <time>2023-02-05T13:34:35Z</time>
      </trkpt>
      <trkpt lat="43.76908" lon="5.2619">
        <ele>306.4</ele>
        <time>2023-02-05T13:34:40Z</time>
      </trkpt>
      <trkpt lat="43.76915" lon="5.26193">
        <ele>304.8</ele>
        <time>2023-02-05T13:34:44Z</time>
      </trkpt>
      <trkpt lat="43.7692" lon="5.26195">
        <ele>304</ele>
        <time>2023-02-05T13:34:46Z</time>
      </trkpt>
      <trkpt lat="43.76928" lon="5.26197">
        <ele>302.6</ele>
        <time>2023-02-05T13:34:51Z</time>
      </trkpt>
      <trkpt lat="43.76931" lon="5.26197">
        <ele>302</ele>
        <time>2023-02-05T13:34:53Z</time>
      </trkpt>
      <trkpt lat="43.76936" lon="5.26198">
        <ele>301.8</ele>
        <time>2023-02-05T13:34:55Z</time>
      </trkpt>
      <trkpt lat="43.76938" lon="5.26199">
        <ele>301.6</ele>
        <time>2023-02-05T13:34:56Z</time>
      </trkpt>
      <trkpt lat="43.76942" lon="5.26203">
        <ele>301.6</ele>
        <time>2023-02-05T13:34:58Z</time>
      </trkpt>
      <trkpt lat="43.76951" lon="5.26207">
        <ele>301.2</ele>
        <time>2023-02-05T13:35:01Z</time>
      </trkpt>
      <trkpt lat="43.7696" lon="5.26211">
        <ele>300.6</ele>
        <time>2023-02-05T13:35:04Z</time>
      </trkpt>
      <trkpt lat="43.76966" lon="5.26213">
        <ele>300.2</ele>
        <time>2023-02-05T13:35:06Z</time>
      </trkpt>
      <trkpt lat="43.76974" lon="5.26216">
        <ele>299.8</ele>
        <time>2023-02-05T13:35:09Z</time>
      </trkpt>
      <trkpt lat="43.76977" lon="5.26216">
        <ele>299.4</ele>
        <time>2023-02-05T13:35:10Z</time>
      </trkpt>
      <trkpt lat="43.7699" lon="5.26219">
        <ele>298.8</ele>
        <time>2023-02-05T13:35:14Z</time>
      </trkpt>
      <trkpt lat="43.76997" lon="5.2622">
        <ele>298.4</ele>
        <time>2023-02-05T13:35:16Z</time>
      </trkpt>
      <trkpt lat="43.77002" lon="5.2622">
        <ele>298.2</ele>
        <time>2023-02-05T13:35:18Z</time>
      </trkpt>
      <trkpt lat="43.77013" lon="5.26222">
        <ele>297.6</ele>
        <time>2023-02-05T13:35:22Z</time>
      </trkpt>
      <trkpt lat="43.77028" lon="5.26216">
        <ele>296.4</ele>
        <time>2023-02-05T13:35:27Z</time>
      </trkpt>
      <trkpt lat="43.7703" lon="5.26213">
        <ele>296.4</ele>
        <time>2023-02-05T13:35:28Z</time>
      </trkpt>
      <trkpt lat="43.77029" lon="5.26204">
        <ele>296</ele>
        <time>2023-02-05T13:35:31Z</time>
      </trkpt>
      <trkpt lat="43.77028" lon="5.26196">
        <ele>295.6</ele>
        <time>2023-02-05T13:35:34Z</time>
      </trkpt>
      <trkpt lat="43.77026" lon="5.26191">
        <ele>295.6</ele>
        <time>2023-02-05T13:35:36Z</time>
      </trkpt>
      <trkpt lat="43.77025" lon="5.26188">
        <ele>295.4</ele>
        <time>2023-02-05T13:35:37Z</time>
      </trkpt>
      <trkpt lat="43.77024" lon="5.2618">
        <ele>295.4</ele>
        <time>2023-02-05T13:35:41Z</time>
      </trkpt>
      <trkpt lat="43.77022" lon="5.26176">
        <ele>295.6</ele>
        <time>2023-02-05T13:35:44Z</time>
      </trkpt>
      <trkpt lat="43.77019" lon="5.26173">
        <ele>295.8</ele>
        <time>2023-02-05T13:35:46Z</time>
      </trkpt>
      <trkpt lat="43.77011" lon="5.26162">
        <ele>295</ele>
        <time>2023-02-05T13:35:51Z</time>
      </trkpt>
      <trkpt lat="43.7701" lon="5.2616">
        <ele>295.4</ele>
        <time>2023-02-05T13:35:52Z</time>
      </trkpt>
      <trkpt lat="43.77005" lon="5.26155">
        <ele>296.6</ele>
        <time>2023-02-05T13:35:55Z</time>
      </trkpt>
      <trkpt lat="43.76996" lon="5.26145">
        <ele>296.8</ele>
        <time>2023-02-05T13:35:59Z</time>
      </trkpt>
      <trkpt lat="43.7699" lon="5.26139">
        <ele>296.8</ele>
        <time>2023-02-05T13:36:02Z</time>
      </trkpt>
      <trkpt lat="43.76987" lon="5.2613">
        <ele>296.6</ele>
        <time>2023-02-05T13:36:05Z</time>
      </trkpt>
      <trkpt lat="43.76987" lon="5.26128">
        <ele>296.6</ele>
        <time>2023-02-05T13:36:06Z</time>
      </trkpt>
      <trkpt lat="43.76988" lon="5.26116">
        <ele>297</ele>
        <time>2023-02-05T13:36:11Z</time>
      </trkpt>
      <trkpt lat="43.76986" lon="5.26098">
        <ele>297.8</ele>
        <time>2023-02-05T13:36:18Z</time>
      </trkpt>
      <trkpt lat="43.76984" lon="5.26091">
        <ele>298</ele>
        <time>2023-02-05T13:36:20Z</time>
      </trkpt>
      <trkpt lat="43.76986" lon="5.26085">
        <ele>298.2</ele>
        <time>2023-02-05T13:36:22Z</time>
      </trkpt>
      <trkpt lat="43.76988" lon="5.26081">
        <ele>298.4</ele>
        <time>2023-02-05T13:36:24Z</time>
      </trkpt>
      <trkpt lat="43.7699" lon="5.26073">
        <ele>299</ele>
        <time>2023-02-05T13:36:27Z</time>
      </trkpt>
      <trkpt lat="43.7699" lon="5.2607">
        <ele>299</ele>
        <time>2023-02-05T13:36:28Z</time>
      </trkpt>
      <trkpt lat="43.76989" lon="5.26057">
        <ele>299.2</ele>
        <time>2023-02-05T13:36:31Z</time>
      </trkpt>
      <trkpt lat="43.76993" lon="5.26047">
        <ele>299.4</ele>
        <time>2023-02-05T13:36:35Z</time>
      </trkpt>
      <trkpt lat="43.76993" lon="5.26042">
        <ele>299.4</ele>
        <time>2023-02-05T13:36:37Z</time>
      </trkpt>
      <trkpt lat="43.76994" lon="5.26034">
        <ele>299.4</ele>
        <time>2023-02-05T13:36:39Z</time>
      </trkpt>
      <trkpt lat="43.76993" lon="5.2603">
        <ele>299.4</ele>
        <time>2023-02-05T13:36:40Z</time>
      </trkpt>
      <trkpt lat="43.76994" lon="5.26023">
        <ele>299.2</ele>
        <time>2023-02-05T13:36:42Z</time>
      </trkpt>
      <trkpt lat="43.76995" lon="5.26016">
        <ele>299</ele>
        <time>2023-02-05T13:36:44Z</time>
      </trkpt>
      <trkpt lat="43.76996" lon="5.26009">
        <ele>299.6</ele>
        <time>2023-02-05T13:36:46Z</time>
      </trkpt>
      <trkpt lat="43.77005" lon="5.25998">
        <ele>297.6</ele>
        <time>2023-02-05T13:36:50Z</time>
      </trkpt>
      <trkpt lat="43.77015" lon="5.25995">
        <ele>298.4</ele>
        <time>2023-02-05T13:36:55Z</time>
      </trkpt>
      <trkpt lat="43.77024" lon="5.25988">
        <ele>298</ele>
        <time>2023-02-05T13:37:00Z</time>
      </trkpt>
      <trkpt lat="43.77036" lon="5.25978">
        <ele>297.6</ele>
        <time>2023-02-05T13:37:05Z</time>
      </trkpt>
      <trkpt lat="43.77046" lon="5.2597">
        <ele>297.4</ele>
        <time>2023-02-05T13:37:09Z</time>
      </trkpt>
      <trkpt lat="43.77046" lon="5.25967">
        <ele>297.2</ele>
        <time>2023-02-05T13:37:10Z</time>
      </trkpt>
      <trkpt lat="43.77046" lon="5.25964">
        <ele>297</ele>
        <time>2023-02-05T13:37:11Z</time>
      </trkpt>
      <trkpt lat="43.7705" lon="5.2596">
        <ele>296.8</ele>
        <time>2023-02-05T13:37:13Z</time>
      </trkpt>
      <trkpt lat="43.77062" lon="5.25953">
        <ele>296</ele>
        <time>2023-02-05T13:37:18Z</time>
      </trkpt>
      <trkpt lat="43.77074" lon="5.25955">
        <ele>295.2</ele>
        <time>2023-02-05T13:37:22Z</time>
      </trkpt>
      <trkpt lat="43.77079" lon="5.2596">
        <ele>294.8</ele>
        <time>2023-02-05T13:37:26Z</time>
      </trkpt>
      <trkpt lat="43.77081" lon="5.25961">
        <ele>294.6</ele>
        <time>2023-02-05T13:37:27Z</time>
      </trkpt>
      <trkpt lat="43.77088" lon="5.2596">
        <ele>293.6</ele>
        <time>2023-02-05T13:37:31Z</time>
      </trkpt>
      <trkpt lat="43.77083" lon="5.2595">
        <ele>293</ele>
        <time>2023-02-05T13:37:34Z</time>
      </trkpt>
      <trkpt lat="43.77081" lon="5.25945">
        <ele>292.8</ele>
        <time>2023-02-05T13:37:35Z</time>
      </trkpt>
      <trkpt lat="43.77072" lon="5.25927">
        <ele>292.2</ele>
        <time>2023-02-05T13:37:39Z</time>
      </trkpt>
      <trkpt lat="43.77069" lon="5.25919">
        <ele>291.8</ele>
        <time>2023-02-05T13:37:41Z</time>
      </trkpt>
      <trkpt lat="43.77068" lon="5.25917">
        <ele>291.6</ele>
        <time>2023-02-05T13:37:42Z</time>
      </trkpt>
      <trkpt lat="43.77065" lon="5.25912">
        <ele>291</ele>
        <time>2023-02-05T13:37:44Z</time>
      </trkpt>
      <trkpt lat="43.77065" lon="5.25908">
        <ele>290.6</ele>
        <time>2023-02-05T13:37:45Z</time>
      </trkpt>
      <trkpt lat="43.77064" lon="5.25905">
        <ele>290.2</ele>
        <time>2023-02-05T13:37:46Z</time>
      </trkpt>
      <trkpt lat="43.7706" lon="5.25904">
        <ele>289.4</ele>
        <time>2023-02-05T13:37:48Z</time>
      </trkpt>
      <trkpt lat="43.77054" lon="5.25903">
        <ele>288.4</ele>
        <time>2023-02-05T13:37:50Z</time>
      </trkpt>
      <trkpt lat="43.77051" lon="5.25899">
        <ele>288</ele>
        <time>2023-02-05T13:37:51Z</time>
      </trkpt>
      <trkpt lat="43.77045" lon="5.25888">
        <ele>286.6</ele>
        <time>2023-02-05T13:37:54Z</time>
      </trkpt>
      <trkpt lat="43.77035" lon="5.25888">
        <ele>285.2</ele>
        <time>2023-02-05T13:37:57Z</time>
      </trkpt>
      <trkpt lat="43.77013" lon="5.25893">
        <ele>282.4</ele>
        <time>2023-02-05T13:38:02Z</time>
      </trkpt>
      <trkpt lat="43.77003" lon="5.25897">
        <ele>281.2</ele>
        <time>2023-02-05T13:38:04Z</time>
      </trkpt>
      <trkpt lat="43.76994" lon="5.259">
        <ele>279.8</ele>
        <time>2023-02-05T13:38:06Z</time>
      </trkpt>
      <trkpt lat="43.76989" lon="5.25902">
        <ele>279.2</ele>
        <time>2023-02-05T13:38:07Z</time>
      </trkpt>
      <trkpt lat="43.76976" lon="5.25906">
        <ele>276.8</ele>
        <time>2023-02-05T13:38:10Z</time>
      </trkpt>
      <trkpt lat="43.76972" lon="5.25907">
        <ele>276.2</ele>
        <time>2023-02-05T13:38:11Z</time>
      </trkpt>
      <trkpt lat="43.76964" lon="5.25908">
        <ele>274.4</ele>
        <time>2023-02-05T13:38:13Z</time>
      </trkpt>
      <trkpt lat="43.7695" lon="5.25907">
        <ele>272</ele>
        <time>2023-02-05T13:38:16Z</time>
      </trkpt>
      <trkpt lat="43.7694" lon="5.25905">
        <ele>270.2</ele>
        <time>2023-02-05T13:38:18Z</time>
      </trkpt>
      <trkpt lat="43.76933" lon="5.25903">
        <ele>268.6</ele>
        <time>2023-02-05T13:38:20Z</time>
      </trkpt>
      <trkpt lat="43.7693" lon="5.25899">
        <ele>268</ele>
        <time>2023-02-05T13:38:21Z</time>
      </trkpt>
      <trkpt lat="43.76927" lon="5.25895">
        <ele>267.4</ele>
        <time>2023-02-05T13:38:22Z</time>
      </trkpt>
      <trkpt lat="43.76924" lon="5.25881">
        <ele>265.4</ele>
        <time>2023-02-05T13:38:25Z</time>
      </trkpt>
      <trkpt lat="43.7692" lon="5.25872">
        <ele>263.6</ele>
        <time>2023-02-05T13:38:28Z</time>
      </trkpt>
      <trkpt lat="43.76918" lon="5.25869">
        <ele>263</ele>
        <time>2023-02-05T13:38:29Z</time>
      </trkpt>
      <trkpt lat="43.76915" lon="5.25854">
        <ele>260.2</ele>
        <time>2023-02-05T13:38:34Z</time>
      </trkpt>
      <trkpt lat="43.76915" lon="5.25851">
        <ele>259.8</ele>
        <time>2023-02-05T13:38:35Z</time>
      </trkpt>
      <trkpt lat="43.76915" lon="5.25849">
        <ele>259</ele>
        <time>2023-02-05T13:38:37Z</time>
      </trkpt>
      <trkpt lat="43.7691" lon="5.25833">
        <ele>257.4</ele>
        <time>2023-02-05T13:38:43Z</time>
      </trkpt>
      <trkpt lat="43.76909" lon="5.25829">
        <ele>256.8</ele>
        <time>2023-02-05T13:38:45Z</time>
      </trkpt>
      <trkpt lat="43.76908" lon="5.25824">
        <ele>256</ele>
        <time>2023-02-05T13:38:48Z</time>
      </trkpt>
      <trkpt lat="43.76909" lon="5.25808">
        <ele>254.6</ele>
        <time>2023-02-05T13:38:53Z</time>
      </trkpt>
      <trkpt lat="43.76913" lon="5.25784">
        <ele>253.2</ele>
        <time>2023-02-05T13:38:59Z</time>
      </trkpt>
      <trkpt lat="43.76915" lon="5.25781">
        <ele>252.8</ele>
        <time>2023-02-05T13:39:00Z</time>
      </trkpt>
      <trkpt lat="43.7692" lon="5.25775">
        <ele>252.2</ele>
        <time>2023-02-05T13:39:02Z</time>
      </trkpt>
      <trkpt lat="43.76927" lon="5.25765">
        <ele>251.2</ele>
        <time>2023-02-05T13:39:06Z</time>
      </trkpt>
      <trkpt lat="43.76937" lon="5.25754">
        <ele>250</ele>
        <time>2023-02-05T13:39:10Z</time>
      </trkpt>
      <trkpt lat="43.76946" lon="5.25745">
        <ele>248.8</ele>
        <time>2023-02-05T13:39:14Z</time>
      </trkpt>
      <trkpt lat="43.7696" lon="5.25734">
        <ele>247.8</ele>
        <time>2023-02-05T13:39:20Z</time>
      </trkpt>
      <trkpt lat="43.76965" lon="5.25724">
        <ele>247</ele>
        <time>2023-02-05T13:39:25Z</time>
      </trkpt>
      <trkpt lat="43.76968" lon="5.25713">
        <ele>246.4</ele>
        <time>2023-02-05T13:39:29Z</time>
      </trkpt>
      <trkpt lat="43.76975" lon="5.257">
        <ele>245.6</ele>
        <time>2023-02-05T13:39:34Z</time>
      </trkpt>
      <trkpt lat="43.76981" lon="5.25686">
        <ele>245</ele>
        <time>2023-02-05T13:39:39Z</time>
      </trkpt>
      <trkpt lat="43.76982" lon="5.25683">
        <ele>244.8</ele>
        <time>2023-02-05T13:39:41Z</time>
      </trkpt>
      <trkpt lat="43.76985" lon="5.25678">
        <ele>244.6</ele>
        <time>2023-02-05T13:39:43Z</time>
      </trkpt>
      <trkpt lat="43.76994" lon="5.25665">
        <ele>244.6</ele>
        <time>2023-02-05T13:39:48Z</time>
      </trkpt>
      <trkpt lat="43.77007" lon="5.25651">
        <ele>244.8</ele>
        <time>2023-02-05T13:39:53Z</time>
      </trkpt>
      <trkpt lat="43.7702" lon="5.25633">
        <ele>245.2</ele>
        <time>2023-02-05T13:39:59Z</time>
      </trkpt>
      <trkpt lat="43.77024" lon="5.25627">
        <ele>245.8</ele>
        <time>2023-02-05T13:40:01Z</time>
      </trkpt>
      <trkpt lat="43.77023" lon="5.25622">
        <ele>246</ele>
        <time>2023-02-05T13:40:03Z</time>
      </trkpt>
      <trkpt lat="43.77027" lon="5.25602">
        <ele>247.4</ele>
        <time>2023-02-05T13:40:09Z</time>
      </trkpt>
      <trkpt lat="43.77027" lon="5.25586">
        <ele>248.6</ele>
        <time>2023-02-05T13:40:14Z</time>
      </trkpt>
      <trkpt lat="43.77028" lon="5.25573">
        <ele>249.4</ele>
        <time>2023-02-05T13:40:18Z</time>
      </trkpt>
      <trkpt lat="43.77026" lon="5.25568">
        <ele>249.6</ele>
        <time>2023-02-05T13:40:20Z</time>
      </trkpt>
      <trkpt lat="43.77027" lon="5.25559">
        <ele>250</ele>
        <time>2023-02-05T13:40:24Z</time>
      </trkpt>
      <trkpt lat="43.77023" lon="5.25553">
        <ele>250.2</ele>
        <time>2023-02-05T13:40:28Z</time>
      </trkpt>
      <trkpt lat="43.77016" lon="5.25549">
        <ele>250.2</ele>
        <time>2023-02-05T13:40:30Z</time>
      </trkpt>
      <trkpt lat="43.77009" lon="5.25545">
        <ele>250.4</ele>
        <time>2023-02-05T13:40:32Z</time>
      </trkpt>
      <trkpt lat="43.76999" lon="5.25537">
        <ele>250.6</ele>
        <time>2023-02-05T13:40:36Z</time>
      </trkpt>
      <trkpt lat="43.76987" lon="5.25526">
        <ele>251</ele>
        <time>2023-02-05T13:40:40Z</time>
      </trkpt>
      <trkpt lat="43.76985" lon="5.25521">
        <ele>251</ele>
        <time>2023-02-05T13:40:41Z</time>
      </trkpt>
      <trkpt lat="43.7698" lon="5.25508">
        <ele>251</ele>
        <time>2023-02-05T13:40:43Z</time>
      </trkpt>
      <trkpt lat="43.76978" lon="5.25501">
        <ele>251</ele>
        <time>2023-02-05T13:40:44Z</time>
      </trkpt>
      <trkpt lat="43.76977" lon="5.25486">
        <ele>251</ele>
        <time>2023-02-05T13:40:46Z</time>
      </trkpt>
      <trkpt lat="43.76976" lon="5.25478">
        <ele>250.8</ele>
        <time>2023-02-05T13:40:47Z</time>
      </trkpt>
      <trkpt lat="43.76978" lon="5.25461">
        <ele>250.6</ele>
        <time>2023-02-05T13:40:49Z</time>
      </trkpt>
      <trkpt lat="43.76984" lon="5.25452">
        <ele>250.4</ele>
        <time>2023-02-05T13:40:51Z</time>
      </trkpt>
      <trkpt lat="43.76986" lon="5.25448">
        <ele>249.4</ele>
        <time>2023-02-05T13:40:52Z</time>
      </trkpt>
      <trkpt lat="43.76984" lon="5.25438">
        <ele>249.6</ele>
        <time>2023-02-05T13:40:54Z</time>
      </trkpt>
      <trkpt lat="43.76984" lon="5.25431">
        <ele>249.4</ele>
        <time>2023-02-05T13:40:55Z</time>
      </trkpt>
      <trkpt lat="43.76981" lon="5.25417">
        <ele>249</ele>
        <time>2023-02-05T13:40:57Z</time>
      </trkpt>
      <trkpt lat="43.76982" lon="5.25404">
        <ele>248.4</ele>
        <time>2023-02-05T13:40:59Z</time>
      </trkpt>
      <trkpt lat="43.76991" lon="5.25388">
        <ele>247.8</ele>
        <time>2023-02-05T13:41:03Z</time>
      </trkpt>
      <trkpt lat="43.76997" lon="5.25375">
        <ele>247.2</ele>
        <time>2023-02-05T13:41:07Z</time>
      </trkpt>
      <trkpt lat="43.76997" lon="5.25372">
        <ele>247</ele>
        <time>2023-02-05T13:41:08Z</time>
      </trkpt>
      <trkpt lat="43.76999" lon="5.25367">
        <ele>246.6</ele>
        <time>2023-02-05T13:41:10Z</time>
      </trkpt>
      <trkpt lat="43.77007" lon="5.25355">
        <ele>245.8</ele>
        <time>2023-02-05T13:41:16Z</time>
      </trkpt>
      <trkpt lat="43.77015" lon="5.25344">
        <ele>246.2</ele>
        <time>2023-02-05T13:41:21Z</time>
      </trkpt>
      <trkpt lat="43.77017" lon="5.25333">
        <ele>246</ele>
        <time>2023-02-05T13:41:24Z</time>
      </trkpt>
      <trkpt lat="43.77017" lon="5.25322">
        <ele>245.6</ele>
        <time>2023-02-05T13:41:26Z</time>
      </trkpt>
      <trkpt lat="43.77015" lon="5.25315">
        <ele>245.4</ele>
        <time>2023-02-05T13:41:27Z</time>
      </trkpt>
      <trkpt lat="43.77013" lon="5.25308">
        <ele>245.2</ele>
        <time>2023-02-05T13:41:28Z</time>
      </trkpt>
      <trkpt lat="43.77012" lon="5.25289">
        <ele>244.4</ele>
        <time>2023-02-05T13:41:31Z</time>
      </trkpt>
      <trkpt lat="43.77015" lon="5.25283">
        <ele>243.6</ele>
        <time>2023-02-05T13:41:33Z</time>
      </trkpt>
      <trkpt lat="43.77017" lon="5.25282">
        <ele>243.4</ele>
        <time>2023-02-05T13:41:34Z</time>
      </trkpt>
      <trkpt lat="43.7702" lon="5.25281">
        <ele>242.8</ele>
        <time>2023-02-05T13:41:36Z</time>
      </trkpt>
      <trkpt lat="43.77021" lon="5.2528">
        <ele>242.4</ele>
        <time>2023-02-05T13:41:37Z</time>
      </trkpt>
      <trkpt lat="43.77024" lon="5.25279">
        <ele>241.6</ele>
        <time>2023-02-05T13:41:40Z</time>
      </trkpt>
      <trkpt lat="43.77026" lon="5.25278">
        <ele>241.2</ele>
        <time>2023-02-05T13:41:41Z</time>
      </trkpt>
      <trkpt lat="43.77027" lon="5.25276">
        <ele>240.8</ele>
        <time>2023-02-05T13:41:42Z</time>
      </trkpt>
      <trkpt lat="43.77029" lon="5.25272">
        <ele>240.4</ele>
        <time>2023-02-05T13:41:43Z</time>
      </trkpt>
      <trkpt lat="43.77035" lon="5.25266">
        <ele>239.4</ele>
        <time>2023-02-05T13:41:45Z</time>
      </trkpt>
      <trkpt lat="43.77036" lon="5.25262">
        <ele>238</ele>
        <time>2023-02-05T13:41:47Z</time>
      </trkpt>
      <trkpt lat="43.77037" lon="5.25261">
        <ele>237.2</ele>
        <time>2023-02-05T13:41:49Z</time>
      </trkpt>
      <trkpt lat="43.77038" lon="5.25257">
        <ele>235.6</ele>
        <time>2023-02-05T13:41:51Z</time>
      </trkpt>
      <trkpt lat="43.77041" lon="5.25244">
        <ele>232.2</ele>
        <time>2023-02-05T13:41:56Z</time>
      </trkpt>
      <trkpt lat="43.77038" lon="5.25236">
        <ele>228.6</ele>
        <time>2023-02-05T13:42:00Z</time>
      </trkpt>
      <trkpt lat="43.77036" lon="5.25232">
        <ele>226.6</ele>
        <time>2023-02-05T13:42:02Z</time>
      </trkpt>
      <trkpt lat="43.77036" lon="5.25224">
        <ele>224.4</ele>
        <time>2023-02-05T13:42:04Z</time>
      </trkpt>
      <trkpt lat="43.77038" lon="5.25218">
        <ele>223.4</ele>
        <time>2023-02-05T13:42:05Z</time>
      </trkpt>
      <trkpt lat="43.77045" lon="5.25206">
        <ele>221.6</ele>
        <time>2023-02-05T13:42:07Z</time>
      </trkpt>
      <trkpt lat="43.77056" lon="5.25193">
        <ele>219.2</ele>
        <time>2023-02-05T13:42:10Z</time>
      </trkpt>
      <trkpt lat="43.77067" lon="5.25188">
        <ele>216.2</ele>
        <time>2023-02-05T13:42:14Z</time>
      </trkpt>
      <trkpt lat="43.77072" lon="5.25187">
        <ele>214</ele>
        <time>2023-02-05T13:42:17Z</time>
      </trkpt>
      <trkpt lat="43.77082" lon="5.25187">
        <ele>211</ele>
        <time>2023-02-05T13:42:21Z</time>
      </trkpt>
      <trkpt lat="43.77084" lon="5.25189">
        <ele>210.4</ele>
        <time>2023-02-05T13:42:22Z</time>
      </trkpt>
      <trkpt lat="43.77094" lon="5.25198">
        <ele>208.2</ele>
        <time>2023-02-05T13:42:26Z</time>
      </trkpt>
      <trkpt lat="43.77094" lon="5.25197">
        <ele>206.8</ele>
        <time>2023-02-05T13:42:28Z</time>
      </trkpt>
      <trkpt lat="43.77096" lon="5.25195">
        <ele>205.2</ele>
        <time>2023-02-05T13:42:30Z</time>
      </trkpt>
      <trkpt lat="43.771" lon="5.25193">
        <ele>203.6</ele>
        <time>2023-02-05T13:42:32Z</time>
      </trkpt>
      <trkpt lat="43.77102" lon="5.25193">
        <ele>202</ele>
        <time>2023-02-05T13:42:34Z</time>
      </trkpt>
      <trkpt lat="43.77112" lon="5.25198">
        <ele>198.8</ele>
        <time>2023-02-05T13:42:39Z</time>
      </trkpt>
      <trkpt lat="43.7712" lon="5.252">
        <ele>197</ele>
        <time>2023-02-05T13:42:43Z</time>
      </trkpt>
      <trkpt lat="43.77132" lon="5.25202">
        <ele>195.6</ele>
        <time>2023-02-05T13:42:48Z</time>
      </trkpt>
      <trkpt lat="43.77136" lon="5.25202">
        <ele>194.4</ele>
        <time>2023-02-05T13:42:51Z</time>
      </trkpt>
      <trkpt lat="43.77139" lon="5.252">
        <ele>194</ele>
        <time>2023-02-05T13:42:52Z</time>
      </trkpt>
      <trkpt lat="43.7715" lon="5.2519">
        <ele>193.2</ele>
        <time>2023-02-05T13:42:56Z</time>
      </trkpt>
      <trkpt lat="43.77151" lon="5.25179">
        <ele>192.8</ele>
        <time>2023-02-05T13:42:59Z</time>
      </trkpt>
      <trkpt lat="43.77147" lon="5.25164">
        <ele>193</ele>
        <time>2023-02-05T13:43:03Z</time>
      </trkpt>
      <trkpt lat="43.77132" lon="5.25144">
        <ele>192.8</ele>
        <time>2023-02-05T13:43:10Z</time>
      </trkpt>
      <trkpt lat="43.7712" lon="5.2513">
        <ele>193.2</ele>
        <time>2023-02-05T13:43:16Z</time>
      </trkpt>
      <trkpt lat="43.77112" lon="5.25112">
        <ele>194.8</ele>
        <time>2023-02-05T13:43:21Z</time>
      </trkpt>
      <trkpt lat="43.771" lon="5.25101">
        <ele>196</ele>
        <time>2023-02-05T13:43:26Z</time>
      </trkpt>
      <trkpt lat="43.77092" lon="5.25094">
        <ele>196.6</ele>
        <time>2023-02-05T13:43:29Z</time>
      </trkpt>
      <trkpt lat="43.77089" lon="5.25092">
        <ele>196.8</ele>
        <time>2023-02-05T13:43:30Z</time>
      </trkpt>
      <trkpt lat="43.77068" lon="5.25081">
        <ele>199.6</ele>
        <time>2023-02-05T13:43:38Z</time>
      </trkpt>
      <trkpt lat="43.77049" lon="5.25081">
        <ele>202</ele>
        <time>2023-02-05T13:43:44Z</time>
      </trkpt>
      <trkpt lat="43.77032" lon="5.25085">
        <ele>204.6</ele>
        <time>2023-02-05T13:43:49Z</time>
      </trkpt>
      <trkpt lat="43.77017" lon="5.25092">
        <ele>206.8</ele>
        <time>2023-02-05T13:43:54Z</time>
      </trkpt>
      <trkpt lat="43.77002" lon="5.251">
        <ele>209.2</ele>
        <time>2023-02-05T13:43:59Z</time>
      </trkpt>
      <trkpt lat="43.76983" lon="5.25107">
        <ele>212.2</ele>
        <time>2023-02-05T13:44:06Z</time>
      </trkpt>
      <trkpt lat="43.76967" lon="5.25099">
        <ele>214.6</ele>
        <time>2023-02-05T13:44:12Z</time>
      </trkpt>
      <trkpt lat="43.76951" lon="5.25094">
        <ele>216.8</ele>
        <time>2023-02-05T13:44:18Z</time>
      </trkpt>
      <trkpt lat="43.76937" lon="5.25094">
        <ele>218.8</ele>
        <time>2023-02-05T13:44:23Z</time>
      </trkpt>
      <trkpt lat="43.76926" lon="5.25083">
        <ele>220.6</ele>
        <time>2023-02-05T13:44:28Z</time>
      </trkpt>
      <trkpt lat="43.76922" lon="5.25078">
        <ele>221.4</ele>
        <time>2023-02-05T13:44:30Z</time>
      </trkpt>
      <trkpt lat="43.76921" lon="5.25072">
        <ele>222</ele>
        <time>2023-02-05T13:44:32Z</time>
      </trkpt>
      <trkpt lat="43.76925" lon="5.25058">
        <ele>223.6</ele>
        <time>2023-02-05T13:44:36Z</time>
      </trkpt>
      <trkpt lat="43.76924" lon="5.25046">
        <ele>224.8</ele>
        <time>2023-02-05T13:44:39Z</time>
      </trkpt>
      <trkpt lat="43.76925" lon="5.25043">
        <ele>225</ele>
        <time>2023-02-05T13:44:40Z</time>
      </trkpt>
      <trkpt lat="43.76928" lon="5.25035">
        <ele>226</ele>
        <time>2023-02-05T13:44:43Z</time>
      </trkpt>
      <trkpt lat="43.76928" lon="5.25031">
        <ele>226.2</ele>
        <time>2023-02-05T13:44:44Z</time>
      </trkpt>
      <trkpt lat="43.76927" lon="5.25007">
        <ele>227.8</ele>
        <time>2023-02-05T13:44:49Z</time>
      </trkpt>
      <trkpt lat="43.76927" lon="5.24971">
        <ele>230</ele>
        <time>2023-02-05T13:44:56Z</time>
      </trkpt>
      <trkpt lat="43.76926" lon="5.24963">
        <ele>230.6</ele>
        <time>2023-02-05T13:44:58Z</time>
      </trkpt>
      <trkpt lat="43.76923" lon="5.24961">
        <ele>231.2</ele>
        <time>2023-02-05T13:45:00Z</time>
      </trkpt>
      <trkpt lat="43.76918" lon="5.24959">
        <ele>231.6</ele>
        <time>2023-02-05T13:45:02Z</time>
      </trkpt>
      <trkpt lat="43.76913" lon="5.24963">
        <ele>232.2</ele>
        <time>2023-02-05T13:45:04Z</time>
      </trkpt>
      <trkpt lat="43.76903" lon="5.24966">
        <ele>232.8</ele>
        <time>2023-02-05T13:45:07Z</time>
      </trkpt>
      <trkpt lat="43.76901" lon="5.24963">
        <ele>233.2</ele>
        <time>2023-02-05T13:45:08Z</time>
      </trkpt>
      <trkpt lat="43.769" lon="5.24959">
        <ele>233.4</ele>
        <time>2023-02-05T13:45:09Z</time>
      </trkpt>
      <trkpt lat="43.76902" lon="5.24949">
        <ele>233.8</ele>
        <time>2023-02-05T13:45:11Z</time>
      </trkpt>
      <trkpt lat="43.7691" lon="5.24922">
        <ele>235</ele>
        <time>2023-02-05T13:45:17Z</time>
      </trkpt>
      <trkpt lat="43.76913" lon="5.24906">
        <ele>235.8</ele>
        <time>2023-02-05T13:45:21Z</time>
      </trkpt>
      <trkpt lat="43.76908" lon="5.24895">
        <ele>236.4</ele>
        <time>2023-02-05T13:45:25Z</time>
      </trkpt>
      <trkpt lat="43.76912" lon="5.24888">
        <ele>236.8</ele>
        <time>2023-02-05T13:45:28Z</time>
      </trkpt>
      <trkpt lat="43.76912" lon="5.24883">
        <ele>237.2</ele>
        <time>2023-02-05T13:45:30Z</time>
      </trkpt>
      <trkpt lat="43.76911" lon="5.24878">
        <ele>237.2</ele>
        <time>2023-02-05T13:45:32Z</time>
      </trkpt>
      <trkpt lat="43.76914" lon="5.24867">
        <ele>237</ele>
        <time>2023-02-05T13:45:35Z</time>
      </trkpt>
      <trkpt lat="43.76916" lon="5.24864">
        <ele>237</ele>
        <time>2023-02-05T13:45:36Z</time>
      </trkpt>
      <trkpt lat="43.76929" lon="5.24859">
        <ele>237.6</ele>
        <time>2023-02-05T13:45:41Z</time>
      </trkpt>
      <trkpt lat="43.7693" lon="5.24857">
        <ele>237.8</ele>
        <time>2023-02-05T13:45:42Z</time>
      </trkpt>
      <trkpt lat="43.76931" lon="5.24855">
        <ele>238</ele>
        <time>2023-02-05T13:45:45Z</time>
      </trkpt>
      <trkpt lat="43.7693" lon="5.24854">
        <ele>239</ele>
        <time>2023-02-05T13:45:55Z</time>
      </trkpt>
      <trkpt lat="43.76931" lon="5.24853">
        <ele>239</ele>
        <time>2023-02-05T13:45:56Z</time>
      </trkpt>
      <trkpt lat="43.76933" lon="5.24845">
        <ele>239.6</ele>
        <time>2023-02-05T13:45:59Z</time>
      </trkpt>
      <trkpt lat="43.76941" lon="5.24824">
        <ele>240.4</ele>
        <time>2023-02-05T13:46:05Z</time>
      </trkpt>
      <trkpt lat="43.76945" lon="5.2481">
        <ele>241</ele>
        <time>2023-02-05T13:46:10Z</time>
      </trkpt>
      <trkpt lat="43.76949" lon="5.24799">
        <ele>241.8</ele>
        <time>2023-02-05T13:46:15Z</time>
      </trkpt>
      <trkpt lat="43.76954" lon="5.24781">
        <ele>242.6</ele>
        <time>2023-02-05T13:46:21Z</time>
      </trkpt>
      <trkpt lat="43.76956" lon="5.24776">
        <ele>243.2</ele>
        <time>2023-02-05T13:46:25Z</time>
      </trkpt>
      <trkpt lat="43.76956" lon="5.24776">
        <ele>244.2</ele>
        <time>2023-02-05T13:46:33Z</time>
      </trkpt>
      <trkpt lat="43.76953" lon="5.2477">
        <ele>244.2</ele>
        <time>2023-02-05T13:46:35Z</time>
      </trkpt>
      <trkpt lat="43.76948" lon="5.24754">
        <ele>244.4</ele>
        <time>2023-02-05T13:46:38Z</time>
      </trkpt>
      <trkpt lat="43.76945" lon="5.24748">
        <ele>244.6</ele>
        <time>2023-02-05T13:46:39Z</time>
      </trkpt>
      <trkpt lat="43.76941" lon="5.24743">
        <ele>244.6</ele>
        <time>2023-02-05T13:46:40Z</time>
      </trkpt>
      <trkpt lat="43.76935" lon="5.24736">
        <ele>244.6</ele>
        <time>2023-02-05T13:46:42Z</time>
      </trkpt>
      <trkpt lat="43.76933" lon="5.24731">
        <ele>244.6</ele>
        <time>2023-02-05T13:46:43Z</time>
      </trkpt>
      <trkpt lat="43.76928" lon="5.24711">
        <ele>244.6</ele>
        <time>2023-02-05T13:46:46Z</time>
      </trkpt>
      <trkpt lat="43.76925" lon="5.24698">
        <ele>244.6</ele>
        <time>2023-02-05T13:46:48Z</time>
      </trkpt>
      <trkpt lat="43.76927" lon="5.24695">
        <ele>244.6</ele>
        <time>2023-02-05T13:46:49Z</time>
      </trkpt>
      <trkpt lat="43.76936" lon="5.2468">
        <ele>244.4</ele>
        <time>2023-02-05T13:46:53Z</time>
      </trkpt>
      <trkpt lat="43.76937" lon="5.24675">
        <ele>244.4</ele>
        <time>2023-02-05T13:46:54Z</time>
      </trkpt>
      <trkpt lat="43.76933" lon="5.24664">
        <ele>244.4</ele>
        <time>2023-02-05T13:46:56Z</time>
      </trkpt>
      <trkpt lat="43.7693" lon="5.24653">
        <ele>244.4</ele>
        <time>2023-02-05T13:46:58Z</time>
      </trkpt>
      <trkpt lat="43.76931" lon="5.24647">
        <ele>245</ele>
        <time>2023-02-05T13:46:59Z</time>
      </trkpt>
      <trkpt lat="43.76931" lon="5.24641">
        <ele>244.6</ele>
        <time>2023-02-05T13:47:00Z</time>
      </trkpt>
      <trkpt lat="43.76936" lon="5.24625">
        <ele>244</ele>
        <time>2023-02-05T13:47:03Z</time>
      </trkpt>
      <trkpt lat="43.76934" lon="5.24616">
        <ele>244.2</ele>
        <time>2023-02-05T13:47:05Z</time>
      </trkpt>
      <trkpt lat="43.76932" lon="5.24614">
        <ele>244.2</ele>
        <time>2023-02-05T13:47:06Z</time>
      </trkpt>
      <trkpt lat="43.76918" lon="5.24616">
        <ele>243.8</ele>
        <time>2023-02-05T13:47:10Z</time>
      </trkpt>
      <trkpt lat="43.76906" lon="5.24613">
        <ele>243.4</ele>
        <time>2023-02-05T13:47:14Z</time>
      </trkpt>
      <trkpt lat="43.76894" lon="5.24601">
        <ele>243</ele>
        <time>2023-02-05T13:47:18Z</time>
      </trkpt>
      <trkpt lat="43.76884" lon="5.24585">
        <ele>242.4</ele>
        <time>2023-02-05T13:47:22Z</time>
      </trkpt>
      <trkpt lat="43.7688" lon="5.24568">
        <ele>241.8</ele>
        <time>2023-02-05T13:47:26Z</time>
      </trkpt>
      <trkpt lat="43.76875" lon="5.24559">
        <ele>241.4</ele>
        <time>2023-02-05T13:47:28Z</time>
      </trkpt>
      <trkpt lat="43.76868" lon="5.24551">
        <ele>241</ele>
        <time>2023-02-05T13:47:30Z</time>
      </trkpt>
      <trkpt lat="43.76866" lon="5.24546">
        <ele>240.8</ele>
        <time>2023-02-05T13:47:31Z</time>
      </trkpt>
      <trkpt lat="43.76857" lon="5.24531">
        <ele>240.2</ele>
        <time>2023-02-05T13:47:34Z</time>
      </trkpt>
      <trkpt lat="43.76854" lon="5.24525">
        <ele>239.8</ele>
        <time>2023-02-05T13:47:35Z</time>
      </trkpt>
      <trkpt lat="43.76847" lon="5.24513">
        <ele>239.4</ele>
        <time>2023-02-05T13:47:37Z</time>
      </trkpt>
      <trkpt lat="43.76844" lon="5.24506">
        <ele>239</ele>
        <time>2023-02-05T13:47:38Z</time>
      </trkpt>
      <trkpt lat="43.76839" lon="5.24484">
        <ele>238.2</ele>
        <time>2023-02-05T13:47:41Z</time>
      </trkpt>
      <trkpt lat="43.76837" lon="5.2447">
        <ele>237.6</ele>
        <time>2023-02-05T13:47:43Z</time>
      </trkpt>
      <trkpt lat="43.7684" lon="5.24457">
        <ele>237.2</ele>
        <time>2023-02-05T13:47:45Z</time>
      </trkpt>
      <trkpt lat="43.76842" lon="5.24451">
        <ele>237</ele>
        <time>2023-02-05T13:47:46Z</time>
      </trkpt>
      <trkpt lat="43.76848" lon="5.24442">
        <ele>236.8</ele>
        <time>2023-02-05T13:47:48Z</time>
      </trkpt>
      <trkpt lat="43.76851" lon="5.24423">
        <ele>236.4</ele>
        <time>2023-02-05T13:47:51Z</time>
      </trkpt>
      <trkpt lat="43.76849" lon="5.24411">
        <ele>236</ele>
        <time>2023-02-05T13:47:53Z</time>
      </trkpt>
      <trkpt lat="43.76847" lon="5.24406">
        <ele>236</ele>
        <time>2023-02-05T13:47:54Z</time>
      </trkpt>
      <trkpt lat="43.76846" lon="5.244">
        <ele>235.6</ele>
        <time>2023-02-05T13:47:56Z</time>
      </trkpt>
      <trkpt lat="43.76845" lon="5.2439">
        <ele>235.2</ele>
        <time>2023-02-05T13:47:58Z</time>
      </trkpt>
      <trkpt lat="43.76837" lon="5.24368">
        <ele>234.2</ele>
        <time>2023-02-05T13:48:03Z</time>
      </trkpt>
      <trkpt lat="43.76828" lon="5.24342">
        <ele>232.8</ele>
        <time>2023-02-05T13:48:07Z</time>
      </trkpt>
      <trkpt lat="43.76826" lon="5.24335">
        <ele>232.4</ele>
        <time>2023-02-05T13:48:08Z</time>
      </trkpt>
      <trkpt lat="43.7682" lon="5.24317">
        <ele>231.6</ele>
        <time>2023-02-05T13:48:11Z</time>
      </trkpt>
      <trkpt lat="43.76816" lon="5.2431">
        <ele>231.4</ele>
        <time>2023-02-05T13:48:13Z</time>
      </trkpt>
      <trkpt lat="43.76816" lon="5.24306">
        <ele>231.2</ele>
        <time>2023-02-05T13:48:14Z</time>
      </trkpt>
      <trkpt lat="43.76812" lon="5.24301">
        <ele>230.8</ele>
        <time>2023-02-05T13:48:16Z</time>
      </trkpt>
      <trkpt lat="43.76808" lon="5.24296">
        <ele>230.2</ele>
        <time>2023-02-05T13:48:18Z</time>
      </trkpt>
      <trkpt lat="43.76798" lon="5.24285">
        <ele>229.6</ele>
        <time>2023-02-05T13:48:21Z</time>
      </trkpt>
      <trkpt lat="43.76789" lon="5.24271">
        <ele>229</ele>
        <time>2023-02-05T13:48:24Z</time>
      </trkpt>
      <trkpt lat="43.76783" lon="5.24259">
        <ele>228.6</ele>
        <time>2023-02-05T13:48:26Z</time>
      </trkpt>
      <trkpt lat="43.76778" lon="5.24247">
        <ele>228</ele>
        <time>2023-02-05T13:48:28Z</time>
      </trkpt>
      <trkpt lat="43.76774" lon="5.24241">
        <ele>227.6</ele>
        <time>2023-02-05T13:48:30Z</time>
      </trkpt>
      <trkpt lat="43.76771" lon="5.24242">
        <ele>227.2</ele>
        <time>2023-02-05T13:48:31Z</time>
      </trkpt>
      <trkpt lat="43.76761" lon="5.24251">
        <ele>226</ele>
        <time>2023-02-05T13:48:35Z</time>
      </trkpt>
      <trkpt lat="43.76752" lon="5.24262">
        <ele>224.8</ele>
        <time>2023-02-05T13:48:38Z</time>
      </trkpt>
      <trkpt lat="43.76745" lon="5.24268">
        <ele>223.4</ele>
        <time>2023-02-05T13:48:41Z</time>
      </trkpt>
      <trkpt lat="43.76736" lon="5.24269">
        <ele>222.2</ele>
        <time>2023-02-05T13:48:44Z</time>
      </trkpt>
      <trkpt lat="43.76736" lon="5.24264">
        <ele>221</ele>
        <time>2023-02-05T13:48:46Z</time>
      </trkpt>
      <trkpt lat="43.76737" lon="5.24261">
        <ele>220.6</ele>
        <time>2023-02-05T13:48:47Z</time>
      </trkpt>
      <trkpt lat="43.76742" lon="5.24251">
        <ele>218.8</ele>
        <time>2023-02-05T13:48:50Z</time>
      </trkpt>
      <trkpt lat="43.76736" lon="5.24236">
        <ele>217</ele>
        <time>2023-02-05T13:48:53Z</time>
      </trkpt>
      <trkpt lat="43.76726" lon="5.24228">
        <ele>215.6</ele>
        <time>2023-02-05T13:48:56Z</time>
      </trkpt>
      <trkpt lat="43.76722" lon="5.24226">
        <ele>215</ele>
        <time>2023-02-05T13:48:57Z</time>
      </trkpt>
      <trkpt lat="43.76719" lon="5.24226">
        <ele>214.4</ele>
        <time>2023-02-05T13:48:58Z</time>
      </trkpt>
      <trkpt lat="43.76711" lon="5.24226">
        <ele>213.2</ele>
        <time>2023-02-05T13:49:00Z</time>
      </trkpt>
      <trkpt lat="43.76696" lon="5.24216">
        <ele>210.6</ele>
        <time>2023-02-05T13:49:05Z</time>
      </trkpt>
      <trkpt lat="43.76692" lon="5.24215">
        <ele>210</ele>
        <time>2023-02-05T13:49:06Z</time>
      </trkpt>
      <trkpt lat="43.76684" lon="5.24214">
        <ele>209</ele>
        <time>2023-02-05T13:49:08Z</time>
      </trkpt>
      <trkpt lat="43.76672" lon="5.24212">
        <ele>207.4</ele>
        <time>2023-02-05T13:49:11Z</time>
      </trkpt>
      <trkpt lat="43.76668" lon="5.24211">
        <ele>206.8</ele>
        <time>2023-02-05T13:49:12Z</time>
      </trkpt>
      <trkpt lat="43.76665" lon="5.24208">
        <ele>206.2</ele>
        <time>2023-02-05T13:49:13Z</time>
      </trkpt>
      <trkpt lat="43.76662" lon="5.24204">
        <ele>205</ele>
        <time>2023-02-05T13:49:15Z</time>
      </trkpt>
      <trkpt lat="43.76656" lon="5.24197">
        <ele>203.2</ele>
        <time>2023-02-05T13:49:18Z</time>
      </trkpt>
      <trkpt lat="43.76648" lon="5.24188">
        <ele>200.8</ele>
        <time>2023-02-05T13:49:21Z</time>
      </trkpt>
      <trkpt lat="43.76641" lon="5.24171">
        <ele>197.8</ele>
        <time>2023-02-05T13:49:25Z</time>
      </trkpt>
      <trkpt lat="43.7664" lon="5.24167">
        <ele>197</ele>
        <time>2023-02-05T13:49:26Z</time>
      </trkpt>
      <trkpt lat="43.76639" lon="5.24158">
        <ele>195.4</ele>
        <time>2023-02-05T13:49:28Z</time>
      </trkpt>
      <trkpt lat="43.76636" lon="5.24148">
        <ele>194.6</ele>
        <time>2023-02-05T13:49:30Z</time>
      </trkpt>
      <trkpt lat="43.76634" lon="5.24146">
        <ele>194.2</ele>
        <time>2023-02-05T13:49:31Z</time>
      </trkpt>
      <trkpt lat="43.76633" lon="5.24141">
        <ele>194.2</ele>
        <time>2023-02-05T13:49:32Z</time>
      </trkpt>
      <trkpt lat="43.76631" lon="5.24135">
        <ele>193.6</ele>
        <time>2023-02-05T13:49:34Z</time>
      </trkpt>
      <trkpt lat="43.76621" lon="5.24127">
        <ele>192.6</ele>
        <time>2023-02-05T13:49:37Z</time>
      </trkpt>
      <trkpt lat="43.76615" lon="5.24119">
        <ele>191.8</ele>
        <time>2023-02-05T13:49:39Z</time>
      </trkpt>
      <trkpt lat="43.76605" lon="5.24098">
        <ele>190.2</ele>
        <time>2023-02-05T13:49:43Z</time>
      </trkpt>
      <trkpt lat="43.76601" lon="5.24086">
        <ele>189</ele>
        <time>2023-02-05T13:49:45Z</time>
      </trkpt>
      <trkpt lat="43.76599" lon="5.24075">
        <ele>188</ele>
        <time>2023-02-05T13:49:47Z</time>
      </trkpt>
      <trkpt lat="43.76598" lon="5.24072">
        <ele>186.2</ele>
        <time>2023-02-05T13:49:51Z</time>
      </trkpt>
      <trkpt lat="43.76598" lon="5.24072">
        <ele>181.8</ele>
        <time>2023-02-05T13:50:04Z</time>
      </trkpt>
      <trkpt lat="43.76598" lon="5.24072">
        <ele>178.4</ele>
        <time>2023-02-05T13:50:16Z</time>
      </trkpt>
      <trkpt lat="43.76598" lon="5.24071">
        <ele>175.2</ele>
        <time>2023-02-05T13:50:29Z</time>
      </trkpt>
      <trkpt lat="43.76599" lon="5.24066">
        <ele>175</ele>
        <time>2023-02-05T13:50:31Z</time>
      </trkpt>
      <trkpt lat="43.76601" lon="5.24064">
        <ele>175</ele>
        <time>2023-02-05T13:50:32Z</time>
      </trkpt>
      <trkpt lat="43.76612" lon="5.24064">
        <ele>175.2</ele>
        <time>2023-02-05T13:50:37Z</time>
      </trkpt>
      <trkpt lat="43.76628" lon="5.24062">
        <ele>175.2</ele>
        <time>2023-02-05T13:50:43Z</time>
      </trkpt>
      <trkpt lat="43.76647" lon="5.24066">
        <ele>174.8</ele>
        <time>2023-02-05T13:50:49Z</time>
      </trkpt>
      <trkpt lat="43.76663" lon="5.24066">
        <ele>174.6</ele>
        <time>2023-02-05T13:50:54Z</time>
      </trkpt>
      <trkpt lat="43.76688" lon="5.24067">
        <ele>175.4</ele>
        <time>2023-02-05T13:51:01Z</time>
      </trkpt>
      <trkpt lat="43.76712" lon="5.24068">
        <ele>176.2</ele>
        <time>2023-02-05T13:51:08Z</time>
      </trkpt>
      <trkpt lat="43.76734" lon="5.24068">
        <ele>177.2</ele>
        <time>2023-02-05T13:51:15Z</time>
      </trkpt>
      <trkpt lat="43.76749" lon="5.24071">
        <ele>178</ele>
        <time>2023-02-05T13:51:20Z</time>
      </trkpt>
      <trkpt lat="43.76763" lon="5.24079">
        <ele>178.8</ele>
        <time>2023-02-05T13:51:25Z</time>
      </trkpt>
      <trkpt lat="43.76778" lon="5.24095">
        <ele>180</ele>
        <time>2023-02-05T13:51:31Z</time>
      </trkpt>
      <trkpt lat="43.76791" lon="5.24114">
        <ele>181.2</ele>
        <time>2023-02-05T13:51:37Z</time>
      </trkpt>
      <trkpt lat="43.76807" lon="5.2413">
        <ele>182.4</ele>
        <time>2023-02-05T13:51:43Z</time>
      </trkpt>
      <trkpt lat="43.76816" lon="5.24141">
        <ele>183</ele>
        <time>2023-02-05T13:51:47Z</time>
      </trkpt>
      <trkpt lat="43.76834" lon="5.24152">
        <ele>184.2</ele>
        <time>2023-02-05T13:51:53Z</time>
      </trkpt>
      <trkpt lat="43.76855" lon="5.24164">
        <ele>185.4</ele>
        <time>2023-02-05T13:52:00Z</time>
      </trkpt>
      <trkpt lat="43.76877" lon="5.24175">
        <ele>186.8</ele>
        <time>2023-02-05T13:52:07Z</time>
      </trkpt>
      <trkpt lat="43.76895" lon="5.24189">
        <ele>188</ele>
        <time>2023-02-05T13:52:13Z</time>
      </trkpt>
      <trkpt lat="43.76908" lon="5.24193">
        <ele>188.6</ele>
        <time>2023-02-05T13:52:17Z</time>
      </trkpt>
      <trkpt lat="43.76921" lon="5.24192">
        <ele>189.6</ele>
        <time>2023-02-05T13:52:21Z</time>
      </trkpt>
      <trkpt lat="43.76946" lon="5.24191">
        <ele>191.2</ele>
        <time>2023-02-05T13:52:28Z</time>
      </trkpt>
      <trkpt lat="43.76962" lon="5.24187">
        <ele>192.2</ele>
        <time>2023-02-05T13:52:33Z</time>
      </trkpt>
      <trkpt lat="43.76971" lon="5.24183">
        <ele>192.6</ele>
        <time>2023-02-05T13:52:36Z</time>
      </trkpt>
      <trkpt lat="43.76974" lon="5.24182">
        <ele>192.8</ele>
        <time>2023-02-05T13:52:37Z</time>
      </trkpt>
      <trkpt lat="43.76977" lon="5.2418">
        <ele>193</ele>
        <time>2023-02-05T13:52:38Z</time>
      </trkpt>
      <trkpt lat="43.76988" lon="5.24176">
        <ele>193.6</ele>
        <time>2023-02-05T13:52:41Z</time>
      </trkpt>
      <trkpt lat="43.77003" lon="5.24174">
        <ele>194.6</ele>
        <time>2023-02-05T13:52:46Z</time>
      </trkpt>
      <trkpt lat="43.7702" lon="5.24171">
        <ele>195.2</ele>
        <time>2023-02-05T13:52:51Z</time>
      </trkpt>
      <trkpt lat="43.77036" lon="5.24161">
        <ele>195.8</ele>
        <time>2023-02-05T13:52:56Z</time>
      </trkpt>
      <trkpt lat="43.7704" lon="5.24155">
        <ele>196</ele>
        <time>2023-02-05T13:52:58Z</time>
      </trkpt>
      <trkpt lat="43.77042" lon="5.2415">
        <ele>196</ele>
        <time>2023-02-05T13:52:59Z</time>
      </trkpt>
      <trkpt lat="43.7704" lon="5.2413">
        <ele>196.4</ele>
        <time>2023-02-05T13:53:03Z</time>
      </trkpt>
      <trkpt lat="43.7703" lon="5.2412">
        <ele>197</ele>
        <time>2023-02-05T13:53:07Z</time>
      </trkpt>
      <trkpt lat="43.77007" lon="5.24118">
        <ele>198.6</ele>
        <time>2023-02-05T13:53:14Z</time>
      </trkpt>
      <trkpt lat="43.76985" lon="5.24118">
        <ele>200.8</ele>
        <time>2023-02-05T13:53:21Z</time>
      </trkpt>
      <trkpt lat="43.76969" lon="5.24118">
        <ele>202.6</ele>
        <time>2023-02-05T13:53:27Z</time>
      </trkpt>
      <trkpt lat="43.76955" lon="5.24123">
        <ele>204.6</ele>
        <time>2023-02-05T13:53:33Z</time>
      </trkpt>
      <trkpt lat="43.76942" lon="5.24122">
        <ele>206</ele>
        <time>2023-02-05T13:53:38Z</time>
      </trkpt>
      <trkpt lat="43.76934" lon="5.24106">
        <ele>207.2</ele>
        <time>2023-02-05T13:53:43Z</time>
      </trkpt>
      <trkpt lat="43.76936" lon="5.2409">
        <ele>208.2</ele>
        <time>2023-02-05T13:53:47Z</time>
      </trkpt>
      <trkpt lat="43.76937" lon="5.24069">
        <ele>208.8</ele>
        <time>2023-02-05T13:53:51Z</time>
      </trkpt>
      <trkpt lat="43.76931" lon="5.24047">
        <ele>209.6</ele>
        <time>2023-02-05T13:53:55Z</time>
      </trkpt>
      <trkpt lat="43.76929" lon="5.2404">
        <ele>209.8</ele>
        <time>2023-02-05T13:53:56Z</time>
      </trkpt>
      <trkpt lat="43.76927" lon="5.24027">
        <ele>210.2</ele>
        <time>2023-02-05T13:53:58Z</time>
      </trkpt>
      <trkpt lat="43.76925" lon="5.24014">
        <ele>210.6</ele>
        <time>2023-02-05T13:54:00Z</time>
      </trkpt>
      <trkpt lat="43.76925" lon="5.24008">
        <ele>210.8</ele>
        <time>2023-02-05T13:54:01Z</time>
      </trkpt>
      <trkpt lat="43.76919" lon="5.23984">
        <ele>211.6</ele>
        <time>2023-02-05T13:54:05Z</time>
      </trkpt>
      <trkpt lat="43.76913" lon="5.23974">
        <ele>212</ele>
        <time>2023-02-05T13:54:07Z</time>
      </trkpt>
      <trkpt lat="43.76907" lon="5.23964">
        <ele>212.4</ele>
        <time>2023-02-05T13:54:09Z</time>
      </trkpt>
      <trkpt lat="43.76903" lon="5.23952">
        <ele>212.8</ele>
        <time>2023-02-05T13:54:11Z</time>
      </trkpt>
      <trkpt lat="43.76901" lon="5.23941">
        <ele>213.2</ele>
        <time>2023-02-05T13:54:13Z</time>
      </trkpt>
      <trkpt lat="43.76899" lon="5.23924">
        <ele>213.8</ele>
        <time>2023-02-05T13:54:16Z</time>
      </trkpt>
      <trkpt lat="43.76897" lon="5.23914">
        <ele>214.2</ele>
        <time>2023-02-05T13:54:18Z</time>
      </trkpt>
      <trkpt lat="43.76891" lon="5.23897">
        <ele>214.8</ele>
        <time>2023-02-05T13:54:21Z</time>
      </trkpt>
      <trkpt lat="43.76889" lon="5.2389">
        <ele>215</ele>
        <time>2023-02-05T13:54:22Z</time>
      </trkpt>
      <trkpt lat="43.76885" lon="5.23874">
        <ele>215.2</ele>
        <time>2023-02-05T13:54:24Z</time>
      </trkpt>
      <trkpt lat="43.76882" lon="5.23866">
        <ele>215.4</ele>
        <time>2023-02-05T13:54:25Z</time>
      </trkpt>
      <trkpt lat="43.76877" lon="5.2386">
        <ele>215.4</ele>
        <time>2023-02-05T13:54:26Z</time>
      </trkpt>
      <trkpt lat="43.76868" lon="5.23849">
        <ele>215.6</ele>
        <time>2023-02-05T13:54:28Z</time>
      </trkpt>
      <trkpt lat="43.76858" lon="5.23839">
        <ele>215.8</ele>
        <time>2023-02-05T13:54:30Z</time>
      </trkpt>
      <trkpt lat="43.76853" lon="5.23833">
        <ele>215.8</ele>
        <time>2023-02-05T13:54:31Z</time>
      </trkpt>
      <trkpt lat="43.76845" lon="5.23819">
        <ele>216</ele>
        <time>2023-02-05T13:54:33Z</time>
      </trkpt>
      <trkpt lat="43.76843" lon="5.23811">
        <ele>216</ele>
        <time>2023-02-05T13:54:34Z</time>
      </trkpt>
      <trkpt lat="43.76837" lon="5.2378">
        <ele>216.4</ele>
        <time>2023-02-05T13:54:38Z</time>
      </trkpt>
      <trkpt lat="43.76836" lon="5.23772">
        <ele>216.4</ele>
        <time>2023-02-05T13:54:39Z</time>
      </trkpt>
      <trkpt lat="43.76834" lon="5.23754">
        <ele>216.4</ele>
        <time>2023-02-05T13:54:41Z</time>
      </trkpt>
      <trkpt lat="43.76826" lon="5.23739">
        <ele>216.4</ele>
        <time>2023-02-05T13:54:43Z</time>
      </trkpt>
      <trkpt lat="43.76815" lon="5.23735">
        <ele>216.4</ele>
        <time>2023-02-05T13:54:45Z</time>
      </trkpt>
      <trkpt lat="43.76805" lon="5.23735">
        <ele>216.6</ele>
        <time>2023-02-05T13:54:48Z</time>
      </trkpt>
      <trkpt lat="43.76803" lon="5.23732">
        <ele>216.8</ele>
        <time>2023-02-05T13:54:49Z</time>
      </trkpt>
      <trkpt lat="43.76794" lon="5.2371">
        <ele>217.2</ele>
        <time>2023-02-05T13:54:54Z</time>
      </trkpt>
      <trkpt lat="43.76793" lon="5.2369">
        <ele>217.6</ele>
        <time>2023-02-05T13:54:58Z</time>
      </trkpt>
      <trkpt lat="43.76794" lon="5.23663">
        <ele>217.8</ele>
        <time>2023-02-05T13:55:03Z</time>
      </trkpt>
      <trkpt lat="43.7679" lon="5.2365">
        <ele>217.8</ele>
        <time>2023-02-05T13:55:05Z</time>
      </trkpt>
      <trkpt lat="43.76784" lon="5.23635">
        <ele>217.8</ele>
        <time>2023-02-05T13:55:07Z</time>
      </trkpt>
      <trkpt lat="43.76781" lon="5.23629">
        <ele>217.6</ele>
        <time>2023-02-05T13:55:08Z</time>
      </trkpt>
      <trkpt lat="43.76773" lon="5.23623">
        <ele>217.8</ele>
        <time>2023-02-05T13:55:10Z</time>
      </trkpt>
      <trkpt lat="43.76764" lon="5.23611">
        <ele>218</ele>
        <time>2023-02-05T13:55:14Z</time>
      </trkpt>
      <trkpt lat="43.76755" lon="5.23577">
        <ele>218.4</ele>
        <time>2023-02-05T13:55:21Z</time>
      </trkpt>
      <trkpt lat="43.76746" lon="5.23561">
        <ele>218.8</ele>
        <time>2023-02-05T13:55:25Z</time>
      </trkpt>
      <trkpt lat="43.76731" lon="5.23531">
        <ele>219.2</ele>
        <time>2023-02-05T13:55:31Z</time>
      </trkpt>
      <trkpt lat="43.76722" lon="5.23508">
        <ele>219.6</ele>
        <time>2023-02-05T13:55:36Z</time>
      </trkpt>
      <trkpt lat="43.76712" lon="5.23492">
        <ele>220.2</ele>
        <time>2023-02-05T13:55:41Z</time>
      </trkpt>
      <trkpt lat="43.76699" lon="5.23474">
        <ele>221.2</ele>
        <time>2023-02-05T13:55:47Z</time>
      </trkpt>
      <trkpt lat="43.76691" lon="5.23455">
        <ele>221.8</ele>
        <time>2023-02-05T13:55:53Z</time>
      </trkpt>
      <trkpt lat="43.76691" lon="5.23454">
        <ele>222.2</ele>
        <time>2023-02-05T13:55:57Z</time>
      </trkpt>
      <trkpt lat="43.76691" lon="5.23454">
        <ele>224.2</ele>
        <time>2023-02-05T13:56:20Z</time>
      </trkpt>
      <trkpt lat="43.76689" lon="5.23448">
        <ele>224.8</ele>
        <time>2023-02-05T13:56:27Z</time>
      </trkpt>
      <trkpt lat="43.7668" lon="5.23421">
        <ele>225.4</ele>
        <time>2023-02-05T13:56:34Z</time>
      </trkpt>
      <trkpt lat="43.76675" lon="5.23401">
        <ele>226</ele>
        <time>2023-02-05T13:56:39Z</time>
      </trkpt>
      <trkpt lat="43.76674" lon="5.23394">
        <ele>226.2</ele>
        <time>2023-02-05T13:56:42Z</time>
      </trkpt>
      <trkpt lat="43.76675" lon="5.23392">
        <ele>226.4</ele>
        <time>2023-02-05T13:56:44Z</time>
      </trkpt>
      <trkpt lat="43.76675" lon="5.23391">
        <ele>227</ele>
        <time>2023-02-05T13:56:51Z</time>
      </trkpt>
      <trkpt lat="43.76679" lon="5.23389">
        <ele>227.2</ele>
        <time>2023-02-05T13:56:53Z</time>
      </trkpt>
      <trkpt lat="43.76692" lon="5.23375">
        <ele>227.8</ele>
        <time>2023-02-05T13:56:58Z</time>
      </trkpt>
      <trkpt lat="43.76703" lon="5.23348">
        <ele>228.2</ele>
        <time>2023-02-05T13:57:04Z</time>
      </trkpt>
      <trkpt lat="43.76706" lon="5.23321">
        <ele>228.4</ele>
        <time>2023-02-05T13:57:09Z</time>
      </trkpt>
      <trkpt lat="43.76705" lon="5.23283">
        <ele>229</ele>
        <time>2023-02-05T13:57:16Z</time>
      </trkpt>
      <trkpt lat="43.76705" lon="5.23277">
        <ele>229.2</ele>
        <time>2023-02-05T13:57:17Z</time>
      </trkpt>
      <trkpt lat="43.76712" lon="5.23251">
        <ele>229.8</ele>
        <time>2023-02-05T13:57:22Z</time>
      </trkpt>
      <trkpt lat="43.76721" lon="5.23222">
        <ele>230.6</ele>
        <time>2023-02-05T13:57:28Z</time>
      </trkpt>
      <trkpt lat="43.76735" lon="5.23195">
        <ele>231.2</ele>
        <time>2023-02-05T13:57:34Z</time>
      </trkpt>
      <trkpt lat="43.76747" lon="5.23172">
        <ele>231.4</ele>
        <time>2023-02-05T13:57:39Z</time>
      </trkpt>
      <trkpt lat="43.7675" lon="5.23169">
        <ele>231.6</ele>
        <time>2023-02-05T13:57:40Z</time>
      </trkpt>
      <trkpt lat="43.76759" lon="5.23166">
        <ele>231.6</ele>
        <time>2023-02-05T13:57:42Z</time>
      </trkpt>
      <trkpt lat="43.76765" lon="5.23159">
        <ele>231.6</ele>
        <time>2023-02-05T13:57:44Z</time>
      </trkpt>
      <trkpt lat="43.76767" lon="5.23155">
        <ele>231.6</ele>
        <time>2023-02-05T13:57:45Z</time>
      </trkpt>
      <trkpt lat="43.76776" lon="5.2313">
        <ele>231.2</ele>
        <time>2023-02-05T13:57:50Z</time>
      </trkpt>
      <trkpt lat="43.76779" lon="5.23127">
        <ele>231.2</ele>
        <time>2023-02-05T13:57:51Z</time>
      </trkpt>
      <trkpt lat="43.76782" lon="5.2312">
        <ele>230.4</ele>
        <time>2023-02-05T13:57:54Z</time>
      </trkpt>
      <trkpt lat="43.76783" lon="5.23117">
        <ele>230.6</ele>
        <time>2023-02-05T13:57:55Z</time>
      </trkpt>
      <trkpt lat="43.76788" lon="5.23102">
        <ele>229.4</ele>
        <time>2023-02-05T13:58:00Z</time>
      </trkpt>
      <trkpt lat="43.76792" lon="5.23089">
        <ele>227.6</ele>
        <time>2023-02-05T13:58:05Z</time>
      </trkpt>
      <trkpt lat="43.76795" lon="5.23074">
        <ele>226.2</ele>
        <time>2023-02-05T13:58:10Z</time>
      </trkpt>
      <trkpt lat="43.76796" lon="5.23072">
        <ele>225.8</ele>
        <time>2023-02-05T13:58:11Z</time>
      </trkpt>
      <trkpt lat="43.76798" lon="5.23066">
        <ele>224.8</ele>
        <time>2023-02-05T13:58:14Z</time>
      </trkpt>
      <trkpt lat="43.76799" lon="5.23065">
        <ele>224.4</ele>
        <time>2023-02-05T13:58:15Z</time>
      </trkpt>
      <trkpt lat="43.76804" lon="5.23058">
        <ele>222.8</ele>
        <time>2023-02-05T13:58:19Z</time>
      </trkpt>
      <trkpt lat="43.76809" lon="5.23049">
        <ele>221</ele>
        <time>2023-02-05T13:58:23Z</time>
      </trkpt>
      <trkpt lat="43.76813" lon="5.23043">
        <ele>219.6</ele>
        <time>2023-02-05T13:58:26Z</time>
      </trkpt>
      <trkpt lat="43.76815" lon="5.2304">
        <ele>218.4</ele>
        <time>2023-02-05T13:58:28Z</time>
      </trkpt>
      <trkpt lat="43.76817" lon="5.23039">
        <ele>217.8</ele>
        <time>2023-02-05T13:58:29Z</time>
      </trkpt>
      <trkpt lat="43.76819" lon="5.23034">
        <ele>216.6</ele>
        <time>2023-02-05T13:58:31Z</time>
      </trkpt>
      <trkpt lat="43.76819" lon="5.23033">
        <ele>216.2</ele>
        <time>2023-02-05T13:58:32Z</time>
      </trkpt>
      <trkpt lat="43.76819" lon="5.23033">
        <ele>213.4</ele>
        <time>2023-02-05T13:58:39Z</time>
      </trkpt>
      <trkpt lat="43.76821" lon="5.23032">
        <ele>213.2</ele>
        <time>2023-02-05T13:58:40Z</time>
      </trkpt>
      <trkpt lat="43.76824" lon="5.23032">
        <ele>212.8</ele>
        <time>2023-02-05T13:58:41Z</time>
      </trkpt>
      <trkpt lat="43.76833" lon="5.23034">
        <ele>212.2</ele>
        <time>2023-02-05T13:58:44Z</time>
      </trkpt>
      <trkpt lat="43.76839" lon="5.23034">
        <ele>211.6</ele>
        <time>2023-02-05T13:58:47Z</time>
      </trkpt>
      <trkpt lat="43.76854" lon="5.23035">
        <ele>211</ele>
        <time>2023-02-05T13:58:52Z</time>
      </trkpt>
      <trkpt lat="43.76865" lon="5.23034">
        <ele>210.6</ele>
        <time>2023-02-05T13:58:56Z</time>
      </trkpt>
      <trkpt lat="43.76868" lon="5.23032">
        <ele>210.4</ele>
        <time>2023-02-05T13:58:57Z</time>
      </trkpt>
      <trkpt lat="43.76879" lon="5.23027">
        <ele>210.2</ele>
        <time>2023-02-05T13:59:01Z</time>
      </trkpt>
      <trkpt lat="43.76897" lon="5.23026">
        <ele>210</ele>
        <time>2023-02-05T13:59:07Z</time>
      </trkpt>
      <trkpt lat="43.76916" lon="5.23023">
        <ele>209.8</ele>
        <time>2023-02-05T13:59:13Z</time>
      </trkpt>
      <trkpt lat="43.76926" lon="5.23018">
        <ele>209.8</ele>
        <time>2023-02-05T13:59:17Z</time>
      </trkpt>
      <trkpt lat="43.76944" lon="5.23014">
        <ele>209.8</ele>
        <time>2023-02-05T13:59:23Z</time>
      </trkpt>
      <trkpt lat="43.76965" lon="5.23005">
        <ele>210.2</ele>
        <time>2023-02-05T13:59:30Z</time>
      </trkpt>
      <trkpt lat="43.7698" lon="5.23">
        <ele>210.4</ele>
        <time>2023-02-05T13:59:35Z</time>
      </trkpt>
      <trkpt lat="43.76994" lon="5.22997">
        <ele>210.6</ele>
        <time>2023-02-05T13:59:40Z</time>
      </trkpt>
      <trkpt lat="43.77011" lon="5.23002">
        <ele>210.8</ele>
        <time>2023-02-05T13:59:46Z</time>
      </trkpt>
      <trkpt lat="43.77034" lon="5.23002">
        <ele>211.2</ele>
        <time>2023-02-05T13:59:53Z</time>
      </trkpt>
      <trkpt lat="43.77045" lon="5.22997">
        <ele>211.4</ele>
        <time>2023-02-05T13:59:57Z</time>
      </trkpt>
      <trkpt lat="43.77054" lon="5.22989">
        <ele>211.6</ele>
        <time>2023-02-05T14:00:01Z</time>
      </trkpt>
      <trkpt lat="43.77055" lon="5.22985">
        <ele>211.6</ele>
        <time>2023-02-05T14:00:02Z</time>
      </trkpt>
      <trkpt lat="43.77063" lon="5.22966">
        <ele>211.6</ele>
        <time>2023-02-05T14:00:07Z</time>
      </trkpt>
      <trkpt lat="43.77074" lon="5.22946">
        <ele>211.8</ele>
        <time>2023-02-05T14:00:13Z</time>
      </trkpt>
      <trkpt lat="43.77086" lon="5.22932">
        <ele>212</ele>
        <time>2023-02-05T14:00:18Z</time>
      </trkpt>
      <trkpt lat="43.77097" lon="5.22926">
        <ele>212.2</ele>
        <time>2023-02-05T14:00:22Z</time>
      </trkpt>
      <trkpt lat="43.77111" lon="5.22918">
        <ele>212.6</ele>
        <time>2023-02-05T14:00:28Z</time>
      </trkpt>
      <trkpt lat="43.77114" lon="5.22916">
        <ele>212.6</ele>
        <time>2023-02-05T14:00:29Z</time>
      </trkpt>
      <trkpt lat="43.77121" lon="5.22909">
        <ele>212.8</ele>
        <time>2023-02-05T14:00:32Z</time>
      </trkpt>
      <trkpt lat="43.77132" lon="5.22901">
        <ele>212.6</ele>
        <time>2023-02-05T14:00:36Z</time>
      </trkpt>
      <trkpt lat="43.77149" lon="5.22889">
        <ele>212</ele>
        <time>2023-02-05T14:00:42Z</time>
      </trkpt>
      <trkpt lat="43.77165" lon="5.22879">
        <ele>211.6</ele>
        <time>2023-02-05T14:00:47Z</time>
      </trkpt>
      <trkpt lat="43.77177" lon="5.22876">
        <ele>212.2</ele>
        <time>2023-02-05T14:00:51Z</time>
      </trkpt>
      <trkpt lat="43.77184" lon="5.22865">
        <ele>212.6</ele>
        <time>2023-02-05T14:00:55Z</time>
      </trkpt>
      <trkpt lat="43.77183" lon="5.22846">
        <ele>212.8</ele>
        <time>2023-02-05T14:00:59Z</time>
      </trkpt>
      <trkpt lat="43.77188" lon="5.22824">
        <ele>213.2</ele>
        <time>2023-02-05T14:01:04Z</time>
      </trkpt>
      <trkpt lat="43.77198" lon="5.22801">
        <ele>213.8</ele>
        <time>2023-02-05T14:01:10Z</time>
      </trkpt>
      <trkpt lat="43.77208" lon="5.2278">
        <ele>214.6</ele>
        <time>2023-02-05T14:01:16Z</time>
      </trkpt>
      <trkpt lat="43.77224" lon="5.22758">
        <ele>215.4</ele>
        <time>2023-02-05T14:01:23Z</time>
      </trkpt>
      <trkpt lat="43.77228" lon="5.22746">
        <ele>215.8</ele>
        <time>2023-02-05T14:01:26Z</time>
      </trkpt>
      <trkpt lat="43.77227" lon="5.22742">
        <ele>215.8</ele>
        <time>2023-02-05T14:01:27Z</time>
      </trkpt>
      <trkpt lat="43.77225" lon="5.22739">
        <ele>216</ele>
        <time>2023-02-05T14:01:28Z</time>
      </trkpt>
      <trkpt lat="43.77221" lon="5.22738">
        <ele>216.2</ele>
        <time>2023-02-05T14:01:30Z</time>
      </trkpt>
      <trkpt lat="43.77212" lon="5.22746">
        <ele>216.6</ele>
        <time>2023-02-05T14:01:35Z</time>
      </trkpt>
      <trkpt lat="43.77201" lon="5.22755">
        <ele>217.4</ele>
        <time>2023-02-05T14:01:41Z</time>
      </trkpt>
      <trkpt lat="43.77188" lon="5.22766">
        <ele>218.4</ele>
        <time>2023-02-05T14:01:48Z</time>
      </trkpt>
      <trkpt lat="43.7718" lon="5.22777">
        <ele>219.4</ele>
        <time>2023-02-05T14:01:54Z</time>
      </trkpt>
      <trkpt lat="43.77171" lon="5.22787">
        <ele>220.2</ele>
        <time>2023-02-05T14:02:00Z</time>
      </trkpt>
      <trkpt lat="43.77159" lon="5.22798">
        <ele>221.6</ele>
        <time>2023-02-05T14:02:08Z</time>
      </trkpt>
      <trkpt lat="43.7715" lon="5.22803">
        <ele>222.8</ele>
        <time>2023-02-05T14:02:13Z</time>
      </trkpt>
      <trkpt lat="43.77146" lon="5.22803">
        <ele>223.2</ele>
        <time>2023-02-05T14:02:15Z</time>
      </trkpt>
      <trkpt lat="43.77134" lon="5.22803">
        <ele>224.6</ele>
        <time>2023-02-05T14:02:21Z</time>
      </trkpt>
      <trkpt lat="43.77126" lon="5.22791">
        <ele>225.8</ele>
        <time>2023-02-05T14:02:26Z</time>
      </trkpt>
      <trkpt lat="43.77125" lon="5.2277">
        <ele>227.6</ele>
        <time>2023-02-05T14:02:33Z</time>
      </trkpt>
      <trkpt lat="43.77127" lon="5.22742">
        <ele>229.6</ele>
        <time>2023-02-05T14:02:42Z</time>
      </trkpt>
      <trkpt lat="43.77126" lon="5.22723">
        <ele>231</ele>
        <time>2023-02-05T14:02:48Z</time>
      </trkpt>
      <trkpt lat="43.77126" lon="5.22707">
        <ele>232.6</ele>
        <time>2023-02-05T14:02:54Z</time>
      </trkpt>
      <trkpt lat="43.77126" lon="5.22687">
        <ele>234.4</ele>
        <time>2023-02-05T14:03:01Z</time>
      </trkpt>
      <trkpt lat="43.77123" lon="5.22671">
        <ele>236</ele>
        <time>2023-02-05T14:03:07Z</time>
      </trkpt>
      <trkpt lat="43.77123" lon="5.22658">
        <ele>237.2</ele>
        <time>2023-02-05T14:03:12Z</time>
      </trkpt>
      <trkpt lat="43.77122" lon="5.22654">
        <ele>237.6</ele>
        <time>2023-02-05T14:03:14Z</time>
      </trkpt>
      <trkpt lat="43.77122" lon="5.22646">
        <ele>238.4</ele>
        <time>2023-02-05T14:03:17Z</time>
      </trkpt>
      <trkpt lat="43.77122" lon="5.22644">
        <ele>238.6</ele>
        <time>2023-02-05T14:03:18Z</time>
      </trkpt>
      <trkpt lat="43.7712" lon="5.22625">
        <ele>240.2</ele>
        <time>2023-02-05T14:03:25Z</time>
      </trkpt>
      <trkpt lat="43.77121" lon="5.22616">
        <ele>241.2</ele>
        <time>2023-02-05T14:03:29Z</time>
      </trkpt>
      <trkpt lat="43.77121" lon="5.22605">
        <ele>242.2</ele>
        <time>2023-02-05T14:03:34Z</time>
      </trkpt>
      <trkpt lat="43.77123" lon="5.2259">
        <ele>243.4</ele>
        <time>2023-02-05T14:03:40Z</time>
      </trkpt>
      <trkpt lat="43.77125" lon="5.22575">
        <ele>244.8</ele>
        <time>2023-02-05T14:03:46Z</time>
      </trkpt>
      <trkpt lat="43.77127" lon="5.2256">
        <ele>245.2</ele>
        <time>2023-02-05T14:03:51Z</time>
      </trkpt>
      <trkpt lat="43.77128" lon="5.22539">
        <ele>245.6</ele>
        <time>2023-02-05T14:03:56Z</time>
      </trkpt>
      <trkpt lat="43.77125" lon="5.22517">
        <ele>246</ele>
        <time>2023-02-05T14:04:01Z</time>
      </trkpt>
      <trkpt lat="43.77123" lon="5.22514">
        <ele>246.2</ele>
        <time>2023-02-05T14:04:02Z</time>
      </trkpt>
      <trkpt lat="43.77119" lon="5.22514">
        <ele>246.4</ele>
        <time>2023-02-05T14:04:04Z</time>
      </trkpt>
      <trkpt lat="43.77109" lon="5.22521">
        <ele>246.6</ele>
        <time>2023-02-05T14:04:10Z</time>
      </trkpt>
      <trkpt lat="43.77099" lon="5.22531">
        <ele>247</ele>
        <time>2023-02-05T14:04:16Z</time>
      </trkpt>
      <trkpt lat="43.77089" lon="5.22543">
        <ele>247</ele>
        <time>2023-02-05T14:04:21Z</time>
      </trkpt>
      <trkpt lat="43.7708" lon="5.22549">
        <ele>246.8</ele>
        <time>2023-02-05T14:04:25Z</time>
      </trkpt>
      <trkpt lat="43.77066" lon="5.2256">
        <ele>246.8</ele>
        <time>2023-02-05T14:04:31Z</time>
      </trkpt>
      <trkpt lat="43.77058" lon="5.22568">
        <ele>247</ele>
        <time>2023-02-05T14:04:36Z</time>
      </trkpt>
      <trkpt lat="43.77054" lon="5.22572">
        <ele>246.4</ele>
        <time>2023-02-05T14:04:39Z</time>
      </trkpt>
      <trkpt lat="43.77051" lon="5.22577">
        <ele>246.6</ele>
        <time>2023-02-05T14:04:41Z</time>
      </trkpt>
      <trkpt lat="43.77044" lon="5.22588">
        <ele>247</ele>
        <time>2023-02-05T14:04:47Z</time>
      </trkpt>
      <trkpt lat="43.77037" lon="5.22599">
        <ele>247</ele>
        <time>2023-02-05T14:04:52Z</time>
      </trkpt>
      <trkpt lat="43.77031" lon="5.22614">
        <ele>247.8</ele>
        <time>2023-02-05T14:04:58Z</time>
      </trkpt>
      <trkpt lat="43.77027" lon="5.22629">
        <ele>248.6</ele>
        <time>2023-02-05T14:05:03Z</time>
      </trkpt>
      <trkpt lat="43.77018" lon="5.22653">
        <ele>250.6</ele>
        <time>2023-02-05T14:05:08Z</time>
      </trkpt>
      <trkpt lat="43.77011" lon="5.22677">
        <ele>253.2</ele>
        <time>2023-02-05T14:05:12Z</time>
      </trkpt>
      <trkpt lat="43.77003" lon="5.22695">
        <ele>254.6</ele>
        <time>2023-02-05T14:05:18Z</time>
      </trkpt>
      <trkpt lat="43.76997" lon="5.22704">
        <ele>255</ele>
        <time>2023-02-05T14:05:21Z</time>
      </trkpt>
      <trkpt lat="43.76994" lon="5.22704">
        <ele>255.2</ele>
        <time>2023-02-05T14:05:22Z</time>
      </trkpt>
      <trkpt lat="43.76992" lon="5.22703">
        <ele>255.4</ele>
        <time>2023-02-05T14:05:23Z</time>
      </trkpt>
      <trkpt lat="43.7699" lon="5.22696">
        <ele>255.8</ele>
        <time>2023-02-05T14:05:25Z</time>
      </trkpt>
      <trkpt lat="43.76991" lon="5.22666">
        <ele>257.4</ele>
        <time>2023-02-05T14:05:32Z</time>
      </trkpt>
      <trkpt lat="43.76994" lon="5.2263">
        <ele>259.2</ele>
        <time>2023-02-05T14:05:39Z</time>
      </trkpt>
      <trkpt lat="43.76995" lon="5.22596">
        <ele>260.6</ele>
        <time>2023-02-05T14:05:45Z</time>
      </trkpt>
      <trkpt lat="43.76999" lon="5.2258">
        <ele>261.4</ele>
        <time>2023-02-05T14:05:49Z</time>
      </trkpt>
      <trkpt lat="43.76999" lon="5.22576">
        <ele>261.6</ele>
        <time>2023-02-05T14:05:50Z</time>
      </trkpt>
      <trkpt lat="43.76998" lon="5.22572">
        <ele>262</ele>
        <time>2023-02-05T14:05:51Z</time>
      </trkpt>
      <trkpt lat="43.76993" lon="5.22562">
        <ele>262.6</ele>
        <time>2023-02-05T14:05:54Z</time>
      </trkpt>
      <trkpt lat="43.76986" lon="5.22542">
        <ele>263.8</ele>
        <time>2023-02-05T14:05:59Z</time>
      </trkpt>
      <trkpt lat="43.76978" lon="5.22527">
        <ele>264.8</ele>
        <time>2023-02-05T14:06:03Z</time>
      </trkpt>
      <trkpt lat="43.76964" lon="5.22518">
        <ele>265.8</ele>
        <time>2023-02-05T14:06:08Z</time>
      </trkpt>
      <trkpt lat="43.76946" lon="5.22513">
        <ele>267.4</ele>
        <time>2023-02-05T14:06:14Z</time>
      </trkpt>
      <trkpt lat="43.76936" lon="5.22501">
        <ele>268.4</ele>
        <time>2023-02-05T14:06:18Z</time>
      </trkpt>
      <trkpt lat="43.76932" lon="5.22488">
        <ele>269.2</ele>
        <time>2023-02-05T14:06:22Z</time>
      </trkpt>
      <trkpt lat="43.76932" lon="5.22485">
        <ele>269.4</ele>
        <time>2023-02-05T14:06:23Z</time>
      </trkpt>
      <trkpt lat="43.76937" lon="5.22477">
        <ele>270.2</ele>
        <time>2023-02-05T14:06:26Z</time>
      </trkpt>
      <trkpt lat="43.76952" lon="5.22474">
        <ele>272</ele>
        <time>2023-02-05T14:06:32Z</time>
      </trkpt>
      <trkpt lat="43.76976" lon="5.22464">
        <ele>275.2</ele>
        <time>2023-02-05T14:06:42Z</time>
      </trkpt>
      <trkpt lat="43.76994" lon="5.22461">
        <ele>277.2</ele>
        <time>2023-02-05T14:06:49Z</time>
      </trkpt>
      <trkpt lat="43.77012" lon="5.22454">
        <ele>279.2</ele>
        <time>2023-02-05T14:06:56Z</time>
      </trkpt>
      <trkpt lat="43.77028" lon="5.22439">
        <ele>280.8</ele>
        <time>2023-02-05T14:07:02Z</time>
      </trkpt>
      <trkpt lat="43.77047" lon="5.22419">
        <ele>282</ele>
        <time>2023-02-05T14:07:07Z</time>
      </trkpt>
      <trkpt lat="43.77059" lon="5.22403">
        <ele>282.6</ele>
        <time>2023-02-05T14:07:10Z</time>
      </trkpt>
      <trkpt lat="43.77065" lon="5.22393">
        <ele>282.8</ele>
        <time>2023-02-05T14:07:12Z</time>
      </trkpt>
      <trkpt lat="43.77069" lon="5.22388">
        <ele>283</ele>
        <time>2023-02-05T14:07:13Z</time>
      </trkpt>
      <trkpt lat="43.77082" lon="5.22369">
        <ele>283.8</ele>
        <time>2023-02-05T14:07:17Z</time>
      </trkpt>
      <trkpt lat="43.77086" lon="5.22364">
        <ele>284</ele>
        <time>2023-02-05T14:07:18Z</time>
      </trkpt>
      <trkpt lat="43.77094" lon="5.22357">
        <ele>284.4</ele>
        <time>2023-02-05T14:07:20Z</time>
      </trkpt>
      <trkpt lat="43.77099" lon="5.22355">
        <ele>284.6</ele>
        <time>2023-02-05T14:07:21Z</time>
      </trkpt>
      <trkpt lat="43.77114" lon="5.2235">
        <ele>285.4</ele>
        <time>2023-02-05T14:07:25Z</time>
      </trkpt>
      <trkpt lat="43.7713" lon="5.22347">
        <ele>286</ele>
        <time>2023-02-05T14:07:29Z</time>
      </trkpt>
      <trkpt lat="43.77134" lon="5.22346">
        <ele>286</ele>
        <time>2023-02-05T14:07:30Z</time>
      </trkpt>
      <trkpt lat="43.77142" lon="5.22345">
        <ele>286.4</ele>
        <time>2023-02-05T14:07:32Z</time>
      </trkpt>
      <trkpt lat="43.7715" lon="5.22341">
        <ele>286.6</ele>
        <time>2023-02-05T14:07:34Z</time>
      </trkpt>
      <trkpt lat="43.77171" lon="5.22323">
        <ele>287.2</ele>
        <time>2023-02-05T14:07:40Z</time>
      </trkpt>
      <trkpt lat="43.77186" lon="5.22307">
        <ele>288</ele>
        <time>2023-02-05T14:07:46Z</time>
      </trkpt>
      <trkpt lat="43.77195" lon="5.22295">
        <ele>288.6</ele>
        <time>2023-02-05T14:07:51Z</time>
      </trkpt>
      <trkpt lat="43.77197" lon="5.22292">
        <ele>289</ele>
        <time>2023-02-05T14:07:52Z</time>
      </trkpt>
      <trkpt lat="43.77201" lon="5.22288">
        <ele>289.2</ele>
        <time>2023-02-05T14:07:54Z</time>
      </trkpt>
      <trkpt lat="43.77203" lon="5.22283">
        <ele>289.4</ele>
        <time>2023-02-05T14:07:56Z</time>
      </trkpt>
      <trkpt lat="43.77203" lon="5.22281">
        <ele>289.6</ele>
        <time>2023-02-05T14:07:57Z</time>
      </trkpt>
      <trkpt lat="43.77199" lon="5.22268">
        <ele>290</ele>
        <time>2023-02-05T14:08:02Z</time>
      </trkpt>
      <trkpt lat="43.77198" lon="5.22261">
        <ele>290</ele>
        <time>2023-02-05T14:08:04Z</time>
      </trkpt>
      <trkpt lat="43.77202" lon="5.22254">
        <ele>290</ele>
        <time>2023-02-05T14:08:06Z</time>
      </trkpt>
      <trkpt lat="43.77203" lon="5.22251">
        <ele>290</ele>
        <time>2023-02-05T14:08:07Z</time>
      </trkpt>
      <trkpt lat="43.77203" lon="5.22244">
        <ele>289.8</ele>
        <time>2023-02-05T14:08:09Z</time>
      </trkpt>
      <trkpt lat="43.77204" lon="5.2223">
        <ele>289.6</ele>
        <time>2023-02-05T14:08:12Z</time>
      </trkpt>
      <trkpt lat="43.77202" lon="5.22223">
        <ele>289.6</ele>
        <time>2023-02-05T14:08:13Z</time>
      </trkpt>
      <trkpt lat="43.772" lon="5.2221">
        <ele>290.2</ele>
        <time>2023-02-05T14:08:15Z</time>
      </trkpt>
      <trkpt lat="43.77198" lon="5.22203">
        <ele>289.4</ele>
        <time>2023-02-05T14:08:16Z</time>
      </trkpt>
      <trkpt lat="43.77194" lon="5.22182">
        <ele>288.4</ele>
        <time>2023-02-05T14:08:20Z</time>
      </trkpt>
      <trkpt lat="43.77193" lon="5.22159">
        <ele>287.4</ele>
        <time>2023-02-05T14:08:25Z</time>
      </trkpt>
      <trkpt lat="43.77188" lon="5.2214">
        <ele>285.8</ele>
        <time>2023-02-05T14:08:30Z</time>
      </trkpt>
      <trkpt lat="43.77187" lon="5.22122">
        <ele>284.6</ele>
        <time>2023-02-05T14:08:33Z</time>
      </trkpt>
      <trkpt lat="43.77187" lon="5.22116">
        <ele>284.2</ele>
        <time>2023-02-05T14:08:34Z</time>
      </trkpt>
      <trkpt lat="43.77184" lon="5.22098">
        <ele>283</ele>
        <time>2023-02-05T14:08:37Z</time>
      </trkpt>
      <trkpt lat="43.77182" lon="5.22091">
        <ele>282.6</ele>
        <time>2023-02-05T14:08:38Z</time>
      </trkpt>
      <trkpt lat="43.7718" lon="5.22077">
        <ele>281.8</ele>
        <time>2023-02-05T14:08:40Z</time>
      </trkpt>
      <trkpt lat="43.77178" lon="5.22071">
        <ele>281.4</ele>
        <time>2023-02-05T14:08:41Z</time>
      </trkpt>
      <trkpt lat="43.77174" lon="5.22061">
        <ele>280.8</ele>
        <time>2023-02-05T14:08:43Z</time>
      </trkpt>
      <trkpt lat="43.77171" lon="5.22049">
        <ele>280</ele>
        <time>2023-02-05T14:08:45Z</time>
      </trkpt>
      <trkpt lat="43.7716" lon="5.22033">
        <ele>278.8</ele>
        <time>2023-02-05T14:08:48Z</time>
      </trkpt>
      <trkpt lat="43.77157" lon="5.22027">
        <ele>278.4</ele>
        <time>2023-02-05T14:08:49Z</time>
      </trkpt>
      <trkpt lat="43.77152" lon="5.22018">
        <ele>277.4</ele>
        <time>2023-02-05T14:08:51Z</time>
      </trkpt>
      <trkpt lat="43.77148" lon="5.22013">
        <ele>277</ele>
        <time>2023-02-05T14:08:52Z</time>
      </trkpt>
      <trkpt lat="43.77145" lon="5.22009">
        <ele>276.4</ele>
        <time>2023-02-05T14:08:53Z</time>
      </trkpt>
      <trkpt lat="43.77141" lon="5.22002">
        <ele>275.6</ele>
        <time>2023-02-05T14:08:55Z</time>
      </trkpt>
      <trkpt lat="43.77136" lon="5.21992">
        <ele>274</ele>
        <time>2023-02-05T14:08:58Z</time>
      </trkpt>
      <trkpt lat="43.77136" lon="5.21989">
        <ele>273.4</ele>
        <time>2023-02-05T14:08:59Z</time>
      </trkpt>
      <trkpt lat="43.77137" lon="5.21986">
        <ele>272.8</ele>
        <time>2023-02-05T14:09:00Z</time>
      </trkpt>
      <trkpt lat="43.7714" lon="5.21976">
        <ele>271.2</ele>
        <time>2023-02-05T14:09:03Z</time>
      </trkpt>
      <trkpt lat="43.7715" lon="5.21961">
        <ele>268.2</ele>
        <time>2023-02-05T14:09:07Z</time>
      </trkpt>
      <trkpt lat="43.77153" lon="5.21955">
        <ele>266.6</ele>
        <time>2023-02-05T14:09:09Z</time>
      </trkpt>
      <trkpt lat="43.77153" lon="5.21952">
        <ele>265.8</ele>
        <time>2023-02-05T14:09:10Z</time>
      </trkpt>
      <trkpt lat="43.77151" lon="5.21954">
        <ele>262.4</ele>
        <time>2023-02-05T14:09:15Z</time>
      </trkpt>
      <trkpt lat="43.77149" lon="5.21954">
        <ele>259.4</ele>
        <time>2023-02-05T14:09:21Z</time>
      </trkpt>
      <trkpt lat="43.77151" lon="5.21946">
        <ele>259</ele>
        <time>2023-02-05T14:09:23Z</time>
      </trkpt>
      <trkpt lat="43.77146" lon="5.21944">
        <ele>257.2</ele>
        <time>2023-02-05T14:09:26Z</time>
      </trkpt>
      <trkpt lat="43.77144" lon="5.21945">
        <ele>256.8</ele>
        <time>2023-02-05T14:09:27Z</time>
      </trkpt>
      <trkpt lat="43.77132" lon="5.21941">
        <ele>254.8</ele>
        <time>2023-02-05T14:09:31Z</time>
      </trkpt>
      <trkpt lat="43.77128" lon="5.2194">
        <ele>254.4</ele>
        <time>2023-02-05T14:09:32Z</time>
      </trkpt>
      <trkpt lat="43.77118" lon="5.21942">
        <ele>252.6</ele>
        <time>2023-02-05T14:09:35Z</time>
      </trkpt>
      <trkpt lat="43.77113" lon="5.21943">
        <ele>251.8</ele>
        <time>2023-02-05T14:09:36Z</time>
      </trkpt>
      <trkpt lat="43.77102" lon="5.21948">
        <ele>250.6</ele>
        <time>2023-02-05T14:09:38Z</time>
      </trkpt>
      <trkpt lat="43.77097" lon="5.21952">
        <ele>249.2</ele>
        <time>2023-02-05T14:09:40Z</time>
      </trkpt>
      <trkpt lat="43.77092" lon="5.21966">
        <ele>245.8</ele>
        <time>2023-02-05T14:09:44Z</time>
      </trkpt>
      <trkpt lat="43.77092" lon="5.21973">
        <ele>244.2</ele>
        <time>2023-02-05T14:09:46Z</time>
      </trkpt>
      <trkpt lat="43.77093" lon="5.21978">
        <ele>243.4</ele>
        <time>2023-02-05T14:09:47Z</time>
      </trkpt>
      <trkpt lat="43.77092" lon="5.21989">
        <ele>241.6</ele>
        <time>2023-02-05T14:09:49Z</time>
      </trkpt>
      <trkpt lat="43.77094" lon="5.22">
        <ele>240</ele>
        <time>2023-02-05T14:09:51Z</time>
      </trkpt>
      <trkpt lat="43.77094" lon="5.22006">
        <ele>239.2</ele>
        <time>2023-02-05T14:09:52Z</time>
      </trkpt>
      <trkpt lat="43.77095" lon="5.22016">
        <ele>237.4</ele>
        <time>2023-02-05T14:09:54Z</time>
      </trkpt>
      <trkpt lat="43.77093" lon="5.22028">
        <ele>235.6</ele>
        <time>2023-02-05T14:09:56Z</time>
      </trkpt>
      <trkpt lat="43.77092" lon="5.22034">
        <ele>234.6</ele>
        <time>2023-02-05T14:09:57Z</time>
      </trkpt>
      <trkpt lat="43.77091" lon="5.2204">
        <ele>233.8</ele>
        <time>2023-02-05T14:09:58Z</time>
      </trkpt>
      <trkpt lat="43.77088" lon="5.22052">
        <ele>232</ele>
        <time>2023-02-05T14:10:00Z</time>
      </trkpt>
      <trkpt lat="43.77084" lon="5.22065">
        <ele>230.2</ele>
        <time>2023-02-05T14:10:02Z</time>
      </trkpt>
      <trkpt lat="43.7708" lon="5.22076">
        <ele>228.2</ele>
        <time>2023-02-05T14:10:04Z</time>
      </trkpt>
      <trkpt lat="43.77075" lon="5.22086">
        <ele>226.4</ele>
        <time>2023-02-05T14:10:06Z</time>
      </trkpt>
      <trkpt lat="43.77068" lon="5.22095">
        <ele>224.6</ele>
        <time>2023-02-05T14:10:08Z</time>
      </trkpt>
      <trkpt lat="43.77055" lon="5.22108">
        <ele>222.8</ele>
        <time>2023-02-05T14:10:11Z</time>
      </trkpt>
      <trkpt lat="43.7705" lon="5.22113">
        <ele>222.6</ele>
        <time>2023-02-05T14:10:12Z</time>
      </trkpt>
      <trkpt lat="43.77045" lon="5.22117">
        <ele>222.2</ele>
        <time>2023-02-05T14:10:13Z</time>
      </trkpt>
      <trkpt lat="43.77031" lon="5.22127">
        <ele>221.2</ele>
        <time>2023-02-05T14:10:16Z</time>
      </trkpt>
      <trkpt lat="43.77013" lon="5.22136">
        <ele>218.6</ele>
        <time>2023-02-05T14:10:21Z</time>
      </trkpt>
      <trkpt lat="43.76995" lon="5.22133">
        <ele>216.2</ele>
        <time>2023-02-05T14:10:25Z</time>
      </trkpt>
      <trkpt lat="43.7699" lon="5.22132">
        <ele>215.6</ele>
        <time>2023-02-05T14:10:26Z</time>
      </trkpt>
      <trkpt lat="43.76984" lon="5.2213">
        <ele>214.6</ele>
        <time>2023-02-05T14:10:28Z</time>
      </trkpt>
      <trkpt lat="43.76982" lon="5.22131">
        <ele>211.4</ele>
        <time>2023-02-05T14:10:35Z</time>
      </trkpt>
      <trkpt lat="43.7698" lon="5.22132">
        <ele>207.2</ele>
        <time>2023-02-05T14:10:47Z</time>
      </trkpt>
      <trkpt lat="43.76964" lon="5.22144">
        <ele>207.4</ele>
        <time>2023-02-05T14:10:51Z</time>
      </trkpt>
      <trkpt lat="43.76945" lon="5.22157">
        <ele>207.8</ele>
        <time>2023-02-05T14:10:55Z</time>
      </trkpt>
      <trkpt lat="43.76922" lon="5.22156">
        <ele>205.4</ele>
        <time>2023-02-05T14:11:01Z</time>
      </trkpt>
      <trkpt lat="43.76919" lon="5.22158">
        <ele>205</ele>
        <time>2023-02-05T14:11:02Z</time>
      </trkpt>
      <trkpt lat="43.76913" lon="5.22165">
        <ele>204.2</ele>
        <time>2023-02-05T14:11:04Z</time>
      </trkpt>
      <trkpt lat="43.76901" lon="5.22179">
        <ele>203.6</ele>
        <time>2023-02-05T14:11:09Z</time>
      </trkpt>
      <trkpt lat="43.76885" lon="5.22192">
        <ele>203.2</ele>
        <time>2023-02-05T14:11:14Z</time>
      </trkpt>
      <trkpt lat="43.76881" lon="5.22195">
        <ele>203</ele>
        <time>2023-02-05T14:11:15Z</time>
      </trkpt>
      <trkpt lat="43.7687" lon="5.22202">
        <ele>202.8</ele>
        <time>2023-02-05T14:11:18Z</time>
      </trkpt>
      <trkpt lat="43.76859" lon="5.22205">
        <ele>202.6</ele>
        <time>2023-02-05T14:11:21Z</time>
      </trkpt>
      <trkpt lat="43.76855" lon="5.22207">
        <ele>202.4</ele>
        <time>2023-02-05T14:11:22Z</time>
      </trkpt>
      <trkpt lat="43.76851" lon="5.22208">
        <ele>202.4</ele>
        <time>2023-02-05T14:11:23Z</time>
      </trkpt>
      <trkpt lat="43.76838" lon="5.2221">
        <ele>202</ele>
        <time>2023-02-05T14:11:26Z</time>
      </trkpt>
      <trkpt lat="43.76824" lon="5.2222">
        <ele>201.6</ele>
        <time>2023-02-05T14:11:30Z</time>
      </trkpt>
      <trkpt lat="43.76814" lon="5.22227">
        <ele>201.2</ele>
        <time>2023-02-05T14:11:33Z</time>
      </trkpt>
      <trkpt lat="43.76806" lon="5.22231">
        <ele>201.2</ele>
        <time>2023-02-05T14:11:35Z</time>
      </trkpt>
      <trkpt lat="43.76793" lon="5.22243">
        <ele>201</ele>
        <time>2023-02-05T14:11:39Z</time>
      </trkpt>
      <trkpt lat="43.76789" lon="5.22246">
        <ele>201</ele>
        <time>2023-02-05T14:11:40Z</time>
      </trkpt>
      <trkpt lat="43.76769" lon="5.22266">
        <ele>201</ele>
        <time>2023-02-05T14:11:46Z</time>
      </trkpt>
      <trkpt lat="43.7675" lon="5.22297">
        <ele>202.8</ele>
        <time>2023-02-05T14:11:52Z</time>
      </trkpt>
      <trkpt lat="43.76735" lon="5.22324">
        <ele>203.8</ele>
        <time>2023-02-05T14:11:57Z</time>
      </trkpt>
      <trkpt lat="43.76733" lon="5.22328">
        <ele>203.8</ele>
        <time>2023-02-05T14:11:58Z</time>
      </trkpt>
      <trkpt lat="43.76729" lon="5.22344">
        <ele>203.6</ele>
        <time>2023-02-05T14:12:01Z</time>
      </trkpt>
      <trkpt lat="43.76716" lon="5.22383">
        <ele>204</ele>
        <time>2023-02-05T14:12:08Z</time>
      </trkpt>
      <trkpt lat="43.76711" lon="5.22402">
        <ele>204.2</ele>
        <time>2023-02-05T14:12:11Z</time>
      </trkpt>
      <trkpt lat="43.76707" lon="5.22414">
        <ele>204.2</ele>
        <time>2023-02-05T14:12:13Z</time>
      </trkpt>
      <trkpt lat="43.76693" lon="5.22445">
        <ele>204.2</ele>
        <time>2023-02-05T14:12:18Z</time>
      </trkpt>
      <trkpt lat="43.76689" lon="5.22451">
        <ele>204.2</ele>
        <time>2023-02-05T14:12:19Z</time>
      </trkpt>
      <trkpt lat="43.76686" lon="5.22457">
        <ele>204.2</ele>
        <time>2023-02-05T14:12:20Z</time>
      </trkpt>
      <trkpt lat="43.7668" lon="5.22476">
        <ele>204</ele>
        <time>2023-02-05T14:12:23Z</time>
      </trkpt>
      <trkpt lat="43.76679" lon="5.22482">
        <ele>204</ele>
        <time>2023-02-05T14:12:24Z</time>
      </trkpt>
      <trkpt lat="43.76676" lon="5.22502">
        <ele>204</ele>
        <time>2023-02-05T14:12:27Z</time>
      </trkpt>
      <trkpt lat="43.76669" lon="5.22511">
        <ele>203.8</ele>
        <time>2023-02-05T14:12:29Z</time>
      </trkpt>
      <trkpt lat="43.76664" lon="5.22514">
        <ele>203.6</ele>
        <time>2023-02-05T14:12:30Z</time>
      </trkpt>
      <trkpt lat="43.76658" lon="5.22516">
        <ele>203.2</ele>
        <time>2023-02-05T14:12:32Z</time>
      </trkpt>
      <trkpt lat="43.76654" lon="5.22515">
        <ele>202.6</ele>
        <time>2023-02-05T14:12:35Z</time>
      </trkpt>
      <trkpt lat="43.76647" lon="5.22516">
        <ele>202.4</ele>
        <time>2023-02-05T14:12:37Z</time>
      </trkpt>
      <trkpt lat="43.76643" lon="5.22515">
        <ele>202.6</ele>
        <time>2023-02-05T14:12:38Z</time>
      </trkpt>
      <trkpt lat="43.76639" lon="5.22513">
        <ele>202.4</ele>
        <time>2023-02-05T14:12:39Z</time>
      </trkpt>
      <trkpt lat="43.76632" lon="5.22507">
        <ele>202.6</ele>
        <time>2023-02-05T14:12:41Z</time>
      </trkpt>
      <trkpt lat="43.76629" lon="5.22503">
        <ele>202.6</ele>
        <time>2023-02-05T14:12:42Z</time>
      </trkpt>
      <trkpt lat="43.76622" lon="5.22495">
        <ele>202.4</ele>
        <time>2023-02-05T14:12:44Z</time>
      </trkpt>
      <trkpt lat="43.76615" lon="5.22486">
        <ele>202.4</ele>
        <time>2023-02-05T14:12:46Z</time>
      </trkpt>
      <trkpt lat="43.76607" lon="5.22479">
        <ele>202.2</ele>
        <time>2023-02-05T14:12:48Z</time>
      </trkpt>
      <trkpt lat="43.76597" lon="5.22478">
        <ele>202</ele>
        <time>2023-02-05T14:12:50Z</time>
      </trkpt>
      <trkpt lat="43.76581" lon="5.22482">
        <ele>201.4</ele>
        <time>2023-02-05T14:12:54Z</time>
      </trkpt>
      <trkpt lat="43.76579" lon="5.22482">
        <ele>201.2</ele>
        <time>2023-02-05T14:12:55Z</time>
      </trkpt>
      <trkpt lat="43.76573" lon="5.22484">
        <ele>200.8</ele>
        <time>2023-02-05T14:12:58Z</time>
      </trkpt>
      <trkpt lat="43.76567" lon="5.22484">
        <ele>199.8</ele>
        <time>2023-02-05T14:13:05Z</time>
      </trkpt>
      <trkpt lat="43.76565" lon="5.22483">
        <ele>199.4</ele>
        <time>2023-02-05T14:13:10Z</time>
      </trkpt>
      <trkpt lat="43.76561" lon="5.22482">
        <ele>199</ele>
        <time>2023-02-05T14:13:12Z</time>
      </trkpt>
      <trkpt lat="43.76552" lon="5.22484">
        <ele>198.2</ele>
        <time>2023-02-05T14:13:16Z</time>
      </trkpt>
      <trkpt lat="43.76541" lon="5.22489">
        <ele>197.2</ele>
        <time>2023-02-05T14:13:19Z</time>
      </trkpt>
      <trkpt lat="43.76539" lon="5.22491">
        <ele>196.8</ele>
        <time>2023-02-05T14:13:20Z</time>
      </trkpt>
      <trkpt lat="43.76528" lon="5.22504">
        <ele>195.6</ele>
        <time>2023-02-05T14:13:23Z</time>
      </trkpt>
      <trkpt lat="43.76524" lon="5.22509">
        <ele>195.4</ele>
        <time>2023-02-05T14:13:24Z</time>
      </trkpt>
      <trkpt lat="43.76515" lon="5.22527">
        <ele>194.2</ele>
        <time>2023-02-05T14:13:27Z</time>
      </trkpt>
      <trkpt lat="43.76513" lon="5.22533">
        <ele>193.6</ele>
        <time>2023-02-05T14:13:28Z</time>
      </trkpt>
      <trkpt lat="43.76507" lon="5.22554">
        <ele>192.4</ele>
        <time>2023-02-05T14:13:31Z</time>
      </trkpt>
      <trkpt lat="43.76503" lon="5.22565">
        <ele>191.8</ele>
        <time>2023-02-05T14:13:33Z</time>
      </trkpt>
      <trkpt lat="43.76498" lon="5.22575">
        <ele>191</ele>
        <time>2023-02-05T14:13:35Z</time>
      </trkpt>
      <trkpt lat="43.76489" lon="5.22591">
        <ele>190</ele>
        <time>2023-02-05T14:13:38Z</time>
      </trkpt>
      <trkpt lat="43.76482" lon="5.22603">
        <ele>189.6</ele>
        <time>2023-02-05T14:13:40Z</time>
      </trkpt>
      <trkpt lat="43.7648" lon="5.22608">
        <ele>189.2</ele>
        <time>2023-02-05T14:13:41Z</time>
      </trkpt>
      <trkpt lat="43.76473" lon="5.22628">
        <ele>188.4</ele>
        <time>2023-02-05T14:13:44Z</time>
      </trkpt>
      <trkpt lat="43.76469" lon="5.22641">
        <ele>188</ele>
        <time>2023-02-05T14:13:46Z</time>
      </trkpt>
      <trkpt lat="43.76461" lon="5.22663">
        <ele>186.4</ele>
        <time>2023-02-05T14:13:50Z</time>
      </trkpt>
      <trkpt lat="43.76458" lon="5.2267">
        <ele>186.2</ele>
        <time>2023-02-05T14:13:51Z</time>
      </trkpt>
      <trkpt lat="43.76454" lon="5.22675">
        <ele>186</ele>
        <time>2023-02-05T14:13:52Z</time>
      </trkpt>
      <trkpt lat="43.76441" lon="5.22688">
        <ele>184.8</ele>
        <time>2023-02-05T14:13:55Z</time>
      </trkpt>
      <trkpt lat="43.76437" lon="5.22689">
        <ele>184.4</ele>
        <time>2023-02-05T14:13:56Z</time>
      </trkpt>
      <trkpt lat="43.76428" lon="5.22696">
        <ele>183.6</ele>
        <time>2023-02-05T14:13:58Z</time>
      </trkpt>
      <trkpt lat="43.76416" lon="5.22716">
        <ele>182.2</ele>
        <time>2023-02-05T14:14:01Z</time>
      </trkpt>
      <trkpt lat="43.76411" lon="5.22722">
        <ele>181.8</ele>
        <time>2023-02-05T14:14:02Z</time>
      </trkpt>
      <trkpt lat="43.76408" lon="5.22728">
        <ele>181.2</ele>
        <time>2023-02-05T14:14:03Z</time>
      </trkpt>
      <trkpt lat="43.76399" lon="5.22745">
        <ele>179.6</ele>
        <time>2023-02-05T14:14:06Z</time>
      </trkpt>
      <trkpt lat="43.76387" lon="5.22766">
        <ele>178.6</ele>
        <time>2023-02-05T14:14:09Z</time>
      </trkpt>
      <trkpt lat="43.76377" lon="5.22777">
        <ele>178</ele>
        <time>2023-02-05T14:14:11Z</time>
      </trkpt>
      <trkpt lat="43.76369" lon="5.22789">
        <ele>177.6</ele>
        <time>2023-02-05T14:14:13Z</time>
      </trkpt>
      <trkpt lat="43.7635" lon="5.22826">
        <ele>176.4</ele>
        <time>2023-02-05T14:14:18Z</time>
      </trkpt>
      <trkpt lat="43.76342" lon="5.22848">
        <ele>175.8</ele>
        <time>2023-02-05T14:14:21Z</time>
      </trkpt>
      <trkpt lat="43.76339" lon="5.22855">
        <ele>175.6</ele>
        <time>2023-02-05T14:14:22Z</time>
      </trkpt>
      <trkpt lat="43.76322" lon="5.22892">
        <ele>174.6</ele>
        <time>2023-02-05T14:14:28Z</time>
      </trkpt>
      <trkpt lat="43.76297" lon="5.22937">
        <ele>174</ele>
        <time>2023-02-05T14:14:34Z</time>
      </trkpt>
      <trkpt lat="43.76289" lon="5.22952">
        <ele>173.8</ele>
        <time>2023-02-05T14:14:36Z</time>
      </trkpt>
      <trkpt lat="43.76279" lon="5.22967">
        <ele>173.6</ele>
        <time>2023-02-05T14:14:38Z</time>
      </trkpt>
      <trkpt lat="43.76257" lon="5.23002">
        <ele>172.6</ele>
        <time>2023-02-05T14:14:43Z</time>
      </trkpt>
      <trkpt lat="43.76248" lon="5.23016">
        <ele>172.4</ele>
        <time>2023-02-05T14:14:45Z</time>
      </trkpt>
      <trkpt lat="43.76242" lon="5.23021">
        <ele>172.2</ele>
        <time>2023-02-05T14:14:46Z</time>
      </trkpt>
      <trkpt lat="43.76236" lon="5.23024">
        <ele>172</ele>
        <time>2023-02-05T14:14:47Z</time>
      </trkpt>
      <trkpt lat="43.76222" lon="5.23025">
        <ele>171.6</ele>
        <time>2023-02-05T14:14:49Z</time>
      </trkpt>
      <trkpt lat="43.76203" lon="5.23025">
        <ele>170.8</ele>
        <time>2023-02-05T14:14:52Z</time>
      </trkpt>
      <trkpt lat="43.7619" lon="5.23025">
        <ele>170.4</ele>
        <time>2023-02-05T14:14:54Z</time>
      </trkpt>
      <trkpt lat="43.76184" lon="5.23026">
        <ele>170</ele>
        <time>2023-02-05T14:14:55Z</time>
      </trkpt>
      <trkpt lat="43.76176" lon="5.23032">
        <ele>169.4</ele>
        <time>2023-02-05T14:14:57Z</time>
      </trkpt>
      <trkpt lat="43.76172" lon="5.23044">
        <ele>169</ele>
        <time>2023-02-05T14:14:59Z</time>
      </trkpt>
      <trkpt lat="43.76172" lon="5.23052">
        <ele>168.6</ele>
        <time>2023-02-05T14:15:00Z</time>
      </trkpt>
      <trkpt lat="43.76174" lon="5.23076">
        <ele>168</ele>
        <time>2023-02-05T14:15:03Z</time>
      </trkpt>
      <trkpt lat="43.76179" lon="5.23089">
        <ele>167.8</ele>
        <time>2023-02-05T14:15:05Z</time>
      </trkpt>
      <trkpt lat="43.76182" lon="5.23095">
        <ele>167.6</ele>
        <time>2023-02-05T14:15:06Z</time>
      </trkpt>
      <trkpt lat="43.76188" lon="5.23107">
        <ele>167.2</ele>
        <time>2023-02-05T14:15:08Z</time>
      </trkpt>
      <trkpt lat="43.76191" lon="5.23113">
        <ele>166.8</ele>
        <time>2023-02-05T14:15:09Z</time>
      </trkpt>
      <trkpt lat="43.76196" lon="5.23125">
        <ele>166.6</ele>
        <time>2023-02-05T14:15:11Z</time>
      </trkpt>
      <trkpt lat="43.76205" lon="5.23143">
        <ele>165.8</ele>
        <time>2023-02-05T14:15:14Z</time>
      </trkpt>
      <trkpt lat="43.76211" lon="5.23155">
        <ele>165.4</ele>
        <time>2023-02-05T14:15:16Z</time>
      </trkpt>
      <trkpt lat="43.76215" lon="5.23169">
        <ele>165</ele>
        <time>2023-02-05T14:15:18Z</time>
      </trkpt>
      <trkpt lat="43.76213" lon="5.23184">
        <ele>164.4</ele>
        <time>2023-02-05T14:15:20Z</time>
      </trkpt>
      <trkpt lat="43.76212" lon="5.23191">
        <ele>164.2</ele>
        <time>2023-02-05T14:15:21Z</time>
      </trkpt>
      <trkpt lat="43.76211" lon="5.23198">
        <ele>163.8</ele>
        <time>2023-02-05T14:15:22Z</time>
      </trkpt>
      <trkpt lat="43.76209" lon="5.23213">
        <ele>163.2</ele>
        <time>2023-02-05T14:15:24Z</time>
      </trkpt>
      <trkpt lat="43.76208" lon="5.23222">
        <ele>163</ele>
        <time>2023-02-05T14:15:25Z</time>
      </trkpt>
      <trkpt lat="43.76209" lon="5.23231">
        <ele>162.8</ele>
        <time>2023-02-05T14:15:26Z</time>
      </trkpt>
      <trkpt lat="43.76209" lon="5.23249">
        <ele>162.2</ele>
        <time>2023-02-05T14:15:28Z</time>
      </trkpt>
      <trkpt lat="43.762" lon="5.23291">
        <ele>161</ele>
        <time>2023-02-05T14:15:33Z</time>
      </trkpt>
      <trkpt lat="43.7619" lon="5.233">
        <ele>160.4</ele>
        <time>2023-02-05T14:15:35Z</time>
      </trkpt>
      <trkpt lat="43.76184" lon="5.23303">
        <ele>160.2</ele>
        <time>2023-02-05T14:15:36Z</time>
      </trkpt>
      <trkpt lat="43.76178" lon="5.23304">
        <ele>160</ele>
        <time>2023-02-05T14:15:37Z</time>
      </trkpt>
      <trkpt lat="43.76167" lon="5.233">
        <ele>159.6</ele>
        <time>2023-02-05T14:15:39Z</time>
      </trkpt>
      <trkpt lat="43.76149" lon="5.2329">
        <ele>158.8</ele>
        <time>2023-02-05T14:15:42Z</time>
      </trkpt>
      <trkpt lat="43.76143" lon="5.23289">
        <ele>158.6</ele>
        <time>2023-02-05T14:15:43Z</time>
      </trkpt>
      <trkpt lat="43.76137" lon="5.23291">
        <ele>158.2</ele>
        <time>2023-02-05T14:15:44Z</time>
      </trkpt>
      <trkpt lat="43.76126" lon="5.23297">
        <ele>157.6</ele>
        <time>2023-02-05T14:15:46Z</time>
      </trkpt>
      <trkpt lat="43.76115" lon="5.23304">
        <ele>156.8</ele>
        <time>2023-02-05T14:15:48Z</time>
      </trkpt>
      <trkpt lat="43.76105" lon="5.2331">
        <ele>156.2</ele>
        <time>2023-02-05T14:15:50Z</time>
      </trkpt>
      <trkpt lat="43.76082" lon="5.23315">
        <ele>154.6</ele>
        <time>2023-02-05T14:15:54Z</time>
      </trkpt>
      <trkpt lat="43.76076" lon="5.23315">
        <ele>154.2</ele>
        <time>2023-02-05T14:15:55Z</time>
      </trkpt>
      <trkpt lat="43.76062" lon="5.23319">
        <ele>153.6</ele>
        <time>2023-02-05T14:15:57Z</time>
      </trkpt>
      <trkpt lat="43.76057" lon="5.2332">
        <ele>153.4</ele>
        <time>2023-02-05T14:15:58Z</time>
      </trkpt>
      <trkpt lat="43.76051" lon="5.23311">
        <ele>152.2</ele>
        <time>2023-02-05T14:16:01Z</time>
      </trkpt>
      <trkpt lat="43.76039" lon="5.23305">
        <ele>151.2</ele>
        <time>2023-02-05T14:16:05Z</time>
      </trkpt>
      <trkpt lat="43.76029" lon="5.233">
        <ele>151.4</ele>
        <time>2023-02-05T14:16:09Z</time>
      </trkpt>
      <trkpt lat="43.76016" lon="5.233">
        <ele>150.8</ele>
        <time>2023-02-05T14:16:13Z</time>
      </trkpt>
      <trkpt lat="43.76011" lon="5.23302">
        <ele>150.6</ele>
        <time>2023-02-05T14:16:14Z</time>
      </trkpt>
      <trkpt lat="43.75975" lon="5.23308">
        <ele>149.6</ele>
        <time>2023-02-05T14:16:21Z</time>
      </trkpt>
      <trkpt lat="43.7596" lon="5.23312">
        <ele>149.4</ele>
        <time>2023-02-05T14:16:24Z</time>
      </trkpt>
      <trkpt lat="43.75946" lon="5.23317">
        <ele>149</ele>
        <time>2023-02-05T14:16:27Z</time>
      </trkpt>
      <trkpt lat="43.75936" lon="5.23315">
        <ele>148.8</ele>
        <time>2023-02-05T14:16:29Z</time>
      </trkpt>
      <trkpt lat="43.75932" lon="5.23311">
        <ele>148.8</ele>
        <time>2023-02-05T14:16:30Z</time>
      </trkpt>
      <trkpt lat="43.75929" lon="5.23306">
        <ele>148.8</ele>
        <time>2023-02-05T14:16:31Z</time>
      </trkpt>
      <trkpt lat="43.75926" lon="5.23295">
        <ele>148.4</ele>
        <time>2023-02-05T14:16:33Z</time>
      </trkpt>
      <trkpt lat="43.7592" lon="5.2326">
        <ele>148</ele>
        <time>2023-02-05T14:16:39Z</time>
      </trkpt>
      <trkpt lat="43.75918" lon="5.23256">
        <ele>148</ele>
        <time>2023-02-05T14:16:40Z</time>
      </trkpt>
      <trkpt lat="43.75906" lon="5.23246">
        <ele>147.8</ele>
        <time>2023-02-05T14:16:44Z</time>
      </trkpt>
      <trkpt lat="43.75894" lon="5.23244">
        <ele>147.4</ele>
        <time>2023-02-05T14:16:47Z</time>
      </trkpt>
      <trkpt lat="43.75868" lon="5.23247">
        <ele>146.6</ele>
        <time>2023-02-05T14:16:51Z</time>
      </trkpt>
      <trkpt lat="43.75823" lon="5.23253">
        <ele>145.4</ele>
        <time>2023-02-05T14:16:57Z</time>
      </trkpt>
      <trkpt lat="43.75771" lon="5.23263">
        <ele>144.2</ele>
        <time>2023-02-05T14:17:04Z</time>
      </trkpt>
      <trkpt lat="43.75756" lon="5.23268">
        <ele>143.8</ele>
        <time>2023-02-05T14:17:06Z</time>
      </trkpt>
      <trkpt lat="43.75734" lon="5.2327">
        <ele>143.2</ele>
        <time>2023-02-05T14:17:09Z</time>
      </trkpt>
      <trkpt lat="43.75727" lon="5.2327">
        <ele>143</ele>
        <time>2023-02-05T14:17:10Z</time>
      </trkpt>
      <trkpt lat="43.757" lon="5.23267">
        <ele>142.6</ele>
        <time>2023-02-05T14:17:14Z</time>
      </trkpt>
      <trkpt lat="43.75693" lon="5.23265">
        <ele>142.4</ele>
        <time>2023-02-05T14:17:15Z</time>
      </trkpt>
      <trkpt lat="43.75681" lon="5.23257">
        <ele>142.4</ele>
        <time>2023-02-05T14:17:17Z</time>
      </trkpt>
      <trkpt lat="43.75672" lon="5.23246">
        <ele>142.4</ele>
        <time>2023-02-05T14:17:19Z</time>
      </trkpt>
      <trkpt lat="43.75666" lon="5.23234">
        <ele>142.2</ele>
        <time>2023-02-05T14:17:21Z</time>
      </trkpt>
      <trkpt lat="43.75662" lon="5.23222">
        <ele>142.2</ele>
        <time>2023-02-05T14:17:23Z</time>
      </trkpt>
      <trkpt lat="43.75661" lon="5.2321">
        <ele>142</ele>
        <time>2023-02-05T14:17:25Z</time>
      </trkpt>
      <trkpt lat="43.75661" lon="5.23197">
        <ele>141.4</ele>
        <time>2023-02-05T14:17:27Z</time>
      </trkpt>
      <trkpt lat="43.75658" lon="5.23183">
        <ele>141</ele>
        <time>2023-02-05T14:17:29Z</time>
      </trkpt>
      <trkpt lat="43.75656" lon="5.23177">
        <ele>141</ele>
        <time>2023-02-05T14:17:30Z</time>
      </trkpt>
      <trkpt lat="43.75649" lon="5.23163">
        <ele>140.6</ele>
        <time>2023-02-05T14:17:33Z</time>
      </trkpt>
      <trkpt lat="43.75642" lon="5.23133">
        <ele>140.6</ele>
        <time>2023-02-05T14:17:39Z</time>
      </trkpt>
      <trkpt lat="43.75641" lon="5.23105">
        <ele>141</ele>
        <time>2023-02-05T14:17:45Z</time>
      </trkpt>
      <trkpt lat="43.75648" lon="5.23082">
        <ele>141</ele>
        <time>2023-02-05T14:17:51Z</time>
      </trkpt>
      <trkpt lat="43.75659" lon="5.23051">
        <ele>142.2</ele>
        <time>2023-02-05T14:17:59Z</time>
      </trkpt>
      <trkpt lat="43.75653" lon="5.23037">
        <ele>142.8</ele>
        <time>2023-02-05T14:18:03Z</time>
      </trkpt>
      <trkpt lat="43.75643" lon="5.23014">
        <ele>143.6</ele>
        <time>2023-02-05T14:18:09Z</time>
      </trkpt>
      <trkpt lat="43.75642" lon="5.22994">
        <ele>144.4</ele>
        <time>2023-02-05T14:18:14Z</time>
      </trkpt>
      <trkpt lat="43.7565" lon="5.22972">
        <ele>145.2</ele>
        <time>2023-02-05T14:18:21Z</time>
      </trkpt>
      <trkpt lat="43.75658" lon="5.22948">
        <ele>145.8</ele>
        <time>2023-02-05T14:18:26Z</time>
      </trkpt>
      <trkpt lat="43.75667" lon="5.22924">
        <ele>146.4</ele>
        <time>2023-02-05T14:18:30Z</time>
      </trkpt>
      <trkpt lat="43.7567" lon="5.22918">
        <ele>146.4</ele>
        <time>2023-02-05T14:18:31Z</time>
      </trkpt>
      <trkpt lat="43.75675" lon="5.22912">
        <ele>146.4</ele>
        <time>2023-02-05T14:18:32Z</time>
      </trkpt>
      <trkpt lat="43.75687" lon="5.22902">
        <ele>146.4</ele>
        <time>2023-02-05T14:18:34Z</time>
      </trkpt>
      <trkpt lat="43.75699" lon="5.22898">
        <ele>146.6</ele>
        <time>2023-02-05T14:18:36Z</time>
      </trkpt>
      <trkpt lat="43.75703" lon="5.22895">
        <ele>146.6</ele>
        <time>2023-02-05T14:18:37Z</time>
      </trkpt>
      <trkpt lat="43.75705" lon="5.2289">
        <ele>146.6</ele>
        <time>2023-02-05T14:18:38Z</time>
      </trkpt>
      <trkpt lat="43.75703" lon="5.22878">
        <ele>146.6</ele>
        <time>2023-02-05T14:18:40Z</time>
      </trkpt>
      <trkpt lat="43.75694" lon="5.22871">
        <ele>146.6</ele>
        <time>2023-02-05T14:18:43Z</time>
      </trkpt>
      <trkpt lat="43.75679" lon="5.22867">
        <ele>146.4</ele>
        <time>2023-02-05T14:18:47Z</time>
      </trkpt>
      <trkpt lat="43.75668" lon="5.2286">
        <ele>146.4</ele>
        <time>2023-02-05T14:18:51Z</time>
      </trkpt>
      <trkpt lat="43.75656" lon="5.2285">
        <ele>146.6</ele>
        <time>2023-02-05T14:18:56Z</time>
      </trkpt>
      <trkpt lat="43.75648" lon="5.22827">
        <ele>147.2</ele>
        <time>2023-02-05T14:19:02Z</time>
      </trkpt>
      <trkpt lat="43.75645" lon="5.22816">
        <ele>147.4</ele>
        <time>2023-02-05T14:19:04Z</time>
      </trkpt>
      <trkpt lat="43.75641" lon="5.22793">
        <ele>147.4</ele>
        <time>2023-02-05T14:19:08Z</time>
      </trkpt>
      <trkpt lat="43.7564" lon="5.22779">
        <ele>147.4</ele>
        <time>2023-02-05T14:19:10Z</time>
      </trkpt>
      <trkpt lat="43.75641" lon="5.22766">
        <ele>147.4</ele>
        <time>2023-02-05T14:19:12Z</time>
      </trkpt>
      <trkpt lat="43.75641" lon="5.22759">
        <ele>147.4</ele>
        <time>2023-02-05T14:19:13Z</time>
      </trkpt>
      <trkpt lat="43.75641" lon="5.22744">
        <ele>147.2</ele>
        <time>2023-02-05T14:19:15Z</time>
      </trkpt>
      <trkpt lat="43.75644" lon="5.22719">
        <ele>147.2</ele>
        <time>2023-02-05T14:19:18Z</time>
      </trkpt>
      <trkpt lat="43.75644" lon="5.22711">
        <ele>147.2</ele>
        <time>2023-02-05T14:19:19Z</time>
      </trkpt>
      <trkpt lat="43.75642" lon="5.22695">
        <ele>147.6</ele>
        <time>2023-02-05T14:19:21Z</time>
      </trkpt>
      <trkpt lat="43.75641" lon="5.22686">
        <ele>147.6</ele>
        <time>2023-02-05T14:19:22Z</time>
      </trkpt>
      <trkpt lat="43.75637" lon="5.22658">
        <ele>147.4</ele>
        <time>2023-02-05T14:19:26Z</time>
      </trkpt>
      <trkpt lat="43.75637" lon="5.22651">
        <ele>147.4</ele>
        <time>2023-02-05T14:19:27Z</time>
      </trkpt>
      <trkpt lat="43.75643" lon="5.22604">
        <ele>147.2</ele>
        <time>2023-02-05T14:19:34Z</time>
      </trkpt>
      <trkpt lat="43.75651" lon="5.2256">
        <ele>147</ele>
        <time>2023-02-05T14:19:40Z</time>
      </trkpt>
      <trkpt lat="43.75653" lon="5.22552">
        <ele>146.8</ele>
        <time>2023-02-05T14:19:41Z</time>
      </trkpt>
      <trkpt lat="43.75658" lon="5.22537">
        <ele>146.8</ele>
        <time>2023-02-05T14:19:43Z</time>
      </trkpt>
      <trkpt lat="43.75662" lon="5.22529">
        <ele>146.6</ele>
        <time>2023-02-05T14:19:44Z</time>
      </trkpt>
      <trkpt lat="43.75665" lon="5.22523">
        <ele>146.6</ele>
        <time>2023-02-05T14:19:45Z</time>
      </trkpt>
      <trkpt lat="43.75673" lon="5.22504">
        <ele>146.2</ele>
        <time>2023-02-05T14:19:48Z</time>
      </trkpt>
      <trkpt lat="43.75674" lon="5.2249">
        <ele>146</ele>
        <time>2023-02-05T14:19:50Z</time>
      </trkpt>
      <trkpt lat="43.75674" lon="5.22483">
        <ele>146</ele>
        <time>2023-02-05T14:19:51Z</time>
      </trkpt>
      <trkpt lat="43.75673" lon="5.22476">
        <ele>146</ele>
        <time>2023-02-05T14:19:52Z</time>
      </trkpt>
      <trkpt lat="43.75669" lon="5.22464">
        <ele>145.8</ele>
        <time>2023-02-05T14:19:54Z</time>
      </trkpt>
      <trkpt lat="43.75667" lon="5.22459">
        <ele>145.8</ele>
        <time>2023-02-05T14:19:55Z</time>
      </trkpt>
      <trkpt lat="43.75654" lon="5.22438">
        <ele>145.8</ele>
        <time>2023-02-05T14:20:00Z</time>
      </trkpt>
      <trkpt lat="43.75652" lon="5.22423">
        <ele>146</ele>
        <time>2023-02-05T14:20:03Z</time>
      </trkpt>
      <trkpt lat="43.75651" lon="5.22411">
        <ele>145.6</ele>
        <time>2023-02-05T14:20:05Z</time>
      </trkpt>
      <trkpt lat="43.75653" lon="5.22386">
        <ele>147.2</ele>
        <time>2023-02-05T14:20:09Z</time>
      </trkpt>
      <trkpt lat="43.75656" lon="5.22373">
        <ele>146.6</ele>
        <time>2023-02-05T14:20:11Z</time>
      </trkpt>
      <trkpt lat="43.75669" lon="5.22321">
        <ele>146.8</ele>
        <time>2023-02-05T14:20:19Z</time>
      </trkpt>
      <trkpt lat="43.75676" lon="5.22292">
        <ele>147</ele>
        <time>2023-02-05T14:20:23Z</time>
      </trkpt>
      <trkpt lat="43.75676" lon="5.22284">
        <ele>147</ele>
        <time>2023-02-05T14:20:24Z</time>
      </trkpt>
      <trkpt lat="43.75676" lon="5.22277">
        <ele>147</ele>
        <time>2023-02-05T14:20:25Z</time>
      </trkpt>
      <trkpt lat="43.75671" lon="5.22246">
        <ele>147.2</ele>
        <time>2023-02-05T14:20:29Z</time>
      </trkpt>
      <trkpt lat="43.75665" lon="5.22199">
        <ele>147.2</ele>
        <time>2023-02-05T14:20:34Z</time>
      </trkpt>
      <trkpt lat="43.75662" lon="5.22172">
        <ele>147</ele>
        <time>2023-02-05T14:20:37Z</time>
      </trkpt>
      <trkpt lat="43.7566" lon="5.22154">
        <ele>147</ele>
        <time>2023-02-05T14:20:39Z</time>
      </trkpt>
      <trkpt lat="43.75655" lon="5.22139">
        <ele>147</ele>
        <time>2023-02-05T14:20:41Z</time>
      </trkpt>
      <trkpt lat="43.75649" lon="5.22127">
        <ele>147.2</ele>
        <time>2023-02-05T14:20:43Z</time>
      </trkpt>
      <trkpt lat="43.75647" lon="5.22122">
        <ele>147.2</ele>
        <time>2023-02-05T14:20:44Z</time>
      </trkpt>
      <trkpt lat="43.75641" lon="5.22108">
        <ele>147.4</ele>
        <time>2023-02-05T14:20:47Z</time>
      </trkpt>
      <trkpt lat="43.7563" lon="5.22087">
        <ele>147.6</ele>
        <time>2023-02-05T14:20:53Z</time>
      </trkpt>
      <trkpt lat="43.75621" lon="5.22069">
        <ele>148.2</ele>
        <time>2023-02-05T14:20:59Z</time>
      </trkpt>
      <trkpt lat="43.75616" lon="5.22036">
        <ele>149.2</ele>
        <time>2023-02-05T14:21:06Z</time>
      </trkpt>
      <trkpt lat="43.75612" lon="5.21993">
        <ele>150</ele>
        <time>2023-02-05T14:21:13Z</time>
      </trkpt>
      <trkpt lat="43.75611" lon="5.21938">
        <ele>151</ele>
        <time>2023-02-05T14:21:21Z</time>
      </trkpt>
      <trkpt lat="43.75611" lon="5.21911">
        <ele>151.2</ele>
        <time>2023-02-05T14:21:25Z</time>
      </trkpt>
      <trkpt lat="43.75612" lon="5.21897">
        <ele>151.4</ele>
        <time>2023-02-05T14:21:27Z</time>
      </trkpt>
      <trkpt lat="43.75616" lon="5.2185">
        <ele>151.6</ele>
        <time>2023-02-05T14:21:33Z</time>
      </trkpt>
      <trkpt lat="43.75616" lon="5.21817">
        <ele>151.8</ele>
        <time>2023-02-05T14:21:37Z</time>
      </trkpt>
      <trkpt lat="43.75618" lon="5.21754">
        <ele>152.2</ele>
        <time>2023-02-05T14:21:44Z</time>
      </trkpt>
      <trkpt lat="43.75612" lon="5.2171">
        <ele>152.4</ele>
        <time>2023-02-05T14:21:49Z</time>
      </trkpt>
      <trkpt lat="43.75602" lon="5.21655">
        <ele>152.8</ele>
        <time>2023-02-05T14:21:55Z</time>
      </trkpt>
      <trkpt lat="43.756" lon="5.21646">
        <ele>152.8</ele>
        <time>2023-02-05T14:21:56Z</time>
      </trkpt>
      <trkpt lat="43.75593" lon="5.21616">
        <ele>152.8</ele>
        <time>2023-02-05T14:21:59Z</time>
      </trkpt>
      <trkpt lat="43.75586" lon="5.21563">
        <ele>152.6</ele>
        <time>2023-02-05T14:22:04Z</time>
      </trkpt>
      <trkpt lat="43.75577" lon="5.21515">
        <ele>152.2</ele>
        <time>2023-02-05T14:22:09Z</time>
      </trkpt>
      <trkpt lat="43.75571" lon="5.2148">
        <ele>152</ele>
        <time>2023-02-05T14:22:13Z</time>
      </trkpt>
      <trkpt lat="43.75562" lon="5.21447">
        <ele>151.8</ele>
        <time>2023-02-05T14:22:17Z</time>
      </trkpt>
      <trkpt lat="43.7555" lon="5.214">
        <ele>151.4</ele>
        <time>2023-02-05T14:22:23Z</time>
      </trkpt>
      <trkpt lat="43.75538" lon="5.2135">
        <ele>151.2</ele>
        <time>2023-02-05T14:22:29Z</time>
      </trkpt>
      <trkpt lat="43.75534" lon="5.21336">
        <ele>151</ele>
        <time>2023-02-05T14:22:31Z</time>
      </trkpt>
      <trkpt lat="43.7553" lon="5.2133">
        <ele>150.8</ele>
        <time>2023-02-05T14:22:32Z</time>
      </trkpt>
      <trkpt lat="43.75506" lon="5.21289">
        <ele>150.4</ele>
        <time>2023-02-05T14:22:37Z</time>
      </trkpt>
      <trkpt lat="43.75501" lon="5.21279">
        <ele>150.2</ele>
        <time>2023-02-05T14:22:38Z</time>
      </trkpt>
      <trkpt lat="43.75484" lon="5.21238">
        <ele>149.6</ele>
        <time>2023-02-05T14:22:42Z</time>
      </trkpt>
      <trkpt lat="43.75477" lon="5.2122">
        <ele>149.6</ele>
        <time>2023-02-05T14:22:44Z</time>
      </trkpt>
      <trkpt lat="43.75468" lon="5.21194">
        <ele>149.4</ele>
        <time>2023-02-05T14:22:47Z</time>
      </trkpt>
      <trkpt lat="43.75446" lon="5.21152">
        <ele>149.4</ele>
        <time>2023-02-05T14:22:53Z</time>
      </trkpt>
      <trkpt lat="43.75443" lon="5.21147">
        <ele>149.2</ele>
        <time>2023-02-05T14:22:54Z</time>
      </trkpt>
      <trkpt lat="43.75441" lon="5.21136">
        <ele>149.2</ele>
        <time>2023-02-05T14:22:56Z</time>
      </trkpt>
      <trkpt lat="43.75441" lon="5.2113">
        <ele>149.2</ele>
        <time>2023-02-05T14:22:57Z</time>
      </trkpt>
      <trkpt lat="43.75441" lon="5.21125">
        <ele>149.2</ele>
        <time>2023-02-05T14:22:58Z</time>
      </trkpt>
      <trkpt lat="43.75446" lon="5.21102">
        <ele>149.2</ele>
        <time>2023-02-05T14:23:02Z</time>
      </trkpt>
      <trkpt lat="43.75452" lon="5.21086">
        <ele>149.4</ele>
        <time>2023-02-05T14:23:05Z</time>
      </trkpt>
      <trkpt lat="43.75461" lon="5.21056">
        <ele>149</ele>
        <time>2023-02-05T14:23:10Z</time>
      </trkpt>
      <trkpt lat="43.75481" lon="5.21004">
        <ele>149.8</ele>
        <time>2023-02-05T14:23:19Z</time>
      </trkpt>
      <trkpt lat="43.75499" lon="5.20961">
        <ele>150.2</ele>
        <time>2023-02-05T14:23:26Z</time>
      </trkpt>
      <trkpt lat="43.75507" lon="5.20942">
        <ele>150.6</ele>
        <time>2023-02-05T14:23:29Z</time>
      </trkpt>
      <trkpt lat="43.75513" lon="5.2093">
        <ele>150.6</ele>
        <time>2023-02-05T14:23:31Z</time>
      </trkpt>
      <trkpt lat="43.75516" lon="5.20924">
        <ele>150.8</ele>
        <time>2023-02-05T14:23:32Z</time>
      </trkpt>
      <trkpt lat="43.75533" lon="5.20885">
        <ele>151.4</ele>
        <time>2023-02-05T14:23:38Z</time>
      </trkpt>
      <trkpt lat="43.75558" lon="5.20824">
        <ele>152.2</ele>
        <time>2023-02-05T14:23:47Z</time>
      </trkpt>
      <trkpt lat="43.75569" lon="5.20771">
        <ele>153.2</ele>
        <time>2023-02-05T14:23:54Z</time>
      </trkpt>
      <trkpt lat="43.7557" lon="5.20738">
        <ele>153.4</ele>
        <time>2023-02-05T14:23:58Z</time>
      </trkpt>
      <trkpt lat="43.75571" lon="5.2073">
        <ele>153.6</ele>
        <time>2023-02-05T14:23:59Z</time>
      </trkpt>
      <trkpt lat="43.75571" lon="5.20671">
        <ele>154.2</ele>
        <time>2023-02-05T14:24:06Z</time>
      </trkpt>
      <trkpt lat="43.75572" lon="5.2063">
        <ele>154.6</ele>
        <time>2023-02-05T14:24:11Z</time>
      </trkpt>
      <trkpt lat="43.75573" lon="5.20582">
        <ele>154.8</ele>
        <time>2023-02-05T14:24:17Z</time>
      </trkpt>
      <trkpt lat="43.75574" lon="5.20528">
        <ele>155.4</ele>
        <time>2023-02-05T14:24:24Z</time>
      </trkpt>
      <trkpt lat="43.75574" lon="5.20489">
        <ele>155.6</ele>
        <time>2023-02-05T14:24:29Z</time>
      </trkpt>
      <trkpt lat="43.75575" lon="5.20482">
        <ele>155.6</ele>
        <time>2023-02-05T14:24:30Z</time>
      </trkpt>
      <trkpt lat="43.75575" lon="5.2046">
        <ele>155.8</ele>
        <time>2023-02-05T14:24:33Z</time>
      </trkpt>
      <trkpt lat="43.75576" lon="5.20444">
        <ele>156</ele>
        <time>2023-02-05T14:24:35Z</time>
      </trkpt>
      <trkpt lat="43.75576" lon="5.20392">
        <ele>156.4</ele>
        <time>2023-02-05T14:24:42Z</time>
      </trkpt>
      <trkpt lat="43.75577" lon="5.20385">
        <ele>156.4</ele>
        <time>2023-02-05T14:24:43Z</time>
      </trkpt>
      <trkpt lat="43.75578" lon="5.2037">
        <ele>156.4</ele>
        <time>2023-02-05T14:24:45Z</time>
      </trkpt>
      <trkpt lat="43.75583" lon="5.20349">
        <ele>156.4</ele>
        <time>2023-02-05T14:24:48Z</time>
      </trkpt>
      <trkpt lat="43.75588" lon="5.20325">
        <ele>156.4</ele>
        <time>2023-02-05T14:24:52Z</time>
      </trkpt>
      <trkpt lat="43.75582" lon="5.20316">
        <ele>156.4</ele>
        <time>2023-02-05T14:24:55Z</time>
      </trkpt>
      <trkpt lat="43.7558" lon="5.20314">
        <ele>156.2</ele>
        <time>2023-02-05T14:24:56Z</time>
      </trkpt>
      <trkpt lat="43.75572" lon="5.20309">
        <ele>156.4</ele>
        <time>2023-02-05T14:24:58Z</time>
      </trkpt>
      <trkpt lat="43.75561" lon="5.20303">
        <ele>155.8</ele>
        <time>2023-02-05T14:25:00Z</time>
      </trkpt>
      <trkpt lat="43.7554" lon="5.20293">
        <ele>155.2</ele>
        <time>2023-02-05T14:25:04Z</time>
      </trkpt>
      <trkpt lat="43.75535" lon="5.20292">
        <ele>155</ele>
        <time>2023-02-05T14:25:05Z</time>
      </trkpt>
      <trkpt lat="43.75524" lon="5.20295">
        <ele>154.4</ele>
        <time>2023-02-05T14:25:07Z</time>
      </trkpt>
      <trkpt lat="43.75499" lon="5.20303">
        <ele>153.6</ele>
        <time>2023-02-05T14:25:11Z</time>
      </trkpt>
      <trkpt lat="43.75492" lon="5.20304">
        <ele>153.4</ele>
        <time>2023-02-05T14:25:12Z</time>
      </trkpt>
      <trkpt lat="43.75443" lon="5.20302">
        <ele>153.2</ele>
        <time>2023-02-05T14:25:18Z</time>
      </trkpt>
      <trkpt lat="43.75429" lon="5.20299">
        <ele>153</ele>
        <time>2023-02-05T14:25:20Z</time>
      </trkpt>
      <trkpt lat="43.75424" lon="5.20297">
        <ele>152.8</ele>
        <time>2023-02-05T14:25:21Z</time>
      </trkpt>
      <trkpt lat="43.75422" lon="5.20292">
        <ele>152.8</ele>
        <time>2023-02-05T14:25:22Z</time>
      </trkpt>
      <trkpt lat="43.75423" lon="5.20281">
        <ele>152.4</ele>
        <time>2023-02-05T14:25:24Z</time>
      </trkpt>
      <trkpt lat="43.75426" lon="5.20266">
        <ele>152.2</ele>
        <time>2023-02-05T14:25:27Z</time>
      </trkpt>
      <trkpt lat="43.75424" lon="5.20262">
        <ele>152</ele>
        <time>2023-02-05T14:25:28Z</time>
      </trkpt>
      <trkpt lat="43.75422" lon="5.2026">
        <ele>151.8</ele>
        <time>2023-02-05T14:25:29Z</time>
      </trkpt>
      <trkpt lat="43.75419" lon="5.20258">
        <ele>151.6</ele>
        <time>2023-02-05T14:25:31Z</time>
      </trkpt>
      <trkpt lat="43.75419" lon="5.20256">
        <ele>151.2</ele>
        <time>2023-02-05T14:25:33Z</time>
      </trkpt>
    </trkseg>
  </trk>
</gpx>